GFSSGP_500_spd_000.txt.gz
Wind_Speed
17 16 15 14 11 8 11 17 30 25 27 21 16 17 16 19 17 23 21 24 20 25 26 27 23 16 14 13 12 10 9 9 10 11 13 14 15 15 14 13 13 13 14 16 17 18 16 14 15
14 16 11 11 11 9 12 21 30 25 13 14 20 19 24 15 19 25 24 26 25 25 24 17 11 11 11 12 10 8 8 8 10 10 12 13 12 13 12 11 11 11 12 14 14 15 15 15 16
15 13 11 11 7 3 23 27 27 18 16 19 16 20 21 17 23 18 23 24 22 15 11 8 8 10 9 7 5 4 5 7 8 9 9 10 10 10 10 9 9 9 11 12 13 14 14 13 13
8 14 10 10 7 16 23 31 28 18 20 17 17 17 21 20 15 19 16 12 10 7 4 5 6 5 1 2 4 4 5 5 5 6 7 7 8 10 10 12 12 12 13 14 14 14 12 10 11
13 9 9 9 15 27 33 38 30 17 7 15 11 21 12 12 9 8 6 6 1 1 1 1 2 2 4 6 7 6 5 5 5 5 6 7 9 10 10 11 12 12 13 14 15 15 15 14 12
13 12 10 13 20 28 35 31 9 6 11 8 14 13 9 5 6 7 6 4 3 3 5 6 3 1 2 4 5 6 7 7 9 10 10 11 11 13 13 13 13 13 13 13 13 14 15 16 17
13 11 11 22 17 20 21 12 12 15 11 12 9 9 3 1 1 8 11 10 8 8 7 5 2 3 4 6 8 9 10 11 13 14 15 16 16 16 17 17 17 18 18 18 17 18 19 19 19
23 16 11 19 15 18 18 10 10 9 15 2 11 5 3 3 10 11 10 8 8 6 4 2 2 4 7 9 9 10 13 14 16 17 18 18 20 20 22 22 21 22 24 25 25 25 25 24 24
19 15 10 13 12 27 9 9 9 10 8 12 12 4 3 5 6 7 7 6 5 3 4 6 8 10 11 13 15 16 16 16 18 20 22 23 25 26 24 28 27 26 28 27 27 28 27 27 28
25 12 17 21 20 19 12 10 10 9 8 9 9 7 5 5 6 6 4 4 4 6 7 9 10 12 13 15 17 19 21 22 23 24 26 28 29 29 30 27 28 29 30 30 30 29 30 28 28
22 7 22 16 16 14 13 13 10 8 7 7 6 5 4 6 4 4 5 6 6 8 9 11 12 14 16 20 21 23 23 25 27 28 30 31 31 30 30 30 31 32 32 34 35 36 34 33 34
3 17 21 21 14 12 14 13 8 8 6 4 4 3 2 4 4 5 6 6 8 8 9 11 15 17 20 22 25 26 27 29 31 31 32 33 34 34 35 36 39 41 42 41 40 37 36 35 34
15 11 13 11 12 12 8 6 5 6 5 6 5 3 3 4 5 6 9 10 10 13 15 16 19 20 24 25 28 31 33 34 35 34 35 37 38 38 38 40 43 42 41 42 40 37 37 36 35
9 10 10 8 6 4 2 2 6 6 8 6 6 6 4 6 8 9 12 13 15 18 20 22 25 21 24 27 31 33 36 38 38 38 38 38 40 41 42 45 45 43 42 40 37 38 38 39 39
11 8 5 3 3 3 6 8 9 7 9 8 6 7 11 11 13 14 14 15 17 17 21 28 13 24 28 28 32 35 37 39 41 42 43 43 45 45 45 46 43 41 40 40 42 41 40 40 40
7 3 4 1 3 6 8 8 10 7 6 8 10 9 10 17 20 21 16 19 19 23 28 32 12 29 32 35 37 38 40 42 44 45 48 47 47 44 45 45 45 44 44 47 48 49 49 50 51
5 3 1 11 7 5 6 1 14 9 9 9 11 13 14 15 24 24 20 22 21 24 25 38 44 39 37 38 43 43 45 46 47 49 53 52 53 50 50 50 49 48 50 53 54 55 55 56 56
9 3 10 9 6 6 6 8 20 10 15 12 14 16 19 21 21 29 27 27 27 31 31 38 45 43 39 45 40 49 50 49 50 52 56 53 54 52 53 53 55 56 59 60 61 62 62 62 63
14 16 8 13 5 9 11 12 19 12 16 14 17 18 18 26 27 30 29 30 33 36 37 43 44 42 40 49 51 50 51 51 55 57 56 56 56 54 57 59 60 62 65 67 67 66 66 67 68
17 15 9 15 10 11 14 11 18 14 19 21 21 21 25 27 28 29 31 32 36 36 42 43 43 45 51 51 53 52 52 55 56 57 57 56 53 53 55 60 65 68 65 68 72 76 76 74 73
11 12 9 10 7 9 9 12 24 22 16 21 24 26 27 28 30 32 34 35 38 41 43 46 49 49 49 52 54 55 56 55 55 55 57 62 59 58 59 64 70 76 73 73 78 77 77 78 77
14 7 11 11 11 6 10 6 29 28 31 27 23 26 30 35 36 37 35 37 40 42 45 47 48 48 50 52 55 55 55 58 59 61 62 63 64 65 68 73 77 76 76 76 77 79 79 80 78
15 15 15 15 14 16 14 12 22 29 37 39 22 26 32 36 39 39 39 39 40 42 43 45 46 49 50 50 52 54 59 59 60 62 64 66 68 71 74 75 77 78 78 78 78 79 78 79 81
17 17 17 17 17 17 10 17 19 13 31 26 36 35 36 39 38 39 40 42 39 38 41 41 46 48 49 51 52 54 57 61 64 67 70 72 76 76 76 77 78 80 81 80 83 82 82 83 85
12 12 13 12 9 11 14 13 25 29 32 42 41 41 38 36 37 37 39 40 38 36 38 41 44 48 51 56 58 62 65 67 70 74 75 76 78 77 76 77 78 79 80 84 87 88 94 97 94
5 6 7 10 12 11 17 18 30 26 28 35 36 35 38 37 34 36 39 40 40 39 41 43 44 50 55 59 64 68 71 74 77 78 78 78 79 78 80 80 82 82 84 88 94 94 98 96 92
7 9 10 13 15 16 10 18 30 32 31 37 32 36 37 36 36 34 36 39 37 39 44 47 50 53 57 62 67 71 74 78 80 82 84 83 80 80 83 84 83 86 90 91 92 93 91 85 76
9 11 13 15 18 17 11 18 29 31 25 41 40 41 35 35 34 35 36 38 43 45 47 50 54 59 66 71 74 80 83 83 83 82 81 79 79 81 85 88 90 90 90 89 86 80 70 62 54
16 19 19 20 21 22 22 20 31 36 36 36 34 32 30 29 35 37 39 40 43 46 51 56 61 66 71 76 80 81 83 83 83 83 82 80 80 81 83 85 87 87 83 76 67 60 53 48 46
16 18 22 23 25 25 23 20 29 32 30 31 37 37 32 32 34 36 39 44 49 53 59 65 69 74 77 80 83 83 83 82 81 81 80 80 80 81 82 83 80 74 66 59 54 49 49 49 49

GFSSGP_500_spd_003.txt.gz
Wind_Speed
19 14 13 14 14 17 15 17 22 29 22 27 24 19 21 21 22 19 22 27 21 21 23 22 22 14 8 7 5 3 3 3 4 8 10 12 13 12 12 12 11 11 11 10 11 12 13 12 12
14 20 17 16 19 24 22 24 24 18 18 22 25 30 22 22 22 23 23 20 26 24 21 18 12 6 6 7 6 3 0 4 7 6 7 8 9 9 9 10 11 11 11 11 11 12 12 10 10
15 14 12 7 14 16 18 24 28 24 20 26 30 26 21 18 16 20 21 21 22 18 13 10 7 6 6 4 4 3 5 7 4 3 4 4 5 6 7 8 9 10 10 10 11 11 12 12 11
9 6 12 16 19 23 19 23 20 19 22 27 28 25 22 12 15 20 20 15 14 9 9 7 5 4 2 2 3 5 4 2 1 1 2 5 6 7 8 8 9 10 11 12 13 13 13 14 14
12 18 20 16 13 11 18 21 24 26 29 33 26 15 11 12 15 15 9 11 11 9 8 7 4 4 4 4 3 2 2 1 3 6 7 9 10 12 12 12 12 12 13 13 14 13 14 14 16
13 21 24 26 9 13 20 22 23 28 28 20 17 7 6 6 7 9 9 12 10 10 8 7 4 2 2 2 3 4 6 7 8 10 11 13 13 15 15 16 16 17 18 18 18 18 17 18 18
20 22 26 22 25 17 20 21 29 35 32 25 20 4 2 4 4 8 13 13 11 8 6 5 3 1 3 6 8 9 10 11 12 12 13 15 16 19 20 21 22 22 22 22 23 24 24 25 24
25 20 15 16 19 23 19 20 23 27 26 16 7 8 2 3 4 10 13 13 10 8 5 1 3 5 6 8 9 11 13 14 16 15 15 18 19 23 24 24 23 23 23 24 24 23 23 23 24
19 15 12 12 21 17 10 16 14 20 12 9 4 4 2 3 6 10 12 9 8 4 2 4 6 7 9 11 12 15 17 18 22 22 22 24 24 26 27 27 25 24 23 24 25 24 25 27 25
17 12 10 14 16 19 12 17 16 15 7 5 4 3 3 5 8 8 7 5 4 3 3 6 6 8 12 11 13 15 18 20 23 24 26 27 26 26 26 27 27 28 29 31 34 34 33 33 32
14 12 17 18 19 25 20 19 14 6 5 2 3 4 4 4 6 5 2 1 3 2 3 9 12 13 10 13 17 20 20 22 24 26 28 29 31 31 32 32 32 33 34 35 35 34 34 34 32
8 16 19 18 20 23 12 7 6 1 3 1 1 4 4 5 6 4 1 4 5 5 9 15 13 15 18 19 20 19 21 25 26 29 32 33 35 36 36 37 38 38 38 40 38 37 36 32 30
20 17 12 20 15 8 6 4 1 2 4 5 1 3 4 4 3 3 5 5 9 13 13 16 18 16 20 22 26 27 30 32 33 34 34 34 35 37 38 40 41 41 41 40 37 35 33 32 31
20 5 9 9 9 6 4 1 0 3 4 7 4 3 3 4 2 7 12 13 14 16 18 16 26 18 16 16 27 30 34 36 36 36 37 36 38 40 41 45 42 41 39 39 35 34 34 36 37
15 14 13 11 8 3 2 1 6 4 3 1 6 10 7 7 6 8 14 17 18 20 25 27 16 38 25 25 36 32 32 38 36 42 40 41 42 45 45 47 45 45 42 41 38 38 40 43 43
11 8 9 10 5 2 5 9 2 3 2 4 5 7 12 15 18 15 11 18 21 23 28 31 29 36 23 36 35 38 37 39 46 47 47 48 48 47 48 47 46 46 45 45 45 45 48 51 51
11 7 7 10 7 1 6 11 6 4 3 6 10 12 15 20 23 24 21 17 20 29 29 38 38 35 35 37 37 35 43 50 48 51 51 54 55 55 52 51 53 53 52 51 52 53 56 59 59
15 6 3 13 8 2 7 7 13 8 6 9 11 17 20 23 28 27 29 28 29 28 31 40 42 40 41 39 42 46 47 49 52 52 52 52 52 53 56 56 56 56 56 59 62 63 61 63 64
8 14 12 10 3 2 7 12 17 19 13 14 14 17 22 27 28 31 31 33 33 32 39 44 43 44 46 49 42 41 53 52 55 55 53 53 55 57 56 56 58 60 60 61 64 66 69 72 74
14 19 17 12 5 7 10 17 16 17 15 18 16 18 22 26 27 29 31 34 34 37 42 46 45 46 47 42 46 49 48 54 56 54 54 56 57 60 62 65 65 65 66 67 70 72 74 75 77
13 15 13 8 1 6 6 16 17 19 19 18 16 20 20 23 26 29 31 34 38 41 43 45 47 48 48 47 47 50 53 51 51 54 56 58 61 63 66 68 71 74 75 75 75 76 77 77 75
6 8 9 8 7 10 9 14 22 26 25 25 23 25 29 26 28 30 33 38 41 42 41 42 44 46 46 48 46 50 51 53 54 58 60 63 64 67 71 74 77 79 80 80 81 79 78 77 77
6 11 11 11 11 13 14 11 23 29 37 32 21 26 23 31 37 38 34 34 35 36 37 39 39 39 41 44 47 50 52 56 58 61 65 68 71 75 78 79 80 81 82 81 81 80 80 80 79
12 13 13 14 15 13 11 18 30 30 30 35 35 29 32 43 42 41 40 36 35 34 36 39 40 42 43 45 47 50 53 58 62 65 68 72 76 79 78 81 82 82 81 81 81 81 80 81 83
12 12 13 15 12 12 11 20 24 27 33 37 37 41 42 41 43 43 45 42 35 33 35 36 39 42 47 50 54 57 62 67 70 74 77 79 81 82 83 83 83 83 83 82 82 83 85 87 88
2 1 4 6 10 9 11 21 22 25 30 33 36 43 40 39 35 44 42 42 38 35 34 37 39 41 45 51 56 61 66 71 72 76 79 80 80 80 80 81 81 83 83 83 83 85 87 89 90
3 5 7 8 9 9 16 21 24 27 30 37 38 40 39 42 33 34 33 34 34 34 36 40 44 49 55 61 66 72 76 79 81 82 82 81 80 80 81 82 81 81 83 84 84 85 85 83 77
5 9 11 12 12 8 14 24 29 33 36 40 41 42 44 38 32 33 34 36 39 42 45 47 53 59 65 69 73 76 79 82 84 81 80 82 83 82 83 83 82 82 83 83 82 78 71 64 57
9 12 15 18 17 16 10 21 30 34 36 38 35 34 31 32 31 31 33 37 41 45 49 55 61 66 70 73 77 80 82 84 84 80 81 82 82 81 81 78 78 78 75 71 67 62 55 49 47
10 13 16 19 20 20 18 12 28 30 31 25 27 32 31 30 31 33 37 40 45 49 54 59 64 69 72 75 78 80 82 81 82 81 81 82 81 77 73 74 70 68 65 61 56 48 44 46 49

GFSSGP_500_spd_006.txt.gz
Wind_Speed
28 27 17 18 19 25 28 27 22 28 27 27 27 30 28 19 20 25 25 18 21 24 22 21 18 15 13 9 9 7 6 4 5 6 8 9 10 9 8 8 8 8 8 9 10 11 13 14 12
24 22 20 15 13 24 24 26 26 25 32 30 31 27 20 25 27 25 29 26 25 25 24 18 14 12 10 10 9 8 6 5 4 4 5 5 5 6 6 6 7 8 9 9 10 10 11 13 14
20 26 25 23 22 26 30 24 25 23 23 22 12 19 27 30 32 28 27 28 23 22 20 14 11 9 9 7 4 3 5 6 4 2 1 3 5 6 7 7 9 10 11 12 14 15 14 14 15
21 24 23 28 34 28 24 30 30 23 28 18 13 17 21 29 29 29 27 22 21 18 12 11 8 6 4 2 4 5 5 3 3 3 5 6 8 8 10 11 12 13 13 14 15 16 16 16 16
12 12 21 24 28 33 27 22 25 22 14 15 19 24 30 26 26 25 26 21 15 12 10 8 4 5 5 4 4 3 2 3 5 7 8 11 12 12 13 15 17 18 18 19 19 18 18 18 17
14 19 23 21 16 16 19 19 19 13 11 17 25 23 22 25 16 15 16 12 12 11 7 6 7 5 4 3 1 3 5 7 9 11 12 13 14 14 16 17 19 21 22 23 22 23 23 24 25
24 28 27 25 20 18 21 17 20 12 16 23 23 20 23 14 12 14 13 13 12 9 8 9 7 5 4 3 6 7 9 11 11 13 14 15 18 19 21 22 24 25 26 25 24 24 24 24 24
22 24 28 22 20 12 10 16 19 21 21 18 9 11 8 7 6 9 10 12 12 10 9 8 6 6 7 9 11 11 13 14 14 16 18 20 22 24 25 27 26 24 24 24 23 24 25 25 24
21 25 24 25 28 29 13 10 15 19 17 10 10 6 4 5 5 9 10 10 10 8 8 7 8 11 12 12 13 12 14 15 18 20 20 23 25 26 27 26 25 25 25 27 28 29 32 33 31
24 20 24 16 21 22 9 9 18 17 15 9 11 7 6 4 7 8 8 6 7 7 11 11 13 14 11 10 13 15 17 18 20 21 22 22 24 26 27 27 28 28 30 31 33 34 35 36 36
11 12 9 15 10 8 11 17 15 12 6 5 4 6 5 4 6 6 6 8 10 11 15 16 15 13 12 13 16 17 20 25 23 24 25 26 27 29 29 30 30 31 34 36 36 37 36 34 34
14 13 6 12 9 10 15 11 5 4 4 5 5 4 4 4 5 6 8 8 9 10 15 17 18 16 17 18 22 22 21 24 26 27 28 29 31 32 32 32 34 35 35 36 36 36 34 32 29
5 13 12 13 13 12 8 5 5 7 6 6 7 6 4 4 5 6 6 8 10 12 17 22 20 19 19 20 27 22 27 29 26 27 28 28 35 36 38 39 40 39 38 37 36 34 32 30 28
11 9 15 20 15 7 6 4 4 4 2 4 9 8 7 6 3 5 7 9 13 13 15 17 20 20 9 27 24 33 32 29 32 31 28 36 37 38 41 43 44 42 40 39 38 36 35 33 34
14 8 13 13 11 9 7 7 5 3 1 1 6 7 4 5 6 8 12 15 16 17 19 19 21 19 24 26 28 34 33 35 35 37 41 43 45 43 44 42 41 41 41 42 44 44 42 40 39
17 17 15 13 11 9 4 1 4 6 5 3 1 5 6 7 8 9 10 14 17 25 28 32 31 24 29 31 32 36 36 40 39 38 44 50 47 47 41 41 42 44 45 45 46 48 49 50 51
16 19 12 11 7 1 2 0 11 5 5 2 6 9 11 12 15 16 16 19 21 24 30 34 30 34 39 38 39 40 40 37 37 46 49 51 52 49 48 48 48 48 48 49 52 53 55 57 57
14 12 8 9 6 6 10 10 5 1 1 4 8 11 16 19 22 22 19 23 26 28 29 30 37 41 41 44 44 42 39 38 44 48 49 52 50 50 50 51 52 54 56 56 57 59 61 64 65
6 3 6 6 3 6 13 13 13 7 6 7 10 13 16 19 21 22 23 26 29 29 33 41 41 41 49 46 40 37 40 42 47 50 49 50 51 52 55 56 59 60 61 63 65 67 69 71 73
10 8 7 6 4 8 17 15 14 17 13 12 11 10 16 22 23 25 26 27 26 37 40 42 43 45 44 36 40 43 45 47 47 46 52 55 57 58 60 63 66 68 70 72 73 74 75 77 78
17 14 12 8 4 8 11 12 15 17 18 14 10 13 19 23 20 18 23 28 35 39 40 42 43 43 44 45 45 47 45 45 48 52 55 59 61 64 67 69 72 74 76 79 81 82 82 82 82
9 18 19 12 8 12 15 17 21 24 22 22 19 16 17 23 17 19 28 35 37 38 39 42 44 45 45 45 44 44 46 48 51 54 58 61 65 69 71 74 77 81 82 84 84 84 84 84 84
11 13 16 15 14 14 18 23 26 28 27 24 21 18 16 27 26 29 37 37 37 37 39 39 40 41 43 42 43 45 47 51 54 58 62 66 69 73 76 78 80 81 82 81 80 81 83 85 86
11 12 13 15 14 14 20 23 29 28 27 27 25 27 29 34 33 33 35 38 39 42 36 36 39 39 38 41 42 44 48 53 58 62 66 70 72 76 78 82 85 87 83 81 81 81 82 83 84
12 13 15 16 16 17 17 23 28 31 31 30 28 32 35 35 39 35 37 41 41 32 29 33 36 39 41 41 43 48 54 59 63 67 72 76 82 85 84 84 84 83 84 84 84 85 86 87 87
6 5 6 8 9 12 17 22 24 28 31 34 37 30 29 33 38 42 43 41 35 28 27 27 30 33 39 46 53 58 64 67 72 75 77 82 84 87 87 86 85 85 86 88 89 90 89 86 87
2 1 2 4 7 13 18 22 26 28 31 33 31 28 37 43 45 31 35 33 32 31 32 34 37 43 50 56 63 67 70 75 79 81 84 85 86 86 86 89 90 90 89 89 85 79 83 80 76
2 2 3 6 6 11 15 19 24 27 32 34 37 38 40 36 29 33 31 30 33 37 39 42 48 53 58 64 69 72 76 80 84 86 88 87 86 85 88 90 90 85 82 69 69 76 76 66 63
3 4 6 10 12 13 16 18 22 27 30 31 30 28 28 29 35 34 34 38 41 44 45 49 54 59 64 68 71 75 80 83 85 86 85 84 86 86 88 85 80 76 61 68 72 72 59 50 47
1 5 8 10 12 14 17 19 23 27 30 30 30 31 29 32 38 39 41 44 46 47 50 54 59 65 68 70 74 79 84 87 88 89 87 88 89 87 81 73 73 62 62 67 61 63 49 46 45

GFSSGP_500_spd_009.txt.gz
Wind_Speed
18 28 27 26 28 26 32 33 33 30 29 22 19 19 21 23 24 18 19 23 26 24 22 20 21 22 17 14 10 11 10 7 2 4 3 2 2 4 5 7 9 11 12 13 13 13 14 15 16
13 18 20 17 20 24 25 25 26 28 26 24 20 26 24 28 30 18 24 30 29 29 24 23 23 20 15 11 11 11 9 4 4 4 2 3 5 6 8 9 10 11 13 14 16 16 16 17 17
12 17 18 25 19 17 28 28 27 25 27 29 30 25 18 28 18 21 29 34 31 30 26 23 21 15 11 9 7 5 5 7 6 5 7 9 9 10 11 12 13 14 15 16 18 19 19 19 20
13 14 19 20 24 25 30 34 30 34 36 18 38 26 28 16 19 27 34 32 30 28 23 17 15 9 6 4 4 5 6 6 7 10 11 12 13 15 16 16 17 19 20 20 22 22 23 23 24
15 11 22 27 31 27 31 31 35 31 29 23 20 9 10 17 24 33 32 32 29 22 17 14 9 6 6 7 6 6 6 8 10 12 13 15 17 17 18 18 20 22 23 24 25 26 26 26 26
15 12 22 35 35 31 30 27 20 18 16 12 16 17 19 21 19 25 27 24 19 15 13 10 9 9 9 7 7 6 8 11 12 14 16 18 19 18 19 21 23 27 27 29 28 27 27 27 27
13 15 24 23 22 26 29 29 26 12 11 12 17 20 21 23 26 20 18 14 14 12 11 10 11 10 8 8 9 9 12 13 14 17 18 19 20 22 24 26 29 31 32 29 26 25 24 24 25
16 24 24 22 21 17 20 28 19 14 11 11 11 15 17 17 20 14 15 13 12 12 10 10 11 10 10 11 11 13 16 16 17 18 20 22 23 25 28 28 28 28 28 29 27 27 27 28 29
21 22 24 25 23 15 18 20 13 5 8 8 10 16 12 9 5 5 10 11 11 10 10 12 10 10 13 12 14 16 18 19 21 24 24 24 25 26 27 26 27 27 28 30 31 33 35 36 35
27 25 22 21 20 21 17 11 5 12 8 9 11 13 11 9 6 7 9 10 9 10 11 11 13 14 14 13 16 18 20 22 24 25 25 25 25 27 29 29 29 28 29 32 34 36 36 37 37
25 27 28 29 26 29 12 2 14 10 4 2 6 10 10 9 7 7 6 5 8 11 12 14 14 12 13 16 19 20 24 22 23 25 27 28 28 29 27 31 32 31 32 35 36 37 32 29 32
18 21 13 3 3 5 8 8 12 3 2 4 4 5 7 6 5 6 7 6 9 12 13 13 14 15 19 19 20 23 30 26 27 29 31 30 31 29 30 35 33 34 35 35 33 34 33 31 30
15 9 5 2 1 3 6 6 7 6 7 6 7 7 7 7 5 6 6 6 8 12 14 16 16 18 19 21 21 26 32 25 32 31 29 32 34 31 33 38 37 36 34 32 32 34 33 32 31
15 7 5 10 8 8 5 10 10 11 11 9 10 7 6 5 3 5 5 6 8 10 12 15 14 18 21 21 20 22 24 28 32 33 33 34 36 38 38 39 38 37 36 36 36 37 36 35 35
16 7 7 9 13 8 9 11 10 10 11 12 14 11 8 6 5 7 10 9 7 12 15 18 20 24 23 19 26 28 31 32 36 35 32 35 35 37 42 42 36 39 40 40 40 42 44 44 43
13 7 10 11 9 10 7 7 10 10 9 8 10 9 6 5 6 9 11 11 13 16 20 21 23 22 13 27 31 32 43 39 37 35 35 36 39 46 46 40 40 40 42 42 43 46 47 48 49
14 18 12 11 10 10 9 5 9 7 9 7 6 6 6 8 10 14 14 17 19 19 22 21 18 28 34 30 29 31 42 40 35 36 40 44 48 48 44 43 44 46 46 48 49 50 51 53 55
20 16 15 13 9 7 8 8 8 6 7 5 6 7 6 10 13 15 14 15 20 25 24 25 27 35 35 38 40 43 41 34 33 42 48 48 45 47 48 49 50 51 52 54 55 56 58 61 62
21 25 12 13 9 7 4 1 2 3 6 5 8 10 11 11 16 20 19 20 21 21 26 33 36 39 40 43 42 42 37 43 41 47 43 46 48 48 49 52 56 59 61 62 63 64 65 66 68
15 19 11 5 2 7 3 5 9 7 6 4 7 9 10 15 20 21 18 21 21 27 29 33 42 45 45 44 43 42 42 45 47 47 48 49 51 54 57 60 64 67 69 70 72 74 75 75 77
11 11 8 7 6 8 9 13 12 12 11 9 9 11 16 20 21 18 18 22 30 33 35 36 37 41 45 45 44 45 46 47 47 48 49 52 56 60 64 67 70 73 76 77 78 81 82 83 82
14 15 14 14 14 14 17 18 18 18 20 18 16 16 20 20 20 22 29 31 35 38 41 43 43 48 48 46 45 45 45 45 47 50 54 58 63 66 70 73 76 78 81 81 82 84 86 85 85
11 15 16 16 19 21 23 23 22 24 23 21 20 21 25 23 20 31 35 36 38 38 41 45 47 43 40 40 40 41 43 46 50 54 59 62 66 69 72 76 79 82 84 87 88 87 85 85 85
11 13 15 17 19 23 25 27 28 26 24 24 22 23 26 28 29 32 32 39 35 41 44 45 42 41 39 39 40 41 44 49 53 58 62 66 68 72 79 86 86 88 90 89 89 89 90 90 91
14 15 17 19 20 23 25 27 28 26 25 28 30 29 29 29 34 32 29 41 44 41 38 36 35 33 35 38 41 44 49 54 60 64 69 74 79 84 86 88 90 90 90 90 90 91 92 94 92
15 16 16 16 15 16 18 21 23 25 29 31 32 31 28 27 28 34 44 44 36 36 32 30 33 37 41 44 47 52 58 65 68 72 76 80 83 87 90 92 92 93 95 98 97 98 97 90 87
8 9 8 9 10 12 13 15 20 21 23 24 25 26 24 32 33 38 33 33 38 32 31 36 39 42 45 49 55 60 65 67 71 75 80 84 88 91 93 95 95 96 96 99 96 90 84 85 80
9 5 3 4 5 5 8 10 12 13 16 17 19 22 25 26 29 32 35 37 36 37 42 45 48 51 53 57 61 65 68 72 77 81 84 87 90 94 94 95 94 96 95 87 79 80 74 74 68
7 5 3 2 4 6 9 11 13 15 16 17 18 20 24 28 32 36 40 42 44 46 49 52 53 55 58 62 66 68 72 77 81 85 88 91 93 94 94 95 96 91 83 76 72 74 71 62 68
5 3 2 5 8 10 13 13 16 18 19 21 22 23 26 30 34 38 42 45 47 50 50 53 55 59 63 66 68 71 76 80 84 87 90 91 93 94 96 98 88 77 73 67 63 58 55 60 71

GFSSGP_500_spd_012.txt.gz
Wind_Speed
19 23 27 28 28 30 27 30 30 35 36 31 31 26 32 26 26 21 18 7 15 18 21 25 27 27 24 22 16 12 10 9 4 3 2 1 3 5 6 8 9 11 12 13 14 15 17 17 19
17 18 22 23 24 20 27 29 27 30 31 28 27 31 23 19 25 25 26 13 17 20 24 25 25 23 21 18 13 12 10 7 6 6 5 6 8 9 11 12 13 14 16 17 18 19 20 21 21
16 13 19 16 13 14 25 32 41 31 33 32 31 29 25 21 23 21 9 14 20 25 24 23 24 21 17 12 11 8 7 8 8 8 9 11 13 13 15 17 18 19 20 21 23 24 24 25 26
17 14 12 15 12 19 21 27 26 23 29 32 30 33 32 24 25 18 15 20 25 25 23 16 16 15 10 10 8 7 7 8 9 11 12 15 16 18 19 21 22 22 24 25 27 29 29 29 29
17 14 12 19 22 21 20 25 31 34 28 29 28 17 39 12 18 16 20 22 23 22 19 18 15 10 9 7 7 7 7 10 12 13 14 17 18 20 21 22 23 25 27 29 29 31 31 30 28
17 16 12 20 26 26 25 22 31 21 33 29 23 29 16 10 14 13 12 20 23 19 18 15 11 8 9 8 8 9 10 12 13 15 17 19 21 22 24 26 27 29 30 30 29 27 25 26 25
18 15 17 25 28 30 28 22 27 31 15 5 10 11 10 12 19 17 16 17 15 14 12 10 7 10 9 8 10 12 14 14 16 18 20 21 22 24 28 30 30 31 29 29 28 26 26 27 27
17 19 18 19 25 18 20 28 19 21 14 1 8 10 9 12 14 11 11 11 11 9 8 8 10 10 9 11 13 14 16 17 19 20 21 23 25 29 31 31 30 29 29 31 31 30 30 30 30
19 17 21 18 21 21 20 24 20 17 7 3 4 9 6 8 12 7 6 9 9 7 6 6 7 8 10 12 15 17 18 19 20 22 23 26 28 30 31 31 30 29 30 31 31 31 32 33 34
21 20 24 20 16 19 24 15 10 12 7 4 7 10 6 7 7 1 1 5 5 5 4 6 8 10 12 14 16 17 18 18 18 21 22 26 27 30 33 31 31 31 32 32 33 35 35 34 34
24 24 23 20 15 15 13 4 13 11 3 1 5 5 8 8 6 4 4 4 4 3 5 9 10 12 13 15 19 20 21 23 25 26 29 29 32 33 32 35 34 32 35 37 36 35 34 31 28
26 26 24 19 20 15 4 16 10 6 4 4 4 6 7 7 8 8 5 3 5 6 7 8 11 15 18 20 20 23 23 23 25 26 31 31 31 31 33 35 35 35 41 39 34 32 32 31 29
22 20 11 7 6 7 8 8 10 1 5 5 4 6 7 8 6 4 4 5 5 7 9 13 17 20 21 20 19 16 20 21 24 25 29 31 32 35 37 38 36 37 41 36 32 32 33 33 32
12 5 4 2 1 3 4 7 5 7 6 6 8 8 8 5 3 2 2 3 7 10 14 17 20 20 22 22 24 26 24 20 22 26 29 31 32 33 37 35 41 42 41 39 37 36 36 38 39
15 5 2 4 5 5 5 7 11 9 9 10 12 10 7 2 2 3 4 6 10 13 15 19 22 23 25 24 23 23 27 19 35 33 34 31 33 36 37 40 44 45 41 40 38 38 39 40 41
12 3 2 5 10 11 7 10 10 8 10 11 13 13 6 4 5 7 5 8 13 15 17 21 19 21 19 17 21 31 29 37 37 37 32 26 36 36 43 46 42 40 40 40 41 42 44 45 47
13 10 8 11 13 12 12 10 9 13 10 9 13 8 4 5 9 11 7 11 15 20 20 20 16 21 28 27 31 31 39 35 38 32 34 35 42 44 48 43 42 43 45 47 50 51 52 54 55
9 15 11 10 12 13 11 10 9 8 10 9 9 4 6 8 11 11 13 14 16 20 22 20 21 23 28 36 39 38 40 38 33 38 39 44 50 51 49 47 48 51 54 55 57 59 60 61 61
21 17 16 14 17 17 13 10 10 10 8 7 8 7 7 9 12 14 18 21 21 21 23 27 28 29 37 42 49 49 46 41 44 45 48 51 50 47 48 50 55 58 61 62 64 67 70 71 72
25 21 15 19 17 12 6 7 6 4 4 4 5 5 7 11 15 18 20 20 21 26 30 29 35 41 44 47 49 49 49 48 48 46 45 45 46 47 51 56 61 64 66 68 71 75 78 80 81
21 24 18 11 9 8 6 8 6 5 6 6 9 10 13 18 17 19 18 20 24 30 36 36 39 41 42 47 48 43 41 42 42 43 44 45 48 53 59 64 68 70 71 73 77 80 81 84 86
21 20 21 14 13 13 14 14 11 12 13 14 14 16 19 20 21 27 21 25 30 32 34 37 38 44 46 46 42 41 41 42 42 44 46 50 55 60 63 65 67 71 76 79 83 84 86 91 92
19 19 15 14 15 18 18 19 17 17 19 20 21 21 22 24 25 26 29 32 35 34 37 34 49 48 46 44 44 42 41 43 47 50 53 56 59 63 65 69 74 79 84 86 88 89 93 96 96
14 15 15 15 16 19 17 20 20 21 21 23 23 23 25 26 27 27 31 36 41 37 44 48 41 42 43 41 40 42 45 47 49 53 57 62 65 68 73 78 83 88 90 91 93 96 96 96 95
17 17 16 18 19 20 20 24 23 23 21 21 24 27 28 30 29 25 27 37 41 41 46 41 41 42 40 41 45 47 50 53 56 60 64 67 69 75 80 83 86 89 93 95 96 95 101 105 99
16 16 17 19 20 20 21 18 15 15 17 21 23 24 25 23 23 23 30 34 36 40 41 42 42 41 44 49 52 53 53 55 59 63 66 69 74 79 82 86 90 95 96 98 99 99 99 92 88
16 16 14 12 12 12 11 8 6 4 5 8 10 12 15 18 20 24 28 33 37 40 40 43 43 43 46 49 49 51 55 59 62 64 68 72 77 81 86 90 95 99 101 100 101 102 95 87 74
11 10 8 7 7 4 2 3 6 5 7 9 12 15 18 21 24 27 30 32 34 37 40 42 46 50 52 53 54 57 60 63 64 69 73 77 83 87 92 95 99 100 101 102 100 90 73 70 66
11 9 7 5 5 5 5 6 7 10 12 13 16 18 21 24 26 29 32 34 36 39 43 46 49 53 56 57 60 62 64 66 69 74 77 82 88 91 93 95 97 99 100 95 82 68 60 57 52
10 9 8 7 8 9 9 8 12 14 15 17 20 23 26 29 32 35 38 40 42 45 48 50 53 55 58 61 63 65 67 69 73 76 81 86 88 91 95 97 98 98 92 77 62 54 45 35 36

GFSSGP_500_spd_015.txt.gz
Wind_Speed
23 23 25 25 28 29 32 28 24 23 35 34 29 30 35 31 33 34 34 34 27 15 12 13 17 18 19 21 19 15 11 8 6 7 5 3 2 5 7 9 11 12 14 16 18 20 21 21 20
21 20 20 21 23 27 29 26 19 27 28 39 37 32 31 34 38 38 37 22 17 14 8 15 16 15 19 19 15 11 10 7 8 8 8 6 7 9 11 13 14 16 18 19 20 22 23 24 24
19 17 17 18 20 22 25 25 16 23 26 32 24 28 35 36 32 35 25 30 19 10 13 10 15 17 16 13 10 10 7 7 9 11 10 11 12 14 16 17 19 20 21 23 25 26 28 28 27
19 17 16 14 15 19 24 21 21 22 23 30 33 28 23 28 23 24 16 6 3 10 13 12 14 13 12 10 9 6 6 8 10 11 12 13 15 17 19 21 21 23 25 28 29 30 30 29 26
17 16 13 13 19 22 24 20 19 20 30 22 22 26 34 44 36 21 3 5 6 11 13 12 12 12 11 8 5 6 7 8 11 12 13 15 18 20 22 23 24 27 29 30 32 30 28 26 24
18 16 15 18 20 22 22 21 20 20 31 27 21 21 24 29 25 4 6 4 9 13 12 12 12 11 9 6 7 7 7 9 11 14 17 19 21 23 24 26 28 30 30 31 29 29 29 27 25
18 17 14 19 18 22 25 24 23 17 25 9 14 9 9 10 13 10 9 8 9 9 10 10 10 9 9 8 8 9 8 13 15 18 20 22 23 25 26 27 29 30 31 31 29 29 30 29 28
18 18 15 19 20 18 25 22 22 8 15 11 6 1 6 9 10 8 6 6 6 7 8 9 8 9 8 5 7 9 13 17 18 19 20 23 26 28 27 26 27 29 30 31 29 33 31 29 29
19 18 16 18 18 18 20 23 23 23 18 13 5 3 3 4 3 5 2 6 7 8 8 7 6 4 4 7 11 14 16 18 19 20 23 25 26 29 27 28 29 30 32 34 31 33 37 36 35
18 18 19 16 17 21 20 13 21 8 12 4 2 1 4 4 2 4 5 6 7 7 6 4 3 4 7 10 14 15 18 20 23 24 24 26 29 30 25 29 32 31 32 33 33 36 39 36 33
20 22 17 20 15 12 8 6 12 12 8 5 0 6 8 4 3 3 6 7 7 6 5 5 4 6 9 12 14 19 21 23 27 25 23 27 28 31 31 32 33 32 34 33 33 39 38 34 31
19 19 15 13 17 15 6 12 13 12 8 6 6 8 7 4 4 6 7 7 7 6 2 4 8 11 14 15 18 24 25 26 27 22 21 25 29 31 33 34 34 36 37 31 36 38 36 35 35
21 18 14 9 4 14 10 8 11 8 5 6 6 3 3 4 5 5 5 5 3 1 6 6 9 13 17 20 21 22 25 25 25 25 24 28 27 31 33 34 34 32 32 37 43 45 40 38 36
15 12 10 6 10 7 7 9 9 9 6 4 3 2 1 1 1 2 4 5 4 4 8 10 14 16 20 24 24 27 27 21 29 26 29 29 26 29 30 33 35 34 37 41 46 43 40 38 37
13 7 4 2 6 4 5 9 14 10 7 3 5 4 5 4 4 4 5 5 6 9 11 15 17 18 21 22 30 33 29 23 23 29 32 34 33 30 35 32 37 39 43 43 43 41 39 40 42
9 4 7 7 10 9 7 11 10 7 4 4 5 6 5 6 5 5 7 7 9 12 15 18 19 18 17 23 32 15 26 28 32 34 34 28 33 34 35 42 46 45 49 46 44 43 46 48 50
12 4 2 6 12 9 10 11 9 6 2 3 8 11 10 13 13 7 6 9 13 16 19 23 20 20 21 22 35 37 38 38 35 37 35 36 40 46 46 49 50 47 46 45 47 50 53 55 57
9 6 5 6 11 11 11 10 9 10 8 9 11 13 15 15 14 10 9 11 13 16 17 18 19 22 21 28 37 40 35 36 43 44 45 46 46 47 46 46 45 46 46 50 54 57 58 60 62
7 14 12 11 12 12 9 7 8 9 9 12 13 12 11 13 13 13 14 16 18 19 20 22 23 28 34 38 39 42 44 48 49 46 44 43 44 44 45 46 47 49 53 59 62 64 66 68 70
17 18 15 16 13 13 10 10 7 8 8 8 9 9 12 14 15 15 17 18 20 21 22 27 32 35 37 40 43 46 49 48 46 43 41 42 43 44 46 48 52 57 62 65 64 67 69 72 74
24 21 14 10 9 9 10 7 4 3 4 5 6 9 12 14 16 17 19 21 23 25 28 33 35 33 36 40 44 46 45 43 41 41 42 44 47 50 53 56 60 63 63 63 67 70 73 77 81
22 23 20 14 14 13 12 10 6 5 5 8 11 13 15 16 15 14 19 19 22 28 32 33 36 38 43 48 47 43 46 45 44 46 49 51 53 55 57 60 62 62 66 70 74 76 82 86 89
19 17 19 22 24 17 14 12 8 8 9 13 14 14 15 15 17 20 23 24 27 27 36 36 39 46 47 43 43 46 45 44 47 49 51 53 55 57 60 61 63 68 72 76 80 84 88 92 96
18 19 19 19 20 18 13 15 10 11 15 16 15 15 15 16 18 22 24 27 25 33 36 38 38 41 43 43 44 44 44 48 52 55 55 56 58 60 61 65 70 74 77 82 87 91 93 95 100
18 17 16 17 17 14 13 17 14 16 15 13 13 14 15 17 19 21 23 25 27 30 32 34 36 40 42 45 49 50 51 53 53 55 57 59 61 64 67 71 75 79 83 88 91 93 97 101 104
19 19 19 18 17 16 16 9 11 9 9 10 10 9 10 11 13 16 19 22 26 29 32 35 37 40 44 47 49 49 51 53 56 57 59 61 64 67 71 75 78 83 87 90 94 99 103 103 100
19 19 19 18 14 10 7 5 5 6 6 4 4 6 9 11 14 17 20 24 28 31 34 36 39 43 46 48 50 54 57 57 58 61 62 64 67 71 75 80 84 86 90 96 99 102 101 95 83
18 15 13 10 8 6 2 3 2 4 4 6 7 8 11 13 15 19 22 25 28 31 34 37 41 44 46 50 54 58 57 60 63 63 63 66 71 76 80 83 85 89 94 98 103 99 91 78 65
12 11 11 9 7 6 5 5 6 8 8 10 12 13 15 18 21 24 27 29 32 35 39 43 46 47 51 53 55 58 61 61 61 61 66 70 75 80 83 86 89 94 97 101 97 86 72 56 44
12 11 11 10 9 9 10 8 10 13 13 14 16 18 20 23 25 28 31 34 37 40 44 47 48 50 53 53 58 63 62 60 61 65 70 75 79 83 86 89 92 98 100 93 82 67 51 40 35

GFSSGP_500_spd_018.txt.gz
Wind_Speed
29 28 26 27 25 26 32 36 33 35 33 29 27 37 43 38 37 38 38 36 38 35 35 16 13 11 13 15 17 16 12 9 8 11 10 8 7 6 6 9 11 14 16 17 18 20 22 22 23
26 26 26 24 22 24 24 33 30 32 25 24 25 34 36 36 37 38 37 42 38 39 26 14 10 9 12 14 13 12 10 7 10 13 12 10 9 9 10 13 15 17 19 20 21 24 25 25 25
25 23 24 19 18 18 21 29 28 27 25 22 27 31 35 38 40 36 41 40 42 33 31 9 7 10 12 11 11 10 7 6 11 12 12 11 11 12 15 16 18 20 22 23 25 25 25 24 23
22 21 21 18 16 23 26 28 26 29 25 23 20 27 36 46 29 36 28 41 45 38 17 7 7 11 11 10 8 8 6 8 9 10 10 12 13 16 18 18 20 22 24 26 26 25 23 21 21
22 19 17 17 20 23 24 25 25 26 25 22 23 30 36 26 30 21 18 28 16 21 6 5 10 8 10 8 7 7 6 6 6 8 10 13 16 19 21 21 23 24 25 25 26 27 27 26 26
19 17 15 14 16 19 23 22 23 21 21 20 25 17 22 20 32 31 36 23 18 5 4 7 8 8 8 6 8 7 6 6 7 10 13 16 19 21 22 24 26 27 25 25 27 27 27 25 27
21 17 20 20 17 14 23 24 24 20 18 21 12 16 14 3 10 20 24 3 7 2 3 8 9 7 8 10 9 7 7 8 10 14 16 19 22 23 24 25 26 25 26 26 29 28 26 26 26
20 17 18 17 15 14 19 25 21 22 19 23 16 3 6 6 6 5 5 4 4 6 10 8 8 9 10 9 8 8 9 11 14 17 19 22 24 23 24 27 31 28 27 30 26 29 26 28 33
20 15 16 17 16 15 19 23 22 22 17 16 8 6 5 9 7 6 5 7 9 10 9 8 10 10 9 9 9 11 12 15 17 20 20 23 24 26 28 30 30 28 29 28 27 29 29 32 34
19 18 19 18 15 16 13 15 21 23 18 10 8 8 7 4 5 8 11 13 12 11 10 10 9 8 8 9 11 12 16 17 20 23 25 27 28 26 28 28 29 31 31 29 29 33 30 30 34
20 19 18 15 17 14 12 14 16 14 11 9 7 12 10 6 8 10 12 11 12 13 11 8 7 8 10 11 12 15 19 23 25 28 28 28 26 27 28 31 31 31 32 32 31 31 31 34 38
19 17 17 10 9 8 10 17 14 11 10 11 10 12 10 6 6 9 10 12 11 9 7 8 8 8 9 11 15 18 21 24 25 25 23 24 25 29 37 36 31 31 31 32 32 29 33 38 41
17 15 13 6 6 14 8 12 14 14 12 11 11 7 5 4 4 6 8 8 7 5 5 6 7 8 11 15 19 22 25 27 26 25 29 33 30 23 26 29 31 30 33 33 35 36 38 40 41
18 14 9 5 16 11 11 12 13 11 10 10 8 6 6 5 4 6 6 6 6 7 8 9 8 11 15 19 22 25 27 34 32 17 23 22 26 24 27 29 32 32 33 35 39 41 43 44 43
18 13 8 10 10 7 6 15 16 13 9 6 4 4 7 6 5 6 6 9 8 9 10 11 12 14 17 22 24 24 27 14 21 22 23 25 29 36 41 40 35 41 42 46 49 49 45 41 42
14 11 6 6 15 11 9 12 13 10 7 4 3 5 7 6 7 6 6 6 7 10 12 14 17 20 19 24 24 26 18 24 34 29 34 36 39 41 43 44 48 53 50 49 48 45 42 41 43
8 5 7 11 16 14 13 16 10 9 8 5 5 8 11 10 9 7 6 8 10 12 14 16 18 21 22 24 24 29 32 33 32 34 37 40 43 44 44 45 46 47 47 47 47 46 44 47 51
10 8 3 7 14 14 14 14 8 8 7 9 9 10 13 14 13 11 9 9 11 15 17 20 21 21 21 25 32 37 40 42 42 43 43 42 41 41 42 44 46 48 49 50 51 51 54 57 59
11 11 9 8 10 12 12 12 9 6 7 9 11 10 13 15 15 14 14 14 17 19 21 22 22 23 30 32 36 38 41 43 47 47 42 42 40 41 42 45 47 50 53 55 57 59 62 63 63
10 15 11 9 12 9 9 9 7 9 10 10 11 12 15 15 15 15 16 19 20 22 21 20 23 28 33 36 40 42 45 48 46 45 44 43 43 46 49 52 55 56 58 60 61 62 61 63 67
8 18 11 8 5 4 8 9 10 8 9 10 11 11 13 14 15 16 16 18 18 23 23 22 28 33 35 39 40 43 49 44 44 47 48 48 49 51 53 55 56 56 58 59 61 63 66 69 72
13 21 16 8 8 8 8 8 11 10 10 10 12 14 15 16 15 14 16 18 20 22 24 28 30 30 33 37 38 40 42 45 48 50 49 51 53 54 55 56 57 58 60 62 65 68 72 76 81
15 16 21 14 14 16 14 15 19 15 11 14 16 16 17 15 14 17 17 21 23 22 22 22 22 25 29 32 36 39 42 45 48 51 53 55 56 56 58 58 59 61 63 66 71 75 78 82 84
17 12 15 15 19 20 21 20 17 15 15 16 18 18 17 14 16 17 18 18 16 17 20 22 25 27 31 34 38 41 44 47 50 52 55 57 58 58 60 60 62 64 68 72 76 81 85 88 91
14 14 17 18 19 18 16 19 17 15 17 19 18 17 15 15 15 14 14 14 15 19 21 24 26 30 35 39 43 46 48 50 52 54 57 58 59 61 61 62 65 70 75 79 83 86 89 90 94
20 17 18 19 18 18 16 15 14 15 17 16 15 12 10 9 11 12 14 15 18 21 23 26 29 33 37 41 45 48 49 52 53 56 58 61 63 62 62 64 69 75 78 82 86 88 90 95 100
18 19 18 19 19 17 13 9 12 12 11 8 7 8 7 10 12 13 16 20 23 26 28 30 33 37 39 42 44 41 55 55 55 58 60 66 63 62 63 68 73 77 81 84 86 91 96 99 100
20 19 20 19 17 13 7 6 6 6 7 9 9 10 11 13 15 17 21 24 27 30 32 34 37 40 43 45 40 50 55 56 57 62 64 63 62 64 68 72 76 80 83 87 92 97 101 98 82
19 18 16 15 12 10 9 9 11 12 11 12 14 15 17 19 21 23 26 29 32 34 36 38 41 45 47 49 51 55 58 58 59 62 63 62 64 68 72 76 80 82 85 91 97 99 92 77 67
16 15 15 14 13 12 12 10 14 13 14 16 17 20 22 25 27 30 33 35 38 40 41 42 45 48 52 53 55 58 59 59 61 63 62 65 69 73 76 79 81 84 92 96 96 85 72 64 54

GFSSGP_500_spd_021.txt.gz
Wind_Speed
28 28 28 29 28 27 26 16 32 33 35 32 35 34 35 30 41 35 38 39 34 36 41 41 35 32 23 19 17 18 15 13 11 12 15 10 8 7 6 7 9 12 14 16 17 19 21 22 22
27 27 26 25 25 17 13 18 34 35 32 31 32 32 34 27 32 38 42 40 36 39 43 43 39 33 17 16 16 15 12 11 11 13 15 12 11 9 8 10 12 14 16 18 20 20 22 23 21
24 24 24 24 21 14 15 18 39 30 32 33 32 28 29 28 29 32 35 39 40 44 48 46 43 25 16 16 15 13 12 10 11 14 16 14 13 10 11 14 16 18 20 21 21 21 21 21 20
24 22 23 22 13 13 24 29 29 29 33 34 30 30 27 28 30 31 36 34 38 43 39 38 29 16 15 16 16 11 11 10 13 14 15 13 11 12 15 16 18 20 23 24 24 21 21 20 20
25 22 21 16 13 21 27 20 15 12 31 24 28 29 26 29 35 32 35 34 37 35 40 27 20 19 17 17 14 9 9 11 10 10 11 12 13 16 18 20 21 24 25 26 23 22 25 25 25
26 22 15 12 15 21 20 23 27 32 30 24 25 25 32 26 29 32 28 32 24 36 31 16 8 13 18 12 7 8 8 7 5 8 9 13 16 18 20 22 24 25 26 27 25 23 25 25 26
25 19 14 11 19 26 21 23 22 17 19 26 22 23 24 24 21 23 26 35 34 37 25 17 10 8 7 7 8 8 7 6 7 8 12 16 19 21 23 25 24 26 29 31 27 27 25 25 24
25 21 15 16 22 18 28 28 29 21 20 11 25 19 20 21 20 19 15 17 31 19 8 3 4 5 7 6 7 7 8 8 9 13 17 19 22 25 27 28 26 27 30 27 24 27 28 28 30
23 18 11 16 20 21 21 22 24 21 27 22 25 21 15 12 16 18 15 15 24 21 6 1 2 5 5 7 6 7 8 10 13 17 19 21 25 28 29 29 30 31 28 27 25 27 30 32 32
20 14 7 21 24 25 15 19 15 16 13 28 19 14 10 7 8 11 9 7 7 5 1 4 5 6 8 7 7 8 10 13 16 19 21 25 27 27 27 29 30 30 31 32 33 29 29 31 35
18 14 18 22 13 13 18 15 13 7 7 25 27 14 13 10 9 11 12 11 6 5 4 4 6 6 8 6 8 9 13 16 19 21 24 26 25 27 27 34 35 36 37 32 31 30 30 34 31
20 24 14 20 15 17 15 12 11 7 11 9 10 10 12 10 8 9 11 9 7 7 6 7 8 6 6 7 10 14 17 20 22 24 25 22 28 33 32 32 24 27 32 31 30 33 33 34 38
18 17 18 16 12 10 9 11 19 2 7 12 15 9 6 6 5 6 5 5 4 5 6 6 7 8 8 10 14 18 25 27 27 27 27 22 23 27 32 29 24 36 32 40 43 39 38 37 39
17 17 17 11 14 11 9 12 4 13 9 10 10 10 7 5 3 3 3 4 7 7 8 7 7 9 12 15 19 21 32 31 31 17 20 27 24 26 29 32 52 48 38 41 45 45 49 49 48
22 19 7 17 12 6 11 7 10 12 7 7 6 5 7 7 6 7 6 6 7 8 8 9 10 12 15 19 22 26 32 26 23 20 24 24 27 46 33 39 43 43 41 45 47 51 47 47 45
20 17 10 9 15 9 10 8 11 8 7 7 6 5 5 5 6 7 6 5 8 9 9 11 15 17 19 20 24 22 26 34 23 25 38 34 36 45 42 41 42 42 42 42 43 45 46 47 50
18 9 10 9 12 11 9 9 10 10 8 5 3 4 7 7 7 6 6 7 8 10 12 13 16 20 21 21 22 27 36 39 34 36 39 41 42 41 40 40 40 40 41 44 45 48 51 53 52
4 7 11 8 13 14 14 16 13 10 7 5 5 6 7 10 8 7 6 8 11 13 16 19 20 22 24 24 27 32 38 39 41 42 45 46 43 42 44 41 41 44 47 50 53 55 56 56 56
6 6 8 10 10 15 12 11 9 9 9 8 8 10 11 11 11 12 13 14 15 19 22 24 24 25 22 27 32 36 38 40 40 43 45 45 46 46 47 50 51 52 52 55 56 57 57 58 59
6 7 12 7 8 12 10 9 6 7 7 10 11 13 14 14 15 14 14 16 18 22 26 26 27 26 28 30 35 34 35 36 38 40 43 44 46 48 50 50 53 55 53 54 57 59 58 58 58
7 10 13 4 4 6 10 12 8 7 10 13 14 16 15 15 14 16 18 19 19 22 26 25 26 27 30 31 29 29 31 35 38 40 43 45 47 50 51 53 54 55 57 59 59 59 57 60 62
8 9 7 7 5 7 7 9 19 9 12 9 11 13 16 17 18 20 22 21 23 26 27 26 25 24 22 25 27 30 33 38 40 44 47 50 50 51 53 57 57 59 60 59 58 60 61 66 70
15 5 16 13 7 14 10 12 31 2 15 17 16 18 20 22 22 23 23 23 26 27 20 18 19 20 23 26 29 32 36 40 43 46 50 53 55 56 58 60 61 62 63 61 62 63 68 72 76
7 9 9 14 9 15 11 14 14 15 20 27 23 23 24 24 25 26 25 26 23 17 17 18 20 22 25 28 32 35 39 43 46 49 50 53 58 60 60 61 65 66 64 64 67 71 75 78 82
12 9 5 10 14 14 16 19 17 16 19 26 27 28 28 27 26 26 24 19 16 15 19 21 23 26 30 33 36 39 43 46 50 45 55 58 64 62 61 65 66 66 67 70 72 76 80 82 84
10 11 12 12 12 8 19 18 16 23 26 26 29 27 24 23 20 18 17 16 17 20 23 25 28 32 35 38 41 45 47 49 49 50 58 62 64 63 63 65 66 66 69 73 76 80 84 87 90
15 17 20 19 19 19 18 15 20 17 18 18 15 13 13 14 15 16 18 20 23 27 29 32 35 37 40 43 46 48 50 52 53 55 59 62 63 63 64 66 67 68 71 75 80 84 85 92 97
18 19 17 19 22 19 5 11 13 12 10 9 11 13 15 17 20 21 23 26 30 33 35 38 41 43 46 48 50 52 54 55 56 59 61 63 63 63 65 66 68 71 76 79 83 84 89 97 103
19 19 19 20 19 17 13 8 17 14 13 14 15 17 20 22 23 26 29 32 36 38 41 44 46 48 51 53 57 58 58 58 59 60 63 64 63 64 65 67 70 74 78 82 84 90 92 103 90
19 19 20 19 19 16 16 15 14 17 18 18 19 20 22 25 29 31 33 37 41 43 45 48 50 52 53 56 58 58 59 59 60 63 63 64 64 64 66 68 72 76 80 87 89 95 99 93 76

GFSSGP_500_spd_027.txt.gz
Wind_Speed
31 31 33 32 29 27 24 21 18 13 16 27 32 27 32 32 34 37 37 35 38 31 26 33 45 36 31 35 35 35 32 29 25 20 19 17 21 19 15 10 7 7 8 10 12 14 14 14 13
31 29 29 31 28 26 23 21 14 11 21 19 18 31 32 37 37 38 34 36 42 36 26 33 34 28 32 37 40 39 34 36 26 22 19 17 22 18 14 10 9 10 11 12 14 16 17 15 15
28 29 27 26 26 26 9 15 16 22 15 28 34 36 33 34 32 35 34 36 40 41 42 38 32 33 38 40 43 43 38 31 24 21 17 17 20 17 14 12 12 12 14 14 16 18 19 18 16
25 28 25 23 19 9 19 18 13 20 24 30 38 30 35 27 32 33 33 33 35 40 38 33 35 40 39 45 46 39 39 32 21 16 14 15 18 18 15 14 14 15 16 18 19 19 21 23 21
23 24 25 22 8 13 7 14 19 22 28 26 28 36 24 23 25 27 29 30 34 32 35 31 37 39 40 46 43 37 27 22 12 11 11 15 17 16 14 15 16 18 18 20 22 21 22 22 21
23 25 23 11 14 11 9 14 24 33 34 30 26 10 19 24 22 24 24 23 23 28 30 34 37 38 44 43 38 26 19 10 7 9 12 12 13 11 13 18 19 19 21 23 23 25 24 21 19
22 25 22 21 14 8 18 22 27 33 30 22 30 36 25 24 25 23 20 18 17 25 32 40 28 42 38 26 24 13 11 11 8 9 7 2 11 18 18 18 18 20 24 25 22 24 23 22 23
25 28 24 24 12 12 21 25 25 30 25 13 26 36 27 26 16 12 20 23 27 26 28 20 25 34 30 21 16 14 13 8 6 5 7 13 16 16 17 18 21 22 23 24 25 23 23 24 27
26 31 21 11 10 17 21 28 24 26 23 18 25 28 29 30 7 13 18 20 20 23 28 14 21 22 26 14 13 17 8 6 7 10 11 13 13 17 17 20 22 25 25 25 27 23 23 24 24
16 17 13 13 12 19 23 28 28 25 16 15 18 26 20 13 10 13 13 13 19 32 27 17 14 27 22 21 16 9 7 4 5 9 14 16 17 19 19 19 22 19 18 22 26 26 25 28 27
15 20 12 9 10 11 21 24 33 12 14 12 13 22 17 14 12 10 21 17 16 15 21 8 18 16 15 11 6 2 2 4 8 12 16 20 20 18 8 16 15 20 23 27 25 30 34 33 37
22 19 7 18 5 15 17 19 10 13 18 14 8 11 6 6 9 16 8 9 8 10 7 15 14 11 8 6 3 2 1 5 9 9 12 8 8 6 13 14 16 21 27 32 33 33 35 35 35
19 18 5 18 12 9 9 12 18 14 17 13 7 12 10 6 8 11 4 4 9 11 12 13 9 7 5 2 1 2 5 8 9 9 19 15 11 15 24 26 23 26 28 27 28 29 31 32 35
11 16 8 9 18 4 9 12 7 8 9 10 10 8 8 8 7 4 5 3 6 8 8 8 6 3 2 1 2 5 6 9 14 20 20 18 17 18 20 23 21 24 26 28 29 30 31 33 36
17 19 18 15 17 16 14 13 8 7 3 5 3 2 2 4 5 6 1 3 2 4 4 4 2 3 3 6 10 12 13 10 18 22 24 20 17 18 18 21 24 26 28 30 32 32 35 37 39
19 20 17 17 12 13 5 6 5 6 6 5 4 1 1 3 3 3 9 4 1 1 2 3 5 8 11 10 15 14 15 15 20 26 22 15 16 20 23 25 28 30 33 34 36 38 40 43 45
15 10 12 6 7 3 4 8 6 6 7 6 2 3 4 2 2 2 1 4 1 3 6 8 12 12 13 16 16 17 20 21 21 23 17 18 21 25 28 31 34 36 38 38 39 43 46 49 50
13 15 12 9 5 6 3 6 6 5 7 4 3 6 6 5 2 1 3 3 1 5 7 14 18 17 15 17 18 19 19 21 21 19 21 25 27 31 33 36 39 41 41 43 46 48 51 51 51
13 9 6 11 4 8 9 2 7 5 8 6 4 3 4 5 4 3 3 5 2 8 12 15 18 17 19 19 21 20 20 19 19 23 27 31 33 38 39 40 42 44 44 46 49 51 52 54 54
16 11 10 10 6 7 14 7 3 4 13 7 1 3 3 1 5 6 8 10 10 11 16 17 16 20 22 20 17 17 18 20 24 28 32 35 38 43 45 47 48 50 50 51 53 54 57 57 57
7 8 16 13 11 10 12 9 16 14 5 11 10 6 2 2 3 7 11 16 17 18 20 19 19 24 19 15 17 20 22 26 29 32 36 40 44 47 50 50 51 53 53 52 54 56 57 58 57
7 11 13 16 12 13 12 15 21 24 19 9 10 12 9 7 2 6 12 22 26 25 24 22 24 19 17 18 21 23 26 29 32 35 40 44 47 50 52 54 56 58 57 57 57 58 59 58 56
4 5 4 10 3 3 12 17 23 26 24 18 13 13 14 16 16 15 15 19 25 28 24 20 17 18 19 21 25 29 34 37 41 43 46 48 51 53 56 57 59 60 60 61 61 61 61 59 58
6 4 8 15 19 17 7 14 18 18 11 15 17 6 16 19 22 24 22 22 23 25 21 16 16 19 23 28 32 35 39 42 45 49 51 54 56 57 58 59 60 60 58 59 61 62 60 60 61
11 10 13 13 18 18 13 19 12 6 9 15 14 10 12 19 22 24 23 18 16 16 17 16 18 23 28 33 36 40 44 47 50 53 55 57 57 58 59 59 59 55 60 60 61 61 62 64 65
6 11 16 17 17 20 18 9 13 9 12 15 14 16 13 16 17 16 11 9 13 16 19 21 24 28 32 36 41 46 48 51 52 54 56 57 58 59 60 59 52 60 59 62 61 63 65 66 67
10 16 19 14 13 7 10 6 18 13 14 16 15 10 8 7 9 9 10 13 17 20 24 28 30 33 36 40 44 49 50 52 54 56 57 58 59 59 58 57 56 59 61 62 63 65 67 69 71
11 14 15 17 15 10 4 13 13 11 16 16 15 10 11 11 13 14 16 18 20 26 30 33 36 38 40 42 46 50 51 53 55 56 56 59 59 58 57 57 60 61 61 61 66 69 72 76 81
13 16 17 18 18 16 8 14 13 11 14 18 22 19 16 16 19 21 23 25 26 30 34 38 42 43 44 45 48 51 53 54 55 55 57 59 57 54 60 60 60 62 64 66 69 73 76 78 83
13 14 16 17 16 20 12 12 20 17 21 21 22 26 24 23 25 27 30 31 32 34 38 42 46 48 48 47 49 52 52 54 55 57 57 55 58 59 60 58 61 66 70 73 74 76 78 84 85

GFSSGP_500_spd_030.txt.gz
Wind_Speed
31 32 32 32 32 32 32 27 24 20 24 22 24 26 28 30 31 30 30 35 36 37 38 37 37 38 44 45 37 35 30 30 29 29 26 24 20 21 19 15 11 10 11 12 13 14 16 17 16
29 32 32 31 32 33 27 20 18 17 22 21 25 30 28 30 34 37 35 38 38 38 36 38 36 31 33 35 36 30 31 33 33 33 28 21 19 21 20 17 12 12 13 14 14 15 17 18 17
28 32 30 28 30 31 15 15 20 24 23 23 26 25 25 27 33 35 37 38 39 38 40 42 36 43 39 35 36 32 36 37 34 34 28 19 17 21 23 19 15 15 15 16 17 16 17 19 19
26 28 28 27 26 11 18 18 23 26 29 23 21 27 31 34 29 35 38 42 42 39 39 39 36 36 37 41 36 35 39 39 36 29 23 19 14 20 20 14 17 17 18 19 17 18 19 19 22
23 24 27 28 10 8 23 22 23 20 21 17 20 20 23 25 25 30 36 33 36 36 37 37 36 36 36 38 33 36 35 37 35 19 13 11 13 17 16 21 18 19 19 21 19 21 20 21 22
20 23 23 15 15 21 26 25 24 23 20 26 26 21 25 22 18 19 24 29 30 33 43 39 35 30 33 33 34 37 39 37 24 11 7 8 11 16 17 17 20 21 23 23 25 26 26 25 24
20 19 16 19 15 19 22 22 15 21 14 18 20 24 27 28 20 28 23 27 31 37 29 30 21 19 28 36 40 42 31 17 12 10 10 11 14 12 15 19 23 23 23 26 28 25 27 25 21
21 22 24 17 23 21 19 8 11 15 19 21 21 25 28 36 35 32 12 20 19 28 29 42 39 34 36 32 30 22 13 15 13 10 8 8 12 18 21 23 22 23 26 27 28 29 24 18 20
24 19 18 20 27 23 10 9 12 19 27 25 31 26 25 23 20 14 17 22 19 15 37 17 28 29 27 22 16 12 17 16 13 9 10 14 16 17 17 19 22 22 27 28 22 22 18 20 23
15 15 23 23 25 19 11 13 15 18 14 16 21 19 22 18 25 33 13 16 16 20 24 27 19 30 23 15 20 22 11 8 7 7 10 13 15 16 15 13 10 14 16 19 21 25 25 24 29
10 14 25 21 10 8 9 13 16 20 23 9 13 13 21 12 17 10 11 17 19 18 21 16 14 17 24 23 17 12 10 7 2 3 7 10 13 13 13 7 12 15 18 21 24 26 29 33 33
14 17 21 13 6 2 11 10 14 18 10 19 14 12 12 12 16 13 20 11 9 8 16 14 14 17 16 13 13 10 7 6 4 1 5 12 8 8 9 13 18 19 20 22 23 25 24 26 28
23 19 12 15 8 2 7 11 8 15 11 13 17 11 9 15 5 14 6 6 5 11 9 6 17 17 14 9 8 6 3 3 6 6 11 15 14 10 13 16 16 16 16 20 23 26 30 31 33
21 22 11 9 6 3 4 14 12 8 2 7 4 6 9 7 9 14 11 10 12 13 14 13 12 12 10 6 4 1 3 5 4 6 12 15 14 8 7 10 13 17 22 25 28 30 31 33 34
20 17 9 4 6 6 10 13 13 5 4 3 1 4 6 8 5 10 10 9 11 11 9 8 8 7 5 3 3 4 6 6 8 11 12 11 9 9 11 16 21 24 27 27 30 31 33 34 36
9 17 11 6 8 5 10 1 7 8 4 4 1 3 7 8 4 4 8 8 8 8 7 6 5 4 3 1 6 6 6 9 11 14 14 9 12 14 19 23 25 26 28 30 33 35 37 39 40
18 14 10 8 6 3 6 4 5 4 4 2 3 3 6 5 7 3 6 7 8 6 3 2 5 7 6 6 10 10 12 13 16 16 12 13 17 20 24 26 29 32 34 36 38 39 39 41 43
13 10 17 14 7 11 8 8 4 4 4 3 3 5 3 2 6 6 3 4 4 5 4 6 9 9 7 11 11 13 13 14 14 12 13 18 22 25 29 32 34 37 39 41 43 43 44 45 45
14 17 18 12 9 7 1 5 3 1 3 5 3 1 2 2 3 7 6 3 7 11 13 15 12 10 11 16 14 12 10 9 12 15 20 24 28 31 34 37 40 43 45 47 48 50 50 49 50
16 15 15 10 5 4 6 6 3 2 4 4 2 3 5 4 4 5 4 5 6 7 12 13 13 12 14 12 9 10 12 14 17 22 26 30 33 36 39 43 46 48 50 51 53 54 54 55 53
12 18 16 11 5 3 8 10 7 5 2 3 4 3 5 2 6 4 3 6 6 9 11 13 10 13 13 11 12 14 16 20 24 28 32 35 38 41 45 47 50 52 53 55 56 55 55 54 53
13 14 13 12 12 12 11 10 7 10 12 5 8 6 6 8 5 6 7 8 11 12 12 12 11 10 11 12 16 18 22 26 29 33 37 40 43 45 47 50 52 55 56 57 56 55 54 55 55
6 12 13 10 15 11 9 12 7 17 22 13 18 12 3 2 3 5 3 8 14 14 13 14 9 9 11 15 20 25 28 32 35 38 41 44 47 49 50 53 56 56 57 57 57 56 55 57 59
7 10 10 11 13 16 19 18 15 17 19 4 5 7 8 9 5 7 8 9 11 13 10 10 12 14 17 21 26 30 34 37 40 43 46 48 51 54 56 56 56 58 58 57 56 54 57 60 58
11 12 12 15 19 21 18 18 9 9 0 2 1 8 8 7 9 10 7 6 8 9 12 12 14 18 23 27 31 35 39 43 47 49 52 54 56 57 58 57 58 59 59 57 58 60 60 59 62
16 16 17 21 19 16 18 21 15 7 6 3 3 5 6 6 6 3 2 4 9 13 14 17 19 24 29 32 36 40 45 48 51 53 55 56 59 57 59 60 61 61 60 59 62 61 60 63 65
12 11 16 20 17 15 12 18 17 14 8 6 2 3 4 3 5 4 7 10 15 17 19 20 24 28 34 39 42 46 49 51 52 53 55 57 56 58 59 60 59 61 61 62 62 62 64 69 72
14 18 18 18 18 14 13 19 21 17 14 9 8 5 8 8 10 9 11 14 17 22 25 27 31 35 39 42 45 48 49 51 52 54 56 55 57 58 58 57 58 62 61 60 62 65 67 70 74
15 18 20 17 18 16 14 16 18 18 16 16 14 11 12 13 14 13 15 18 21 26 32 35 38 41 43 42 42 45 48 49 52 55 56 55 55 55 55 59 61 60 63 66 67 71 75 80 82
17 17 18 19 17 20 18 14 17 20 22 24 23 16 14 15 16 18 20 22 27 31 34 38 41 40 40 41 42 45 49 51 54 57 53 52 51 55 59 60 60 62 65 69 73 74 77 80 87

GFSSGP_500_spd_033.txt.gz
Wind_Speed
27 29 34 33 31 28 33 34 31 29 29 29 31 30 29 29 27 26 29 29 30 33 33 32 34 34 31 28 29 25 32 36 34 28 26 25 24 22 15 18 16 13 11 14 15 15 16 18 17
27 27 33 34 32 29 30 20 27 19 22 26 26 28 32 31 26 21 28 34 35 37 37 39 34 32 24 31 27 30 27 31 27 26 28 26 28 16 15 18 15 17 15 17 16 16 17 17 17
25 27 33 37 35 31 19 16 21 23 22 22 24 30 32 29 27 33 36 36 37 39 42 42 39 30 34 32 33 39 29 31 28 29 31 29 21 18 16 19 19 18 19 19 19 18 18 18 21
23 27 31 35 33 22 14 21 22 22 25 23 22 29 24 25 29 27 29 33 34 40 44 43 44 38 31 30 32 32 31 31 32 33 34 27 16 18 17 19 22 22 20 22 20 22 21 23 23
20 22 27 30 24 13 24 24 25 26 30 26 25 23 24 25 29 27 30 31 35 38 39 39 41 36 35 31 32 33 31 33 39 35 34 17 14 10 15 17 21 22 23 23 23 23 24 27 28
16 18 21 23 16 20 30 29 28 29 29 26 29 26 19 24 29 25 22 23 26 31 36 34 39 36 34 32 35 34 36 30 43 36 18 7 11 15 18 20 21 23 20 25 25 28 30 31 29
13 15 11 18 17 21 30 29 28 27 29 36 14 18 25 23 21 27 26 26 30 30 33 28 37 37 41 32 36 40 30 41 38 14 10 11 13 14 17 21 20 18 24 24 28 30 30 31 22
13 11 21 19 17 23 25 28 22 26 27 22 27 13 17 18 20 26 35 37 35 33 36 29 43 44 25 24 28 40 44 33 17 13 13 15 13 13 13 14 18 22 23 26 23 16 18 19 20
13 19 21 16 19 21 14 8 13 19 17 18 22 19 21 22 20 25 24 21 8 16 31 44 44 34 28 33 26 31 29 21 19 16 15 14 12 13 15 20 21 23 17 12 15 19 22 25 27
16 23 16 17 17 18 14 13 12 10 14 16 14 22 19 18 22 24 25 20 16 8 24 31 23 20 17 19 25 19 20 17 13 10 10 11 14 17 19 19 16 13 12 16 20 23 25 28 28
15 22 21 18 17 15 17 13 14 16 16 16 7 12 15 16 19 19 24 22 11 13 21 25 26 21 28 23 20 21 14 10 10 7 9 10 9 12 11 15 13 12 16 20 20 20 18 20 22
18 17 23 16 14 8 8 14 9 10 9 9 14 14 12 14 17 16 11 9 13 17 23 23 16 21 21 23 21 17 13 12 13 9 3 1 4 7 10 13 17 18 17 16 19 23 26 27 30
11 16 12 15 8 13 5 4 9 10 13 8 9 11 12 7 22 16 8 5 2 7 4 11 16 15 11 12 13 12 10 4 8 4 5 7 10 9 8 13 14 11 16 20 24 27 29 30 31
15 12 9 17 10 12 2 11 11 8 9 2 2 4 10 11 8 13 14 16 14 17 18 18 18 13 10 9 9 7 6 7 5 4 8 11 11 7 6 9 9 15 20 23 25 29 32 33 35
18 14 18 8 13 4 5 8 7 2 4 9 10 11 10 16 13 12 12 13 14 15 14 14 12 10 9 10 6 6 5 4 5 6 9 13 8 6 10 13 16 21 25 28 31 35 37 39 40
12 11 14 3 2 6 5 5 9 7 7 13 11 10 11 12 12 12 13 15 15 15 13 10 8 5 6 6 2 3 3 7 6 10 12 10 8 10 15 19 23 27 30 33 36 39 40 42 44
11 15 21 8 6 5 2 12 9 9 9 11 7 6 8 11 11 11 12 12 10 11 10 8 3 4 3 1 3 4 6 8 10 11 11 8 12 16 22 25 28 31 34 37 40 40 43 45 46
14 14 18 10 9 14 14 9 7 7 6 6 5 7 7 10 12 13 13 12 10 8 7 5 1 2 3 3 6 8 8 8 8 8 10 12 18 22 26 30 32 35 38 40 42 44 46 46 47
12 16 15 12 12 12 14 6 2 4 4 5 7 8 10 8 10 11 11 10 8 6 3 1 2 2 2 5 7 4 3 4 8 11 14 19 24 28 31 34 35 38 42 44 46 47 48 49 51
19 17 18 11 7 6 8 7 4 4 4 5 4 4 8 10 9 5 8 7 4 4 2 2 1 3 3 5 4 5 6 9 12 16 21 25 28 32 34 37 40 44 47 49 49 48 49 51 51
20 18 16 15 8 4 5 6 6 6 6 5 5 3 5 8 11 10 7 4 1 4 5 6 2 4 6 7 6 8 13 15 18 23 27 30 33 37 39 42 44 47 49 49 49 50 51 53 51
17 19 18 15 9 8 7 6 5 5 8 4 7 4 1 4 4 6 3 1 2 4 7 9 9 8 8 9 11 14 17 20 26 30 33 36 39 43 46 47 49 49 49 50 49 52 55 53 52
12 16 17 13 11 10 10 11 8 9 7 3 5 5 4 8 9 8 5 6 8 9 8 9 8 12 11 12 15 18 23 28 33 35 37 40 43 46 48 50 51 54 51 50 53 52 51 54 55
7 13 18 14 10 12 15 15 12 6 7 4 4 5 6 8 10 14 9 10 10 10 10 6 8 12 14 16 20 23 28 35 38 39 42 43 47 49 50 52 53 51 53 55 58 52 60 62 61
17 14 13 16 15 13 19 20 11 12 5 8 9 8 6 6 7 7 8 9 10 8 8 8 9 15 17 20 25 29 35 39 43 43 45 48 50 49 52 52 51 54 54 56 56 57 61 64 63
17 20 20 18 19 18 19 13 11 12 8 8 8 7 6 6 8 8 8 6 8 9 12 15 14 17 23 26 30 34 39 45 44 43 46 50 51 52 52 52 47 60 58 57 58 61 63 63 67
19 18 19 22 21 19 18 18 16 13 18 13 13 10 9 6 5 4 5 8 11 12 14 14 18 25 29 33 36 41 45 44 46 48 51 52 52 52 52 54 56 57 58 60 62 63 65 69 72
18 20 22 22 22 18 16 15 14 16 17 18 16 15 11 8 8 8 10 13 15 16 19 21 24 28 33 37 41 44 43 45 49 51 52 50 52 54 54 55 56 58 61 62 63 65 69 72 75
20 24 24 23 23 21 19 19 17 19 18 21 18 17 14 13 12 14 15 17 18 19 23 27 30 34 38 41 41 40 45 46 52 53 52 54 55 54 54 55 58 60 61 63 67 71 73 77 81
19 25 26 27 22 24 21 16 18 20 20 22 21 20 17 17 17 18 20 21 20 23 28 32 33 36 39 40 44 42 46 49 53 53 55 59 56 54 55 58 59 61 64 68 73 75 76 79 83

GFSSGP_500_spd_036.txt.gz
Wind_Speed
22 24 27 33 34 33 33 32 35 38 41 35 35 33 30 30 32 31 30 28 28 27 29 29 29 29 28 32 28 25 18 17 22 22 23 23 21 20 18 12 10 11 11 11 13 15 16 16 18
19 22 26 30 35 34 33 26 25 30 36 35 32 31 32 30 31 30 30 31 32 30 32 30 31 34 32 28 26 22 25 27 32 24 25 24 23 21 20 13 12 13 12 16 17 17 17 18 19
18 20 25 30 35 35 30 22 22 27 29 34 32 32 29 34 35 32 32 31 28 29 31 34 32 33 33 31 33 30 27 26 30 27 26 27 23 24 20 15 15 15 17 19 19 19 18 20 20
17 18 23 28 31 30 27 25 26 22 27 28 26 29 28 29 30 32 32 34 34 30 29 31 34 35 31 31 31 30 25 30 29 25 28 29 25 24 20 15 17 17 19 22 20 20 19 22 23
13 15 18 22 24 26 20 22 25 26 24 27 28 28 27 28 28 30 33 34 31 28 26 28 32 32 31 30 24 21 32 32 28 29 29 34 24 18 17 16 16 19 20 21 21 20 22 26 27
10 10 12 16 16 16 20 29 28 26 28 31 30 28 30 18 27 26 28 27 26 28 27 29 27 39 30 34 32 37 35 31 30 29 30 33 27 12 10 13 18 19 22 22 22 22 27 27 31
8 5 6 9 14 22 25 29 31 29 29 28 28 29 31 28 26 19 18 23 26 28 29 32 35 35 33 30 39 35 33 35 35 31 34 18 13 9 12 15 18 19 21 22 22 27 26 25 19
6 8 10 13 18 19 19 27 27 23 21 22 27 30 27 25 18 23 21 25 28 33 38 42 41 41 47 52 45 33 33 32 31 28 22 12 8 8 10 14 15 14 17 19 22 19 21 26 22
6 13 11 13 12 16 24 13 12 15 19 23 21 27 30 20 17 21 21 23 27 20 32 37 34 42 41 42 34 34 34 36 31 15 11 10 8 9 14 15 16 18 18 14 18 22 20 22 23
11 11 14 15 11 11 16 5 10 5 11 17 19 19 21 27 22 21 20 19 23 21 30 33 39 42 44 35 31 27 24 24 22 12 12 12 13 13 13 16 20 19 17 20 18 19 19 16 19
15 19 15 14 9 6 7 11 12 9 11 13 12 14 15 20 25 17 19 21 24 25 21 19 28 35 31 19 22 23 16 21 16 12 11 11 10 13 15 12 18 27 19 14 13 13 17 20 23
14 19 14 12 3 4 5 1 6 9 13 17 17 16 17 17 17 15 12 10 15 16 17 13 23 16 20 24 24 21 22 18 15 13 11 6 3 7 11 13 14 13 18 16 14 18 23 25 27
13 7 5 10 2 5 10 4 6 7 7 14 14 17 16 17 15 10 10 9 8 4 4 7 12 12 17 20 17 15 14 15 14 9 5 4 6 9 10 12 9 10 11 16 20 23 26 29 31
6 8 8 9 7 9 2 6 6 4 6 3 2 2 4 5 18 17 18 15 15 16 20 21 23 19 17 15 11 7 7 7 8 10 7 8 9 11 7 3 6 11 17 20 24 28 31 34 36
7 7 11 14 10 9 5 7 6 7 9 11 15 13 11 19 16 20 20 19 20 20 21 19 16 14 13 12 11 10 10 7 10 11 7 7 9 6 5 8 11 18 22 26 29 32 35 39 41
10 5 6 6 7 9 4 7 3 10 9 13 15 15 12 9 11 13 16 18 18 19 17 16 13 11 11 11 8 10 11 10 8 9 9 11 9 8 10 14 17 22 27 30 34 37 41 43 44
9 11 12 8 7 5 8 13 8 9 7 8 13 15 13 14 15 16 15 16 17 16 15 14 11 9 9 10 10 11 11 8 12 9 9 9 9 12 15 20 23 28 32 36 39 42 45 46 47
13 14 16 10 4 6 11 12 15 11 7 5 8 12 14 15 16 17 16 15 14 13 11 7 5 7 7 7 8 7 8 9 9 7 8 10 13 16 20 24 29 33 37 40 43 46 48 48 48
14 12 16 7 12 10 12 10 13 13 8 6 5 7 11 11 13 14 13 13 11 11 9 8 7 5 7 8 9 8 8 8 7 8 11 14 18 22 25 30 34 37 41 44 47 47 49 49 48
13 10 7 14 14 12 9 7 7 11 12 8 6 3 6 9 11 10 10 10 11 11 9 8 7 8 9 11 11 9 9 9 10 13 15 18 24 27 31 34 37 40 43 45 46 48 48 46 46
16 16 14 16 11 12 13 10 5 10 12 10 6 3 4 6 8 14 15 12 10 7 8 7 9 13 14 14 14 12 13 14 16 17 19 24 29 32 35 37 40 43 43 45 45 45 47 44 50
15 16 17 17 11 11 8 7 8 6 11 11 7 7 5 6 8 11 11 10 9 9 9 9 12 15 14 13 15 14 16 18 19 20 24 30 35 38 39 39 43 42 44 45 45 45 44 48 53
13 16 15 12 11 10 7 8 9 9 8 9 9 12 13 15 13 12 10 8 7 11 12 12 12 14 15 15 14 14 17 22 24 27 30 37 40 41 43 43 45 46 47 49 45 51 53 53 54
13 14 13 14 15 13 13 9 3 5 3 7 12 12 17 19 18 18 18 15 13 15 16 15 11 12 12 11 13 15 19 24 26 30 35 42 41 42 44 46 46 46 44 47 52 48 58 55 57
14 8 11 16 19 17 15 11 4 11 10 8 9 8 15 18 19 23 27 23 20 19 16 13 13 18 12 14 17 20 24 28 31 31 39 40 39 40 47 49 48 50 44 55 52 56 56 59 61
22 21 19 19 19 18 18 17 12 15 16 14 9 9 10 10 14 18 25 27 18 15 13 15 18 19 13 17 22 26 31 33 34 35 38 38 41 43 52 50 50 40 54 53 55 57 59 61 64
19 20 19 22 21 24 20 20 14 17 16 13 12 12 13 12 12 10 11 12 13 11 12 15 19 16 17 22 26 31 35 37 37 37 35 39 47 52 55 54 56 54 52 54 57 58 60 65 69
19 19 21 21 22 23 22 22 16 15 14 16 17 16 16 16 13 11 11 12 13 12 17 17 18 20 24 27 32 36 39 39 38 38 41 47 49 56 56 57 60 55 54 55 57 62 66 70 73
22 22 24 25 27 27 22 19 15 17 17 16 18 20 19 19 18 17 15 17 17 18 21 24 24 25 27 32 35 37 40 40 37 38 40 52 56 57 61 62 58 55 54 56 60 65 70 73 76
27 25 21 29 31 31 27 14 16 18 20 20 23 22 21 21 20 20 19 21 23 24 27 30 29 30 34 37 39 41 41 36 39 49 53 57 57 60 60 59 56 55 56 58 64 70 74 77 80

GFSSGP_500_spd_039.txt.gz
Wind_Speed
19 20 24 25 26 30 35 34 36 38 39 37 34 38 30 27 26 23 27 24 25 24 25 26 26 29 27 24 24 21 22 17 18 18 16 16 16 13 13 10 9 12 14 14 13 13 13 14 15
18 18 20 22 25 27 31 31 31 33 38 40 38 33 40 34 28 27 29 30 28 28 29 30 30 31 29 25 23 22 20 17 21 24 24 22 20 15 14 12 11 13 16 16 15 15 15 16 17
17 18 18 19 22 23 29 30 26 27 30 38 37 34 30 35 34 31 29 29 30 30 31 33 31 30 27 27 25 25 24 27 22 23 24 22 21 20 18 16 13 14 17 19 17 17 16 17 17
16 14 15 16 17 18 22 28 27 24 22 29 34 34 32 31 31 35 34 32 31 31 31 31 29 25 24 26 27 28 26 26 25 23 26 22 21 21 22 19 16 17 19 20 19 17 17 18 19
17 12 11 11 10 14 19 22 24 25 22 28 29 31 30 31 31 32 29 32 34 32 32 27 26 24 25 27 29 28 25 28 23 26 27 24 23 24 23 19 17 18 20 20 19 17 17 19 21
15 10 6 5 5 13 17 19 23 22 24 27 29 29 28 30 31 32 32 26 29 28 27 24 25 29 26 31 28 26 21 25 29 27 26 24 24 25 23 17 17 17 16 18 18 19 19 21 23
12 6 2 6 11 17 19 19 23 26 25 26 28 28 28 30 33 24 26 24 27 26 28 26 25 29 32 33 35 28 27 30 31 30 26 23 24 21 17 18 12 13 15 15 18 20 20 21 19
6 2 5 9 12 14 11 13 20 25 25 23 25 26 29 31 26 29 29 23 23 25 28 29 34 32 37 41 33 28 41 32 37 35 25 19 16 14 11 10 11 12 11 15 16 18 14 20 19
3 8 6 9 11 10 12 6 4 13 17 17 19 24 25 31 29 24 28 26 29 29 29 37 40 38 37 52 45 31 43 48 36 26 26 14 12 11 10 9 10 14 13 17 14 19 18 16 14
9 11 11 11 8 5 8 8 7 8 12 11 14 19 22 23 26 28 23 22 29 28 24 28 35 48 35 43 41 41 44 34 20 23 15 14 16 14 12 12 13 15 16 16 16 18 13 12 14
7 7 10 10 5 4 8 8 9 7 4 7 13 18 19 18 21 24 25 24 26 26 25 30 24 33 35 32 28 20 37 18 17 16 18 16 12 12 13 12 16 14 20 24 26 14 12 15 19
7 8 6 7 3 8 12 6 6 5 7 9 14 19 19 17 18 23 19 23 22 23 22 29 22 18 23 25 22 20 20 17 18 15 15 16 15 13 10 12 16 17 14 12 13 14 17 19 23
10 5 10 7 1 5 3 8 6 5 8 14 16 16 15 18 21 21 18 22 14 7 12 18 11 17 17 19 26 19 18 20 19 17 18 16 12 11 10 15 13 10 8 8 13 18 20 23 26
5 4 4 4 5 11 3 3 8 4 6 6 7 10 9 16 18 16 16 17 10 6 12 15 15 15 15 20 25 22 18 17 16 11 8 6 7 9 11 9 6 7 10 14 19 22 25 28 32
7 9 11 10 2 7 5 2 4 5 7 7 9 12 7 19 24 19 16 16 20 25 25 26 25 23 21 19 17 14 14 14 14 11 10 10 10 10 10 8 10 13 16 19 23 27 30 34 37
11 5 4 10 3 5 4 1 5 7 7 9 12 16 18 18 19 20 20 17 19 21 20 19 18 14 13 12 10 9 8 9 11 12 15 13 12 9 11 12 13 16 20 24 28 31 34 38 41
13 7 6 6 4 5 8 6 5 6 8 8 9 11 12 13 16 17 17 17 16 16 15 15 12 11 10 8 7 7 10 12 14 15 13 11 12 11 13 14 17 22 25 28 31 35 38 41 44
15 9 8 7 5 12 11 8 7 7 8 9 7 11 12 13 14 16 16 15 15 14 13 11 10 10 10 11 12 12 14 15 15 13 11 11 12 11 14 18 23 27 29 33 36 39 41 44 46
11 7 7 9 6 9 13 11 7 7 10 8 9 8 10 13 14 15 14 14 15 13 11 9 9 10 12 12 12 10 12 14 14 12 12 10 11 14 19 24 28 31 34 36 40 43 44 46 47
13 7 7 12 9 10 8 10 6 7 9 8 6 7 9 10 11 12 13 13 13 12 12 12 14 14 15 14 12 10 11 11 10 11 12 13 15 19 24 29 32 34 37 39 43 45 46 46 48
11 11 11 9 11 13 12 9 8 8 7 8 6 4 6 5 7 9 10 13 13 12 11 10 11 14 15 13 12 11 12 11 13 15 16 19 22 25 27 32 34 36 38 41 45 45 46 48 46
10 11 14 12 12 10 11 13 12 11 12 8 6 5 7 10 10 10 12 13 12 11 12 13 13 14 16 15 15 15 14 15 18 18 21 25 29 30 34 37 36 37 42 45 47 47 48 49 47
5 8 11 13 13 7 7 8 13 13 14 10 8 11 10 10 12 14 14 14 14 15 15 15 16 16 20 20 17 16 15 16 20 22 23 27 31 34 38 41 41 41 45 46 48 51 46 50 64
7 9 12 11 12 9 10 8 4 8 14 12 12 16 18 18 17 19 20 20 19 19 18 17 18 17 21 19 21 20 17 18 20 23 26 30 31 34 38 40 43 46 48 54 52 50 54 60 55
12 12 13 14 12 11 13 10 5 8 10 9 12 17 20 25 24 24 25 25 25 24 24 19 18 22 23 26 24 19 19 21 22 25 28 30 34 35 37 40 44 50 52 57 52 54 53 58 58
18 17 13 13 15 14 15 11 10 14 14 13 12 12 13 18 20 24 27 30 31 28 25 22 19 22 23 18 19 18 21 23 27 29 30 30 35 37 38 40 49 50 57 57 57 57 56 58 57
22 22 21 22 19 16 18 17 14 16 15 14 14 15 13 12 13 18 22 26 27 28 24 21 19 22 20 19 19 22 25 28 31 32 30 33 35 37 40 43 49 56 60 58 60 59 59 60 60
25 23 21 20 22 20 18 17 14 16 17 13 18 19 17 14 13 15 14 14 16 19 19 20 22 22 23 25 26 27 29 31 33 33 37 36 36 40 43 49 59 62 60 61 59 58 58 61 63
28 26 23 23 23 21 20 18 14 15 17 17 17 20 19 20 19 18 19 20 19 19 20 21 23 25 29 32 30 32 33 35 36 37 36 39 42 42 54 57 60 57 56 56 61 60 62 65 66
27 25 26 27 23 24 26 20 21 17 19 20 20 20 21 23 23 22 22 22 23 23 24 26 26 29 32 32 34 34 37 38 38 36 40 41 48 54 58 58 57 56 58 62 62 63 66 68 72

GFSSGP_500_spd_042.txt.gz
Wind_Speed
23 20 19 20 23 26 24 29 32 33 39 42 39 38 27 26 35 34 35 35 29 30 28 25 26 25 25 26 27 27 22 17 13 14 15 15 14 14 14 11 11 11 11 14 15 14 13 11 10
20 19 19 17 20 21 17 25 27 34 35 39 41 38 36 30 29 31 26 32 29 25 26 25 27 28 29 29 29 27 21 17 14 13 15 18 18 18 16 16 14 14 15 16 17 16 14 12 12
19 17 16 16 17 19 14 24 27 26 29 36 40 40 38 29 33 27 21 15 22 26 28 29 29 30 31 30 31 26 21 19 20 21 17 15 17 18 17 18 18 18 18 19 18 18 14 13 13
19 16 14 13 16 17 20 23 22 18 23 30 32 41 35 35 31 28 32 28 27 27 29 29 30 30 30 28 26 22 23 24 22 20 19 19 20 16 17 19 21 21 21 19 19 17 13 14 15
18 14 11 10 12 14 16 19 20 21 21 20 24 31 35 34 29 26 28 29 35 35 34 33 31 27 26 27 24 26 25 26 21 21 21 20 21 19 19 22 21 23 22 20 20 16 14 14 16
14 10 7 5 7 11 14 15 16 19 21 21 22 26 28 33 29 28 31 31 29 31 33 31 27 25 28 32 30 27 26 23 21 22 21 24 22 19 21 20 20 21 20 19 17 14 14 14 17
8 6 2 7 12 11 14 14 17 19 21 20 23 25 28 30 30 30 30 29 31 27 29 27 25 27 26 35 34 20 27 22 22 23 25 30 26 22 20 19 20 19 17 16 12 13 13 13 11
4 2 3 8 9 8 7 8 12 15 18 21 21 27 27 28 28 29 28 33 28 29 31 27 28 32 33 48 50 34 32 29 29 33 30 36 18 23 25 22 16 13 11 12 12 11 8 11 12
4 4 4 7 8 9 9 2 6 10 12 17 17 20 25 25 30 30 30 26 28 33 28 25 30 30 29 37 39 40 43 33 31 38 33 22 18 19 18 13 12 11 11 11 12 9 12 11 14
6 5 5 5 5 7 9 13 11 1 11 14 15 18 19 23 25 26 29 32 32 31 33 31 28 34 40 46 47 44 48 45 29 31 27 17 19 17 13 13 12 12 12 12 11 12 14 13 14
6 7 7 6 4 7 11 15 14 12 9 14 12 13 16 20 23 22 24 29 30 32 27 28 32 35 36 38 48 49 50 37 28 17 19 17 18 12 13 12 15 14 13 11 14 15 17 14 16
5 3 2 7 8 9 7 10 14 12 11 9 9 11 16 20 23 23 23 29 29 29 29 28 27 29 30 31 39 39 36 18 25 29 17 16 15 12 12 13 14 12 14 14 10 10 12 15 19
2 1 6 9 8 7 2 8 10 5 9 13 17 17 19 18 24 26 24 28 31 27 22 27 29 30 33 20 27 28 23 28 24 19 19 17 14 13 13 13 13 15 14 9 10 12 15 18 23
4 5 5 10 7 10 4 2 6 6 8 7 9 12 15 18 22 22 23 27 25 23 24 22 23 22 16 17 22 29 28 21 20 21 20 19 17 14 12 12 13 10 9 9 12 16 20 24 28
8 6 6 4 0 6 7 3 4 4 6 5 3 6 10 18 17 19 26 28 16 10 15 23 24 23 14 17 20 23 23 21 18 17 14 12 10 10 11 11 10 11 9 12 17 21 25 28 32
9 5 4 9 2 2 1 4 2 2 4 4 7 11 13 19 17 23 21 22 21 21 25 25 24 23 23 21 19 18 16 15 16 13 12 12 11 12 11 12 12 11 14 18 21 25 29 34 38
12 6 8 5 4 10 5 5 3 3 1 1 4 8 12 11 10 20 21 21 19 17 17 17 18 18 17 15 13 12 12 11 11 13 14 14 16 14 12 11 12 15 19 23 27 31 34 37 40
13 7 6 6 3 10 9 7 6 4 2 2 1 2 7 11 12 10 15 15 15 14 12 11 10 11 13 11 10 8 7 9 12 13 16 15 16 13 11 13 14 18 22 27 31 34 38 40 45
19 14 10 10 3 9 10 7 4 3 8 3 2 3 5 8 10 12 12 11 12 12 10 9 8 8 9 10 12 12 12 12 13 15 16 15 14 14 14 15 19 22 27 31 34 36 38 43 46
11 13 12 11 6 8 13 12 4 3 4 6 3 4 5 6 8 8 8 7 7 8 8 9 10 10 12 12 9 9 9 13 15 16 15 15 15 16 18 20 24 27 30 34 37 38 42 42 48
9 12 10 13 12 11 11 8 5 6 5 6 4 4 5 5 7 8 9 9 11 12 11 10 11 12 14 14 16 11 12 14 15 14 16 18 18 21 24 29 33 34 37 38 39 42 44 47 51
10 12 10 12 8 8 12 6 7 7 9 5 4 5 6 7 8 8 9 10 12 13 12 12 13 14 16 16 17 14 13 16 17 18 18 19 22 25 30 32 36 39 39 41 41 44 48 51 54
9 10 13 11 9 8 6 5 14 15 14 11 10 9 9 10 11 11 12 13 14 15 15 14 15 15 16 17 20 20 19 18 18 17 19 22 24 27 30 33 36 41 42 44 44 44 51 53 58
8 8 9 9 11 11 8 5 8 11 14 19 17 12 15 15 14 15 18 18 17 19 19 18 17 17 20 21 24 24 25 25 22 19 20 24 28 30 30 33 37 42 44 47 47 50 56 58 62
12 11 7 11 12 10 10 7 7 11 14 21 17 18 19 20 21 22 20 21 23 23 23 24 21 22 23 25 31 28 31 31 27 23 22 27 30 31 32 37 39 42 45 49 51 54 55 66 61
16 16 12 12 11 11 12 9 10 13 11 15 21 18 18 20 21 21 23 24 26 27 28 28 27 25 26 25 26 31 30 19 20 22 26 29 31 32 34 35 40 39 46 49 52 59 66 62 55
21 21 19 17 18 17 15 14 13 16 14 13 13 20 18 19 17 18 22 25 27 28 30 30 29 27 26 28 27 24 14 19 24 27 30 31 33 32 34 38 40 45 48 48 59 63 59 54 63
26 25 23 23 22 21 18 17 10 15 16 15 17 20 22 21 19 18 20 20 19 20 21 20 21 25 27 28 27 28 28 29 30 31 32 33 34 32 35 44 44 47 52 63 64 61 57 58 59
29 29 28 25 24 22 19 16 13 13 16 18 17 17 23 25 23 20 21 21 20 20 20 21 23 25 27 30 31 32 33 32 33 31 34 35 34 33 41 47 50 55 58 59 59 57 58 57 61
31 31 30 28 26 25 26 23 20 18 21 22 22 22 21 23 24 26 25 26 26 26 25 25 27 28 29 31 34 35 34 36 36 36 36 36 37 39 40 49 54 55 55 56 56 58 62 59 61

GFSSGP_500_spd_045.txt.gz
Wind_Speed
39 27 22 19 18 20 18 18 18 20 32 37 40 22 30 45 41 44 14 31 38 35 32 31 30 30 31 28 27 25 23 22 21 20 17 17 17 20 13 11 10 12 12 13 12 12 12 11 9
29 22 20 18 14 12 12 15 20 24 27 17 33 37 45 36 36 34 38 32 37 39 34 32 30 29 29 28 25 26 25 22 16 16 16 17 18 20 17 14 14 13 14 15 14 15 15 13 11
23 18 17 14 12 12 12 19 18 22 35 37 30 33 39 40 34 35 29 37 30 37 29 29 31 32 28 28 28 29 29 25 18 21 22 20 19 19 18 17 17 16 14 17 17 18 17 15 13
21 15 14 10 9 12 17 11 28 33 25 27 26 23 34 38 39 36 35 32 31 25 24 21 25 18 25 29 30 31 29 25 24 24 21 21 21 20 18 16 17 16 17 18 20 20 18 15 12
17 12 8 10 10 14 17 21 29 25 22 23 23 24 30 34 39 45 41 28 27 25 22 24 26 27 29 28 27 25 25 24 25 24 20 21 21 22 22 19 17 19 18 20 22 19 16 17 13
13 9 4 9 8 13 11 20 23 20 18 19 19 29 16 27 32 34 27 30 24 21 30 33 32 31 29 27 25 25 31 25 27 24 21 22 25 24 23 18 19 18 18 19 20 17 15 15 13
10 6 5 10 9 6 16 12 16 14 16 23 22 24 20 22 27 25 28 27 27 28 27 29 31 31 32 32 30 31 36 29 30 24 21 23 26 28 25 21 18 18 19 19 19 16 11 11 13
11 6 4 7 6 19 3 14 9 13 25 26 20 19 22 25 23 24 27 28 31 33 29 37 30 32 32 30 36 31 39 29 34 29 23 26 33 32 22 20 20 18 19 15 12 10 10 9 10
8 9 4 6 3 9 10 9 10 13 15 18 18 20 20 22 24 26 29 29 30 30 32 28 33 38 36 31 33 41 38 36 41 34 29 36 38 23 22 18 19 13 12 11 9 9 8 10 12
5 3 4 10 11 10 13 13 19 16 15 16 16 17 19 21 23 25 31 32 32 34 31 33 27 27 29 33 38 40 34 44 55 42 38 34 31 21 15 15 14 13 10 9 10 12 12 10 12
4 5 7 7 10 9 14 16 17 19 24 14 19 18 21 20 22 27 26 28 31 31 32 29 31 25 27 25 33 34 48 37 41 46 40 32 24 15 15 14 12 10 10 13 10 12 11 11 13
5 4 8 11 13 15 17 13 7 21 22 9 14 18 20 22 22 24 26 28 30 33 33 30 30 25 27 38 44 38 31 40 39 40 29 30 23 17 14 12 10 11 13 12 12 11 9 9 13
7 6 11 9 11 14 11 10 8 7 13 17 17 19 19 23 25 28 28 31 30 29 28 30 28 26 29 31 30 32 36 25 31 30 31 20 17 16 13 12 11 12 12 12 11 10 9 13 17
10 6 8 4 6 10 9 10 11 15 14 16 12 17 24 27 28 27 26 33 35 28 24 25 29 29 28 28 33 37 33 30 36 30 20 19 17 15 13 11 11 12 10 9 9 9 14 18 21
6 3 7 6 1 5 12 12 13 17 14 13 15 11 16 20 22 21 23 24 30 20 24 29 28 30 27 26 25 23 26 29 31 21 17 15 13 11 10 10 11 10 8 10 12 14 18 22 26
4 2 7 9 7 9 13 8 12 16 11 8 11 9 2 11 17 25 17 22 27 18 16 19 25 26 23 21 10 16 19 21 18 15 13 14 11 12 11 9 9 9 12 12 16 19 23 26 29
3 9 12 4 8 8 10 16 14 15 11 6 5 8 9 13 12 15 18 14 13 10 17 21 21 20 19 22 17 16 15 14 13 12 12 14 13 12 11 8 13 14 14 16 20 23 26 29 32
8 12 4 15 8 8 3 8 12 18 14 7 4 4 6 12 10 14 15 12 15 15 15 15 15 16 15 16 14 14 13 11 11 14 15 15 14 14 12 12 14 15 18 22 23 25 30 32 34
21 14 12 13 14 9 2 4 13 16 11 9 5 3 2 2 7 7 8 10 11 9 10 8 9 9 9 8 7 6 6 10 13 14 14 15 14 15 14 14 15 20 23 25 27 28 32 35 36
14 15 12 12 18 8 4 7 12 18 8 7 7 5 2 1 2 3 4 4 5 6 5 3 3 4 5 5 3 4 7 9 13 15 16 16 16 14 16 17 20 24 28 30 33 38 40 38 38
9 13 15 18 8 13 9 4 14 9 9 8 9 5 3 2 2 3 2 2 2 4 5 6 5 5 6 7 10 11 12 12 13 13 15 14 15 16 19 21 25 29 35 37 39 39 42 44 44
6 13 22 15 17 11 11 16 13 13 14 10 7 6 5 5 4 4 5 6 7 8 8 7 7 7 8 10 14 15 15 13 15 16 16 16 18 21 23 27 30 33 36 38 39 39 42 45 47
11 11 10 12 9 10 6 3 15 9 14 15 12 12 8 8 7 7 9 9 10 11 12 11 12 13 13 13 15 16 16 20 19 21 23 23 23 23 25 27 31 35 37 38 41 43 44 49 53
6 7 11 11 7 10 4 9 6 10 9 10 17 15 13 13 12 12 13 13 13 14 16 16 17 17 16 16 18 20 25 24 23 25 25 25 24 24 25 28 31 35 38 40 43 45 45 50 52
9 9 4 9 12 7 12 13 12 5 15 15 20 14 20 21 21 18 17 17 16 19 21 21 21 22 21 21 21 22 18 27 40 34 34 30 28 27 26 29 35 36 37 39 43 45 48 54 60
15 13 13 11 9 14 16 10 13 21 15 13 14 19 22 25 23 20 18 18 20 19 20 21 23 25 23 27 26 19 19 24 27 16 36 25 26 27 30 32 37 37 37 38 43 48 53 55 59
17 20 15 20 20 21 11 13 15 18 18 18 17 20 24 24 22 18 18 18 19 22 23 23 26 26 23 20 31 23 22 23 25 26 26 27 30 31 33 35 38 37 38 43 50 53 54 59 63
27 21 23 25 20 18 14 13 16 14 18 16 17 18 21 23 22 21 19 19 20 21 23 22 23 22 21 21 25 26 27 27 29 31 30 33 31 33 36 38 37 39 41 49 47 51 60 63 66
28 28 25 20 20 19 15 13 15 17 19 20 21 16 19 22 24 24 23 22 22 24 24 24 24 24 24 21 27 29 31 32 33 35 34 36 35 38 39 40 42 44 44 49 53 59 60 61 65
23 24 28 28 25 28 28 22 22 21 21 27 24 25 19 21 23 27 27 27 27 28 29 30 29 28 28 29 29 33 35 35 35 36 38 39 40 40 41 43 44 45 49 51 58 60 59 57 60

GFSSGP_500_spd_048.txt.gz
Wind_Speed
54 54 41 26 19 15 11 13 5 18 33 35 41 34 24 41 41 46 51 52 53 14 35 37 32 29 28 27 27 28 28 27 24 22 20 19 15 16 18 17 15 13 13 11 12 12 10 11 10
54 45 28 19 12 4 9 13 12 21 32 33 39 39 37 38 41 51 61 49 42 29 23 28 33 30 32 31 31 31 28 25 24 21 19 16 16 17 19 19 18 17 14 13 13 13 13 12 12
49 32 19 11 8 9 5 22 15 23 37 18 23 36 38 45 23 47 32 30 38 40 30 32 31 35 33 32 30 29 27 25 24 22 17 17 20 19 18 19 18 16 15 15 14 14 14 16 14
38 19 8 6 13 6 13 25 19 16 25 25 39 38 47 40 30 28 38 33 28 28 19 35 34 32 41 31 30 28 28 27 25 23 22 23 25 23 23 22 15 15 16 16 15 15 17 17 16
24 10 13 10 14 14 16 23 20 18 30 30 30 42 42 40 24 26 34 30 34 24 24 30 26 29 17 28 29 27 26 27 25 25 24 24 25 23 22 21 17 16 15 15 15 16 18 18 17
16 5 7 13 16 11 24 25 35 32 28 28 29 30 33 38 24 24 29 27 28 23 23 22 26 20 18 18 21 22 23 25 28 27 26 24 26 24 23 21 18 15 15 13 13 16 18 16 13
7 7 1 9 12 24 31 22 21 25 27 24 32 23 24 12 26 23 25 26 24 20 20 23 24 22 26 27 27 28 28 28 33 28 28 26 26 25 25 21 22 16 13 13 13 13 15 9 8
11 11 8 11 18 23 18 20 12 14 25 19 29 29 21 9 18 19 23 23 21 21 23 25 29 24 39 39 35 32 33 30 31 33 32 29 25 25 27 25 25 18 14 12 12 8 6 6 5
8 11 5 5 14 24 21 17 15 19 20 26 21 16 19 16 18 23 25 25 20 20 26 23 21 21 19 32 34 38 34 31 35 38 41 33 28 30 33 23 20 15 12 9 7 7 6 7 8
6 7 7 5 21 26 23 20 20 18 21 25 22 21 19 18 21 27 27 25 23 24 23 22 21 23 28 22 29 35 34 23 29 37 43 33 33 29 23 20 19 11 10 9 8 8 9 10 9
3 4 15 14 20 14 11 12 16 21 18 20 27 27 23 18 23 25 27 26 24 24 25 23 23 27 28 30 17 21 27 39 35 38 42 42 46 23 21 21 13 12 12 11 10 11 13 12 11
9 9 15 16 13 8 8 10 10 16 15 14 19 13 17 20 22 24 24 26 23 22 23 27 23 30 30 27 21 29 34 30 37 32 34 35 38 24 22 12 14 13 13 11 10 10 11 9 9
11 9 15 14 11 13 13 10 11 6 18 20 23 19 17 20 23 24 24 25 24 25 25 27 30 29 30 20 15 22 36 37 26 22 23 29 37 31 21 18 15 13 10 9 9 12 11 9 9
11 11 11 7 11 11 14 20 14 13 17 24 19 16 20 19 20 24 24 24 26 27 27 25 27 28 27 36 30 33 23 31 27 25 24 29 26 20 15 15 11 11 10 11 12 11 10 10 13
2 7 9 9 12 14 15 23 8 18 17 20 20 17 12 19 22 29 28 27 23 24 27 27 24 18 22 26 22 24 27 29 35 23 22 24 20 19 15 11 10 11 10 10 11 10 11 15 17
2 2 5 13 11 21 24 17 11 12 20 18 17 18 16 14 12 14 19 17 22 21 17 18 23 27 25 29 20 19 22 16 11 15 20 20 17 14 13 12 9 10 11 10 11 13 17 19 20
10 7 10 16 14 18 24 15 8 10 16 18 17 17 18 8 3 9 17 19 17 20 17 12 13 16 20 20 15 11 8 10 15 17 14 12 11 11 9 7 7 10 13 14 16 19 20 21 22
4 13 16 19 14 17 12 21 29 7 16 14 14 12 14 16 19 17 18 17 15 14 12 15 12 13 18 17 22 18 15 15 12 9 7 7 7 7 9 10 12 13 16 19 21 21 24 25 27
15 15 11 20 18 17 10 6 22 15 21 16 7 11 11 12 13 11 11 9 10 14 16 16 15 13 15 14 12 11 8 5 4 3 5 7 8 12 14 15 14 17 18 20 23 26 28 32 34
21 20 9 12 18 15 11 10 22 18 17 16 11 9 9 8 8 9 7 8 7 7 9 10 11 9 9 8 8 7 4 3 2 4 8 10 14 17 17 18 17 18 21 24 27 32 34 37 36
6 13 19 20 14 13 14 5 15 15 22 19 18 10 7 5 2 4 2 4 3 5 7 8 8 9 8 7 7 6 7 8 9 9 10 14 16 16 17 17 20 22 27 25 31 35 35 36 36
3 9 14 19 21 13 14 18 10 8 13 19 13 14 10 7 4 3 1 1 3 3 3 5 7 8 8 8 7 8 10 10 12 14 15 15 16 19 19 22 25 25 28 31 31 34 34 37 39
9 15 18 12 22 16 13 2 8 8 10 13 16 18 11 7 6 6 8 8 7 5 4 5 5 7 8 10 10 11 10 10 12 16 18 20 26 25 24 25 28 29 28 30 31 35 37 41 44
13 11 12 9 10 13 7 12 21 15 14 8 23 17 18 8 8 10 10 10 9 9 9 10 10 11 11 12 12 13 12 12 14 17 17 29 34 34 28 29 25 29 30 30 34 37 38 39 42
15 11 7 8 9 2 9 12 15 16 8 5 16 20 19 15 12 15 14 11 9 9 10 12 13 14 14 12 15 17 11 24 18 18 23 22 30 31 28 28 28 28 28 32 34 34 38 40 47
19 15 14 14 17 15 16 9 12 18 8 9 14 16 21 21 20 15 16 12 12 9 9 11 13 15 16 16 13 16 17 16 16 20 27 27 28 18 20 25 26 28 31 34 37 37 38 42 45
21 22 14 21 18 12 13 7 11 22 22 17 19 21 18 20 27 26 22 20 17 14 12 12 14 15 17 16 15 23 22 11 15 19 25 31 25 25 28 25 28 32 37 40 39 42 43 47 48
27 20 21 24 22 18 14 10 19 22 23 22 17 19 22 22 20 22 25 23 23 24 19 13 14 20 22 20 17 22 24 17 19 23 27 31 31 29 33 32 34 37 39 42 43 44 46 48 51
30 29 26 24 22 22 20 15 21 12 10 16 20 21 18 20 20 22 22 21 20 27 33 24 23 22 25 24 23 27 29 28 27 29 30 32 30 33 33 35 38 39 41 42 44 46 49 51 53
30 30 31 32 24 24 24 23 20 21 17 19 27 24 23 18 22 17 21 25 25 25 27 29 30 30 30 29 28 28 31 33 33 35 33 32 33 35 36 38 39 40 42 44 47 50 51 53 56

GFSSGP_500_spd_051.txt.gz
Wind_Speed
41 45 48 50 39 26 5 10 8 8 10 23 23 30 32 37 46 51 53 51 40 31 25 55 39 34 34 31 32 32 30 29 28 26 23 22 17 17 16 19 19 19 18 17 14 14 13 13 11
42 45 46 36 21 12 6 9 12 20 23 21 27 29 32 34 30 31 43 55 48 40 43 38 31 35 33 35 35 32 30 29 28 25 22 20 16 15 19 19 19 19 17 16 14 14 15 13 13
43 43 32 14 8 5 5 18 16 23 19 17 30 17 28 32 35 28 35 42 51 48 47 55 40 34 38 38 38 34 32 31 29 25 21 16 17 19 18 18 18 17 18 18 16 15 16 15 15
42 35 19 4 9 10 8 17 25 19 22 24 19 30 29 30 38 33 41 46 48 53 45 51 35 39 39 48 41 34 36 33 29 26 20 17 21 24 23 23 21 18 16 18 19 18 15 15 16
37 21 9 7 10 22 15 12 22 32 25 25 26 29 31 35 36 28 20 51 43 39 28 28 28 29 33 40 47 39 37 31 28 24 22 24 27 27 24 23 23 20 16 17 17 16 17 16 15
22 18 9 6 14 19 23 21 26 26 37 36 27 33 34 35 35 34 33 28 30 29 27 26 30 29 31 43 43 44 35 29 28 24 25 25 27 25 25 23 23 20 18 17 16 15 14 15 13
23 10 5 10 6 14 18 24 25 24 31 29 32 35 28 34 34 39 32 9 22 22 22 25 24 23 24 30 29 27 27 29 26 25 25 23 25 26 24 25 23 20 17 16 15 14 13 12 8
15 8 6 3 6 16 25 22 24 19 20 24 26 27 31 36 28 17 19 19 15 18 20 22 23 20 16 20 26 25 28 28 26 27 30 25 28 25 27 26 23 20 22 19 14 12 10 8 7
9 2 4 6 13 24 27 30 30 20 18 28 23 23 33 21 14 18 15 16 18 19 22 21 20 19 23 22 20 25 31 31 32 28 30 25 26 28 32 32 25 19 17 15 12 9 9 9 7
7 7 5 4 10 21 28 30 25 13 11 18 19 20 20 23 19 20 16 12 12 17 19 20 18 22 23 16 11 16 30 38 28 31 32 31 31 40 41 38 27 19 17 13 14 13 10 9 7
6 6 5 6 19 25 15 18 22 16 10 10 14 18 24 16 19 25 22 18 19 19 20 23 24 17 15 10 13 17 18 20 32 34 35 39 33 27 38 34 23 20 14 16 15 13 11 10 9
3 8 13 12 21 19 16 13 20 22 9 9 12 18 19 17 19 21 22 20 21 19 19 18 16 20 16 12 18 20 18 20 21 21 19 24 30 19 30 24 23 16 18 18 16 13 10 10 10
5 11 16 9 11 14 14 15 22 28 12 14 14 19 14 17 19 22 20 19 20 20 19 20 18 18 22 22 23 24 15 15 16 23 27 14 16 18 22 21 21 18 16 16 14 12 10 12 11
9 11 4 1 8 15 14 18 23 15 15 17 17 19 23 12 18 18 19 20 21 23 22 23 20 21 22 23 23 21 16 21 14 16 19 20 16 17 24 24 21 18 15 15 13 11 11 12 12
11 9 4 4 13 16 20 16 25 13 14 15 17 20 23 19 13 20 20 20 21 21 19 21 21 22 24 25 19 17 15 18 18 23 26 24 13 14 19 21 19 15 13 11 12 12 13 13 13
6 2 2 5 16 17 25 22 22 16 12 16 17 20 23 23 5 9 12 16 22 21 24 16 19 22 24 18 16 16 19 21 17 12 10 11 16 23 24 16 12 14 12 13 14 15 14 15 15
6 7 5 10 19 20 17 20 15 23 19 16 17 18 19 24 15 6 3 6 10 14 11 15 16 19 23 21 18 15 17 19 18 8 10 16 21 17 16 12 11 11 14 17 16 16 16 17 18
17 2 4 17 16 23 19 18 13 14 19 18 19 16 17 16 20 22 21 20 18 12 6 10 9 7 10 10 15 13 15 20 21 20 19 18 17 14 12 10 10 11 15 16 17 17 18 19 22
14 5 9 5 15 14 17 17 9 9 14 17 18 14 14 13 12 15 15 16 18 20 20 18 19 22 23 19 16 17 17 14 14 12 9 10 11 12 12 12 13 13 18 18 19 20 23 25 26
5 10 9 15 14 15 16 15 13 15 15 9 17 13 13 11 11 10 12 9 11 13 16 18 18 19 15 15 12 15 13 12 9 6 2 3 8 11 13 14 15 16 20 20 21 23 24 28 31
6 9 14 21 19 19 13 16 16 16 18 12 12 12 10 8 7 6 7 6 8 11 13 14 14 14 12 11 11 10 11 10 8 6 1 5 9 13 15 14 17 20 20 22 23 26 29 33 32
10 8 21 26 24 25 20 12 17 17 10 9 11 13 10 7 6 5 7 6 7 8 8 9 10 11 12 11 10 9 7 5 2 2 2 4 7 10 14 17 18 20 22 24 25 27 29 33 34
11 12 15 18 17 23 20 15 9 17 15 19 12 10 8 5 4 7 7 7 7 6 4 4 5 6 5 5 6 6 3 2 4 4 8 11 11 14 21 24 26 25 26 28 29 28 31 33 36
17 14 12 12 12 12 10 12 14 16 16 19 12 7 9 2 2 4 5 4 4 4 2 1 1 1 1 2 3 4 6 7 3 10 8 8 8 16 16 32 31 28 31 29 29 34 33 34 30
21 17 12 13 15 9 16 17 13 15 11 9 10 7 8 4 5 6 5 4 5 4 7 6 5 6 6 7 8 9 9 9 12 10 12 14 13 18 21 15 29 26 30 28 28 27 28 31 35
22 21 18 12 14 15 12 8 17 13 9 12 16 17 11 11 2 5 7 8 7 9 9 10 10 9 7 7 8 8 12 13 12 13 13 15 17 17 17 18 18 18 19 24 25 30 33 34 37
23 25 14 20 16 15 14 12 19 18 16 14 16 19 23 20 17 16 15 16 15 13 13 12 11 11 8 7 8 10 13 10 8 14 15 18 19 20 19 18 25 23 25 29 30 32 35 36 39
28 22 21 26 25 21 14 13 14 14 22 19 18 17 15 21 23 19 18 16 17 15 16 18 12 14 16 15 10 13 17 16 18 16 18 23 24 26 23 23 28 28 29 30 32 34 35 37 41
27 32 31 29 28 27 18 20 23 19 22 23 13 10 12 11 18 22 23 20 17 19 21 19 32 28 18 20 17 21 25 25 20 27 16 26 27 29 28 27 31 31 32 32 34 36 38 41 44
30 26 32 32 28 30 27 27 25 24 24 20 21 21 21 18 14 15 20 25 25 23 25 23 23 20 23 25 21 21 29 41 22 21 26 27 29 28 29 32 34 35 35 35 37 39 42 44 47

GFSSGP_500_spd_054.txt.gz
Wind_Speed
37 39 41 40 35 27 16 7 9 9 12 7 12 9 15 23 27 31 43 38 44 43 46 34 34 35 45 47 38 35 34 34 32 29 28 27 24 22 18 19 20 19 20 20 19 16 13 13 12
37 38 40 38 29 17 5 10 5 7 8 13 19 17 21 22 28 30 39 40 44 45 48 58 50 25 39 47 42 39 36 33 31 30 27 25 22 21 20 20 20 21 20 19 17 16 14 15 14
34 37 36 28 12 9 15 8 8 10 17 21 16 19 22 25 29 33 34 35 33 38 42 48 51 47 35 36 37 35 37 33 32 31 26 23 21 19 20 20 21 20 20 19 18 20 18 17 16
31 33 27 9 6 4 9 11 12 12 19 26 27 28 25 18 24 24 30 31 32 34 40 42 52 49 49 43 45 41 39 35 35 31 27 26 21 17 19 20 20 20 18 17 19 21 19 17 17
30 28 16 10 10 7 6 9 14 14 23 30 30 29 32 25 23 24 28 34 38 44 44 38 43 47 53 39 48 52 42 40 36 33 30 27 22 22 24 23 23 22 21 19 19 19 19 19 18
28 21 11 11 12 5 5 13 19 24 28 26 27 28 31 30 32 33 34 38 47 41 57 41 33 31 18 38 45 55 46 39 36 34 30 28 24 24 24 25 24 22 21 22 21 21 18 18 15
25 14 6 9 7 5 12 15 21 19 17 19 18 19 26 32 37 36 37 38 44 23 39 31 27 20 20 23 34 29 44 41 39 35 29 28 25 24 24 24 23 24 24 24 22 20 19 17 10
21 9 10 8 4 15 13 18 19 19 19 16 17 19 25 27 30 35 44 42 31 14 24 24 25 22 21 21 29 51 46 40 43 33 31 29 25 22 21 23 27 28 28 25 23 20 18 18 11
18 13 13 10 10 13 19 25 24 18 18 15 20 17 15 24 28 37 24 18 21 21 17 20 19 20 20 21 30 25 40 45 34 25 29 29 25 23 19 26 31 31 27 28 28 22 18 14 15
16 17 16 11 12 16 19 23 21 17 22 17 16 10 10 17 19 17 17 6 15 20 20 17 20 22 15 22 23 17 22 25 25 29 27 28 25 24 24 27 28 33 31 27 23 17 16 15 16
21 18 16 15 11 21 21 19 20 20 20 16 15 20 17 15 8 12 16 13 2 12 14 19 15 21 24 19 18 8 8 14 26 29 29 28 29 27 32 29 23 21 31 30 21 18 18 18 16
21 20 15 10 15 18 16 15 18 22 21 21 13 13 14 13 8 8 14 16 13 13 17 17 20 18 9 9 6 5 7 10 16 14 22 25 12 20 14 19 15 20 23 25 20 19 18 16 15
21 18 14 10 9 7 10 12 19 24 17 14 17 19 17 11 11 11 14 13 11 12 18 17 16 15 11 9 8 11 10 14 12 12 12 14 21 19 18 16 20 18 24 24 22 19 17 17 16
22 15 8 7 3 8 10 11 19 19 14 18 22 20 19 15 11 12 10 15 15 15 17 20 20 21 16 14 16 13 16 19 10 12 12 13 18 21 13 15 20 22 25 22 20 18 18 16 15
19 13 7 6 4 9 11 19 15 19 18 16 20 20 19 16 6 8 10 13 16 17 19 23 24 22 20 16 24 25 18 16 19 16 16 17 23 22 13 14 22 25 22 19 18 17 17 18 18
14 9 9 7 6 8 14 14 14 13 15 13 13 17 22 21 8 1 10 15 17 19 20 22 25 23 23 21 20 16 14 13 18 21 17 24 27 20 16 13 20 18 15 17 17 17 17 18 18
12 12 13 8 6 9 11 11 10 10 11 12 12 15 16 21 15 7 1 8 10 18 23 25 28 24 22 21 19 16 17 21 21 18 20 19 19 17 17 26 20 18 19 15 16 19 21 19 18
14 15 19 14 7 4 10 5 9 4 8 11 9 11 12 17 15 14 15 14 6 13 20 22 22 22 19 17 17 21 23 20 22 24 25 23 20 25 25 17 15 14 15 19 21 21 20 20 20
15 18 22 17 3 10 9 5 11 5 10 8 6 5 8 12 10 11 12 15 20 22 15 13 14 12 7 10 16 19 14 16 15 21 23 20 21 18 18 15 15 15 18 19 21 22 22 24 23
13 16 16 18 6 11 13 11 9 5 8 5 6 4 7 11 8 10 11 10 12 18 20 20 21 22 18 19 19 19 16 17 15 14 15 18 18 17 17 17 17 18 18 21 23 23 24 24 24
14 15 19 12 16 19 18 13 10 7 6 7 5 4 7 9 6 5 6 8 9 12 15 17 17 17 17 17 17 16 15 16 14 12 12 12 14 16 16 17 18 19 21 24 26 25 26 26 27
17 14 14 22 23 22 20 24 13 11 5 4 3 3 3 9 8 6 6 6 8 10 10 14 15 16 15 15 14 14 12 12 11 9 6 6 6 8 9 14 18 20 21 22 24 26 28 29 30
18 15 16 18 24 21 15 23 15 17 1 7 6 5 3 4 9 6 5 4 5 7 9 10 11 12 12 11 11 9 8 6 5 5 3 2 5 5 7 13 20 23 24 25 25 30 29 33 35
22 18 17 19 17 14 9 24 18 13 8 4 6 6 3 5 6 3 4 2 2 2 3 4 6 7 6 6 7 8 6 2 5 3 3 6 5 6 7 8 11 24 30 32 33 30 31 31 36
26 23 20 21 18 11 12 17 11 15 13 2 7 3 3 1 1 2 6 5 2 3 2 2 3 4 6 6 6 5 5 7 6 7 8 12 12 11 10 12 11 14 16 21 26 28 30 32 30
27 27 22 21 18 15 17 13 12 15 15 9 9 5 2 5 3 2 5 9 10 9 7 6 7 7 8 7 7 8 12 9 10 11 11 12 13 14 14 13 11 15 16 19 23 26 26 30 33
25 28 21 26 24 21 20 18 19 18 17 16 15 7 3 4 6 5 4 7 10 12 12 12 10 10 9 12 12 12 14 16 13 17 18 16 16 16 17 16 14 17 21 23 25 27 31 32 32
31 22 28 31 29 26 22 17 17 18 16 15 15 18 12 4 3 6 7 8 10 11 13 16 16 17 19 20 17 16 17 17 18 18 19 19 23 17 17 21 20 22 25 27 29 30 31 32 33
34 33 33 31 33 30 27 22 19 19 21 17 16 13 8 8 7 7 8 7 9 11 13 17 19 23 26 29 29 20 22 24 24 25 27 21 23 24 19 21 22 22 28 31 32 32 32 32 34
39 36 29 34 35 31 30 26 22 22 23 23 19 16 17 18 17 14 13 12 13 14 12 12 16 18 22 21 17 18 26 27 26 37 31 25 17 26 25 27 25 26 30 33 33 33 34 35 38

GFSSGP_500_spd_057.txt.gz
Wind_Speed
32 35 33 34 32 28 28 27 24 22 18 19 10 10 17 20 21 27 22 41 35 32 39 44 40 42 42 31 34 34 32 24 25 24 25 25 25 25 24 23 21 19 19 18 17 17 15 14 13
32 32 31 33 28 27 23 24 23 18 10 9 13 17 16 19 19 24 28 27 32 35 35 35 37 39 45 35 38 33 34 34 31 27 29 24 26 24 19 19 19 19 17 17 18 18 17 16 15
29 29 30 29 26 21 18 17 16 19 12 13 17 17 13 19 19 23 28 34 32 35 34 37 40 41 45 30 32 32 35 36 24 31 30 25 25 22 21 20 19 16 18 18 19 19 19 19 19
28 30 28 25 22 18 17 17 12 13 16 15 22 24 24 26 23 23 24 25 27 32 32 35 31 35 39 38 47 39 42 43 31 32 28 27 24 21 22 19 14 16 16 17 17 19 21 22 20
25 29 23 18 16 16 14 14 11 12 14 17 23 22 25 28 29 24 26 26 24 27 33 36 35 34 36 42 43 32 34 39 38 34 31 29 25 24 23 21 18 18 20 19 20 21 20 20 21
25 29 20 16 15 13 12 14 13 12 14 17 19 18 22 26 27 28 26 29 31 33 39 38 40 38 40 36 35 37 47 47 41 35 35 30 27 26 22 21 20 21 21 20 21 21 20 20 19
25 26 20 17 13 15 14 12 13 17 19 19 26 26 24 19 26 28 30 32 33 33 36 42 43 39 38 29 36 54 49 55 41 35 37 33 28 27 22 24 22 23 22 21 20 22 22 22 21
26 27 21 18 18 17 13 14 9 11 11 16 22 26 28 26 29 24 30 29 31 31 35 42 39 36 38 23 24 15 22 43 46 49 40 35 28 25 22 23 22 20 22 23 22 22 23 25 26
24 26 21 20 22 20 15 16 14 14 18 23 19 19 19 22 24 27 29 30 33 28 34 30 31 28 24 32 17 10 19 31 45 40 36 30 29 26 25 25 23 18 22 28 25 25 24 25 25
24 27 22 23 26 21 17 16 15 15 20 24 17 22 23 23 28 27 21 16 12 18 24 25 24 24 22 21 19 18 24 26 40 44 34 31 29 25 25 25 25 23 23 24 26 28 26 26 21
21 25 26 25 28 20 15 10 12 15 19 17 15 18 19 20 21 18 13 7 2 8 17 24 21 25 24 24 22 22 15 21 38 39 29 30 25 24 33 27 24 28 25 21 22 32 26 22 23
24 25 24 24 29 16 10 11 10 14 13 15 17 19 20 19 21 13 14 12 12 5 8 11 26 15 7 10 21 17 14 19 18 23 28 25 28 24 18 31 25 18 23 23 23 29 26 25 25
21 24 21 17 10 8 8 11 8 9 9 12 16 19 19 16 17 15 12 13 12 10 11 14 15 13 5 9 6 12 8 8 19 25 23 23 24 31 17 19 21 17 23 21 25 28 23 23 25
23 23 20 13 9 1 4 7 6 6 11 11 12 15 19 12 10 9 9 11 13 10 10 14 15 12 13 7 13 12 6 10 12 23 21 20 22 18 21 22 23 18 21 18 26 24 24 25 25
23 23 20 14 10 4 5 7 4 7 10 6 10 16 20 6 3 1 9 9 15 15 18 17 18 18 16 16 12 11 11 9 15 20 12 16 23 17 21 23 20 19 19 22 24 24 24 24 24
22 24 19 14 14 10 3 5 5 7 6 6 8 12 18 11 3 1 8 13 13 16 20 19 17 20 18 19 20 14 16 16 20 17 17 18 19 20 24 23 17 19 22 26 28 26 22 22 22
19 22 20 16 16 14 7 3 7 2 5 7 5 7 12 12 9 6 5 11 17 21 20 17 15 22 19 19 20 25 22 19 19 18 20 21 24 25 27 24 19 20 22 19 20 21 23 24 23
21 21 21 17 14 15 15 6 6 4 6 6 4 5 7 7 6 10 8 8 8 14 19 19 20 19 21 23 26 26 24 22 21 23 28 25 25 24 27 23 18 21 19 19 20 23 24 23 24
21 20 20 20 19 22 22 12 8 4 6 5 3 3 2 2 2 7 9 13 2 13 17 19 18 22 27 27 27 30 30 24 25 25 27 27 24 24 22 20 26 25 21 21 21 21 22 23 27
21 20 16 21 22 21 20 8 6 7 6 4 5 1 1 0 2 6 10 9 12 10 12 11 9 14 22 26 27 25 25 22 26 27 25 17 18 18 22 24 23 21 19 20 20 21 24 28 29
21 19 16 21 26 27 22 10 7 5 3 1 1 1 3 5 4 1 6 7 8 10 14 15 15 15 16 17 20 20 17 16 17 16 16 17 17 20 21 18 19 20 21 21 22 23 28 29 31
21 18 20 22 25 25 17 11 12 10 8 3 1 2 1 4 5 5 4 6 8 10 11 8 8 12 15 16 16 17 19 17 14 14 15 15 18 19 20 20 21 21 21 22 25 28 28 30 32
16 25 22 24 21 21 18 17 12 13 7 8 7 5 3 2 3 3 5 5 5 8 10 11 11 11 13 14 15 16 15 13 13 15 14 15 17 18 17 17 18 20 21 25 26 29 29 30 33
23 29 26 27 20 13 14 14 5 12 11 8 7 10 7 6 5 1 4 6 4 5 7 9 9 8 9 11 12 13 14 14 14 15 16 18 17 16 13 10 10 12 16 22 30 34 32 31 34
29 29 30 31 23 8 19 19 4 14 15 11 12 11 7 7 6 4 2 6 4 2 3 4 7 7 8 10 12 13 13 11 14 13 13 14 13 14 15 12 12 14 15 16 26 35 35 37 37
29 32 33 32 24 16 24 21 10 17 12 12 13 11 9 7 7 5 6 3 3 4 5 5 4 6 8 8 9 9 10 12 13 13 13 13 15 15 17 19 18 17 18 19 17 21 29 28 30
30 33 28 34 31 26 25 23 16 17 11 13 16 11 9 7 8 8 9 9 6 6 8 7 9 9 9 11 13 15 15 15 16 15 16 17 17 18 21 21 22 22 19 19 24 24 24 28 31
36 30 32 36 37 30 27 25 19 23 19 14 13 17 11 13 10 9 9 10 9 8 11 10 11 12 14 14 15 18 21 18 17 19 19 21 20 24 29 31 28 25 23 25 24 27 28 31 33
38 36 36 36 39 35 30 27 25 23 23 17 15 14 11 14 10 9 7 10 10 11 9 12 15 18 18 18 19 20 27 26 25 26 29 31 32 30 34 24 24 23 24 24 26 28 31 34 35
41 40 39 43 40 34 32 21 25 27 23 25 23 18 12 13 13 12 11 13 14 15 14 12 14 17 20 22 21 24 22 26 27 29 25 33 30 36 23 23 23 23 23 27 27 31 35 36 37

GFSSGP_500_spd_060.txt.gz
Wind_Speed
31 29 31 35 35 36 37 32 29 32 30 27 24 18 15 17 19 22 26 29 42 36 41 39 40 31 34 29 35 39 40 38 31 24 25 18 15 14 15 14 14 13 13 14 17 16 15 15 13
29 28 31 34 34 35 32 27 24 22 20 21 20 14 17 17 16 18 21 29 24 28 44 39 29 30 33 35 36 38 32 32 34 29 25 19 15 14 14 15 15 11 16 15 14 15 18 18 18
26 28 30 31 35 32 23 18 14 14 16 19 18 21 18 17 14 19 16 17 25 27 24 28 32 30 31 33 32 31 29 27 33 26 26 22 19 16 16 16 15 13 13 13 12 17 19 21 19
24 28 29 31 35 28 18 13 14 13 17 18 17 17 20 21 17 21 26 19 23 25 26 20 21 26 30 31 33 34 23 21 29 31 27 26 23 18 18 15 13 13 13 14 15 18 17 18 20
26 26 29 32 33 23 15 15 18 16 19 19 20 18 19 21 19 25 22 23 25 25 23 32 34 34 30 29 31 31 37 28 31 38 36 27 23 20 21 17 16 13 17 16 21 20 20 20 20
23 25 29 32 31 24 18 17 16 17 17 17 19 22 20 25 27 26 23 24 22 27 24 23 25 32 34 30 29 32 33 31 20 39 43 32 26 24 22 18 15 14 17 22 21 22 20 17 17
21 25 29 31 30 24 15 14 17 11 10 12 19 22 25 23 21 24 24 26 27 27 30 31 31 35 33 31 31 32 26 35 30 37 40 34 28 27 21 18 17 17 18 20 21 20 19 19 18
21 24 28 29 25 21 17 15 16 11 8 13 20 20 21 22 18 19 21 22 28 29 29 33 32 30 26 29 33 31 34 37 27 36 40 33 32 29 23 20 19 20 19 18 21 22 21 21 21
21 25 26 28 24 22 19 16 19 14 10 15 22 19 22 24 24 21 22 21 25 30 37 31 35 34 27 28 29 18 13 33 29 37 37 31 34 27 24 23 19 19 18 20 19 22 25 24 23
20 24 26 27 23 20 16 16 16 12 12 15 11 15 20 25 23 19 14 16 17 12 17 21 28 37 29 27 27 29 22 13 21 32 43 38 30 29 26 25 21 21 22 24 24 23 26 26 25
20 24 24 27 22 16 13 17 14 9 10 9 11 17 22 23 23 18 11 10 4 5 9 15 22 24 34 26 15 11 16 21 23 23 42 39 39 27 28 25 24 23 25 23 26 26 25 28 27
20 23 25 24 22 15 10 16 10 13 10 13 14 16 23 24 22 13 9 8 10 2 13 15 21 18 25 24 20 22 20 17 28 31 41 37 32 27 25 22 25 30 30 27 25 26 26 23 26
21 24 22 26 21 15 10 15 9 15 12 13 11 16 21 20 16 11 7 7 9 7 9 7 10 23 10 11 15 23 23 16 19 28 29 32 29 29 27 25 18 23 30 29 26 23 19 22 24
25 23 24 27 20 14 11 11 7 11 8 10 6 14 20 19 16 11 4 8 10 10 9 16 13 17 13 11 11 14 18 18 20 24 27 32 26 26 31 26 26 24 28 30 26 23 20 26 31
26 25 26 26 20 18 14 12 11 7 8 8 8 12 16 17 14 6 5 8 11 15 14 16 18 17 12 14 16 16 16 13 12 23 30 26 24 24 22 24 21 25 27 29 26 22 21 25 23
25 27 26 24 19 18 15 13 9 6 7 5 8 9 10 12 12 9 5 10 12 16 16 18 20 12 14 15 17 17 18 18 12 17 24 22 17 22 24 19 18 22 24 25 25 21 24 23 25
23 22 25 24 18 15 16 13 12 9 6 8 8 8 7 8 10 10 9 9 14 16 17 19 16 17 18 16 18 21 20 21 20 21 26 24 20 21 22 23 23 26 25 23 23 21 21 24 27
26 23 26 23 19 15 16 16 14 13 8 5 8 9 8 7 8 10 10 11 8 14 18 17 15 18 20 16 16 20 23 24 19 21 22 25 22 22 24 25 27 29 24 23 24 23 24 24 24
28 24 25 20 23 18 15 19 19 18 10 8 9 9 11 7 5 10 12 14 4 9 13 19 22 19 17 17 19 19 22 21 26 24 23 28 26 25 25 24 25 25 20 19 16 20 24 23 23
27 24 23 20 23 23 18 17 19 18 11 8 12 8 8 9 5 6 8 9 12 3 9 12 17 23 23 20 21 21 27 26 27 29 27 32 33 29 27 25 23 22 18 22 24 22 21 22 26
25 22 23 21 27 25 19 13 16 15 12 6 8 6 6 7 6 6 6 6 7 7 6 5 4 8 12 23 25 24 26 30 33 31 26 30 31 25 28 26 24 27 26 24 21 20 22 24 25
20 22 24 26 28 26 21 10 18 16 13 11 6 4 4 5 6 5 7 2 1 4 4 5 4 4 2 6 6 15 22 17 22 23 25 24 20 20 22 24 24 26 24 19 18 23 26 26 27
15 28 28 29 28 24 17 13 16 19 15 13 9 8 5 5 3 1 3 4 3 3 5 5 5 5 5 7 8 11 15 14 15 15 16 19 20 20 22 22 22 22 20 20 25 27 27 28 29
26 32 31 30 30 22 17 13 7 13 17 19 11 13 9 6 5 2 2 4 5 5 4 3 3 4 5 6 8 10 11 13 12 13 14 16 17 19 22 22 21 20 18 22 26 25 25 29 33
28 29 33 32 29 21 22 18 5 12 18 14 12 10 11 10 11 8 5 4 5 6 6 6 6 6 6 6 6 7 9 10 11 13 14 13 17 21 21 18 17 17 16 17 17 19 27 30 36
30 29 34 32 34 27 28 24 7 11 14 13 13 13 10 8 11 9 9 7 6 6 7 8 8 9 9 9 8 10 12 13 13 15 16 16 17 16 17 18 18 20 19 21 21 24 25 22 27
34 36 28 33 34 31 33 24 15 14 12 14 16 16 12 13 13 14 13 12 10 10 9 9 9 11 12 11 9 10 10 12 15 17 17 16 17 17 19 21 23 24 25 25 24 26 29 30 29
40 35 34 35 35 33 32 27 19 17 15 15 16 20 18 18 16 16 15 16 15 14 11 10 11 12 12 12 12 13 14 14 16 16 19 19 20 21 22 23 25 28 31 31 31 29 32 32 32
41 39 36 33 36 35 34 29 18 24 20 17 17 20 16 18 19 18 15 14 14 13 12 11 12 15 15 15 17 18 19 22 23 25 25 22 25 25 27 32 29 36 41 35 35 35 33 34 34
40 41 40 41 38 36 36 29 19 22 25 21 15 19 18 19 20 21 15 11 14 17 16 15 17 18 18 20 21 22 24 25 27 25 26 30 33 34 39 38 39 37 42 31 28 35 31 32 36

GFSSGP_500_spd_063.txt.gz
Wind_Speed
32 31 29 28 29 32 30 31 26 26 23 19 21 19 18 18 17 15 15 21 29 33 35 41 41 40 37 39 36 21 24 26 30 21 32 30 29 24 19 14 10 8 5 6 9 10 11 10 13
28 27 28 28 29 29 31 29 22 21 18 17 17 20 17 18 21 22 20 19 24 30 29 32 40 38 41 28 33 36 22 24 28 33 24 29 29 20 16 13 9 8 9 8 11 10 11 12 14
25 28 28 30 29 26 30 24 18 19 17 17 17 21 23 24 22 24 25 26 20 26 30 31 31 43 37 36 28 26 32 26 22 32 30 31 26 23 18 15 15 13 7 12 12 10 13 14 15
25 26 27 27 25 28 28 21 18 20 19 18 20 21 22 23 24 24 27 28 26 22 32 26 34 35 37 44 24 28 25 21 19 29 32 36 30 24 21 19 14 10 11 13 13 13 14 18 16
24 24 26 25 25 28 27 20 18 20 18 19 21 20 17 20 21 21 24 25 24 27 23 26 28 34 19 22 23 26 22 19 21 21 36 35 35 25 22 18 16 14 15 17 16 15 14 16 16
23 24 25 24 25 28 22 15 14 15 17 19 16 16 18 20 21 23 24 26 24 25 25 29 31 24 22 28 25 23 20 19 21 23 26 28 36 26 24 22 18 17 15 15 16 18 16 15 15
21 23 24 23 24 27 18 13 13 14 16 21 16 14 17 20 19 19 18 21 22 24 24 26 28 23 23 25 25 24 24 19 21 24 25 32 32 29 26 23 19 19 18 14 16 17 14 14 16
23 22 21 22 24 25 14 9 14 15 18 25 23 20 21 17 19 18 19 19 22 24 26 28 28 29 25 20 23 26 21 22 22 25 25 38 31 29 25 24 21 19 17 16 17 17 13 16 18
23 20 20 22 23 23 12 10 14 16 18 19 20 15 15 17 21 21 20 20 24 25 26 29 32 28 27 25 21 20 19 23 26 33 28 35 37 29 28 24 22 19 19 17 17 18 15 16 17
22 19 20 22 23 20 18 15 10 14 19 19 14 10 17 19 21 21 19 17 17 20 26 28 34 30 28 27 24 24 25 24 19 25 37 30 40 32 30 27 23 21 20 19 20 19 21 16 21
21 17 20 24 23 21 21 17 9 12 17 18 16 17 21 21 24 24 18 13 11 10 5 10 37 34 37 29 22 30 27 31 21 31 36 41 44 31 34 28 22 22 23 21 23 25 22 21 21
19 17 20 23 24 22 21 17 8 14 17 16 21 20 20 21 23 19 13 10 9 7 3 8 17 19 29 40 37 27 33 28 24 30 25 35 36 36 34 26 26 26 27 25 24 25 28 27 24
18 18 21 21 24 22 21 19 8 16 19 17 16 16 17 20 21 14 11 7 8 4 2 0 15 16 24 31 30 23 21 21 27 30 25 33 45 41 29 27 27 27 25 28 29 31 28 27 24
21 21 20 21 24 21 20 17 9 15 18 17 13 16 17 17 17 15 10 6 7 7 4 7 11 19 12 19 18 24 24 24 23 29 28 27 40 38 31 30 31 28 25 19 27 32 33 25 21
23 24 21 23 23 19 17 15 15 15 15 13 13 13 15 17 16 15 8 7 8 10 11 11 9 8 12 13 17 20 23 23 29 32 32 27 32 40 36 37 32 30 29 23 28 30 29 25 22
23 24 23 24 18 17 11 13 15 14 15 15 12 14 13 15 14 15 12 9 12 13 12 11 11 14 14 19 22 22 23 23 27 26 23 25 28 30 32 30 29 27 29 24 26 26 26 24 24
23 23 24 21 18 16 12 12 17 15 16 16 17 14 13 14 14 13 15 13 12 15 17 18 15 21 23 18 21 22 17 18 17 21 27 29 26 29 28 27 27 27 27 25 22 23 23 22 26
25 27 22 22 18 20 14 12 16 14 14 18 16 13 13 13 14 14 16 19 16 14 18 15 18 12 20 15 16 21 23 21 24 18 21 24 22 24 23 24 28 29 28 24 25 23 22 24 26
29 27 21 23 23 20 17 11 13 12 17 21 18 14 14 13 13 13 14 17 18 5 13 14 15 17 15 19 18 19 19 18 21 21 18 21 23 24 25 26 25 27 27 29 25 21 18 22 24
31 26 20 23 25 20 19 12 13 12 14 21 19 15 13 12 12 12 11 12 14 6 9 15 19 20 16 24 22 22 23 23 20 19 20 25 24 28 30 31 30 28 27 25 21 19 18 16 20
28 21 23 22 24 23 19 12 14 15 13 19 19 12 10 9 10 9 9 10 8 9 8 3 6 11 18 23 24 23 25 21 23 23 25 27 24 29 32 32 31 27 22 20 18 18 20 22 19
26 22 26 23 24 25 21 10 11 17 17 17 17 12 9 8 8 6 4 5 4 3 3 4 4 3 4 18 24 22 23 28 29 29 28 31 28 30 33 37 27 22 24 21 20 24 25 24 21
28 26 29 28 26 23 19 15 5 16 16 18 17 16 9 6 7 4 5 2 4 4 3 2 1 1 2 6 7 20 22 20 16 19 29 32 32 28 30 23 22 24 25 28 27 26 24 24 25
33 32 32 31 26 24 15 16 4 10 18 22 17 11 14 10 7 6 4 5 4 5 5 4 2 1 1 2 3 6 9 10 10 10 7 8 12 13 15 18 21 25 26 31 31 28 27 29 29
37 35 35 33 27 21 18 16 7 8 18 21 19 18 12 15 12 10 7 6 5 6 7 6 5 5 3 2 3 4 5 6 8 10 12 12 14 15 17 20 25 27 29 30 30 29 31 31 26
33 35 35 31 31 24 27 12 7 11 12 21 15 15 12 12 10 11 9 9 8 8 8 8 8 6 6 6 5 6 7 8 9 10 12 13 13 16 19 20 23 26 26 28 28 27 26 26 23
37 41 31 34 34 29 30 19 12 15 13 20 17 17 14 13 13 14 13 12 11 13 13 11 9 9 9 8 8 8 8 9 11 12 14 15 17 19 18 20 26 27 27 27 29 27 30 30 28
44 39 37 41 36 31 31 24 10 15 18 16 19 19 19 18 17 18 16 16 17 17 17 15 14 13 11 11 12 12 12 12 12 12 15 19 21 22 23 25 27 29 30 31 31 32 32 33 33
41 43 42 40 37 35 32 26 11 15 21 18 21 19 21 23 23 20 21 18 20 16 16 14 14 14 14 15 15 15 15 14 15 15 18 20 23 25 25 27 29 29 32 35 36 35 34 37 36
44 43 40 41 42 39 33 30 17 14 19 21 23 24 22 22 24 22 21 20 18 14 13 15 17 18 18 18 19 17 19 20 19 21 23 23 30 30 30 31 34 31 35 38 40 40 38 43 42

GFSSGP_500_spd_066.txt.gz
Wind_Speed
31 32 32 32 30 28 28 27 26 27 22 20 19 17 17 18 20 20 22 25 24 21 28 33 36 42 42 42 35 29 32 27 32 31 28 35 33 30 37 25 24 16 13 11 9 7 9 9 8
30 30 31 32 27 26 28 26 26 23 19 20 19 21 21 20 23 26 26 25 23 24 23 28 32 36 43 43 41 36 32 22 23 29 24 28 33 31 28 30 22 19 13 11 9 10 12 9 9
29 27 29 30 23 22 25 27 25 19 20 19 19 20 22 24 25 24 26 27 24 23 25 26 30 31 35 45 41 38 24 29 21 18 27 26 35 28 29 28 22 17 17 18 16 12 10 9 10
27 26 28 26 25 23 23 27 19 18 19 18 19 20 22 25 26 24 24 26 25 27 27 28 31 34 29 38 38 36 19 29 27 17 29 30 25 27 28 28 24 24 23 19 12 12 12 10 12
25 25 26 25 24 22 22 23 17 17 19 19 20 20 21 21 22 21 23 25 22 25 27 29 27 35 36 30 29 39 39 25 19 23 26 30 26 35 31 28 27 26 22 17 16 17 13 11 12
25 25 23 24 24 21 22 21 16 16 20 20 19 19 22 23 24 22 22 26 23 24 29 30 29 24 11 20 26 25 20 17 21 23 27 28 34 37 32 31 27 26 22 20 17 17 16 13 12
23 26 23 22 23 22 22 20 17 19 21 20 21 21 27 30 30 25 22 26 23 23 29 31 26 24 20 18 26 31 30 23 25 23 24 34 43 44 35 32 29 27 23 18 17 17 13 12 12
25 26 23 22 22 22 22 24 20 22 21 22 23 24 30 31 25 22 25 25 23 24 28 24 24 24 24 18 22 25 26 28 27 27 27 32 33 47 40 33 30 27 23 19 16 14 14 15 14
24 23 22 22 22 23 22 24 23 21 20 21 18 24 28 26 24 27 27 26 25 26 28 28 23 26 27 26 26 29 29 30 27 24 26 29 31 40 39 32 32 27 23 19 16 16 17 17 14
23 22 20 22 23 22 22 23 21 20 19 17 16 22 20 27 29 30 27 26 25 24 24 25 27 28 28 34 30 30 30 28 34 25 17 26 32 41 38 34 32 28 23 21 18 18 17 17 19
22 19 22 23 24 21 21 23 22 19 17 13 15 20 24 27 27 31 23 23 20 17 11 9 13 27 31 24 31 29 30 41 31 22 20 33 28 42 35 35 33 28 25 23 21 21 21 22 20
22 18 20 25 24 23 22 22 21 18 19 13 16 21 23 24 27 25 19 18 16 12 8 13 13 15 32 46 39 37 30 37 33 35 28 40 34 44 41 34 34 31 30 26 25 23 22 24 23
20 17 21 26 25 24 23 23 19 18 17 14 16 20 24 21 23 22 16 15 11 12 4 4 10 17 23 29 39 38 36 37 33 30 30 26 28 46 44 39 38 35 29 27 26 25 23 26 25
22 20 21 25 25 26 23 22 20 18 14 14 15 16 20 21 21 19 16 12 8 12 5 3 5 13 21 21 40 40 43 31 30 29 29 32 26 35 45 40 39 34 29 28 27 24 28 32 30
21 21 23 22 25 25 20 17 19 15 17 15 15 16 18 22 18 17 15 13 10 9 8 3 2 10 14 20 28 31 27 28 26 29 31 34 30 37 44 47 41 33 32 31 25 24 29 28 28
23 21 21 21 25 19 15 16 21 16 16 15 16 17 20 21 18 17 14 12 12 11 9 8 6 10 9 19 23 27 25 31 30 28 32 37 28 35 46 46 41 38 35 30 29 27 26 27 26
22 18 21 26 22 17 13 15 21 17 15 17 14 17 18 17 17 18 15 13 12 11 12 14 14 9 14 21 18 24 24 25 29 32 31 26 28 25 41 44 43 36 33 31 34 28 25 25 24
19 20 27 23 22 16 15 14 21 16 16 20 18 17 18 17 16 17 15 14 13 10 12 15 15 15 16 21 20 21 23 22 28 32 31 27 25 25 37 33 32 31 27 27 30 32 29 27 26
25 24 26 24 26 20 19 14 16 16 18 21 18 16 19 19 15 14 14 14 16 8 9 15 13 16 12 20 19 21 18 22 22 22 25 28 27 25 21 24 26 26 25 28 29 30 29 25 24
28 26 24 24 24 19 20 11 16 17 17 21 18 16 19 17 12 11 12 11 11 10 4 13 15 13 15 17 20 22 21 26 14 25 19 24 25 23 20 24 24 25 27 29 28 29 30 25 20
26 27 23 24 24 21 19 15 14 18 18 22 18 15 17 15 9 8 9 9 7 8 5 7 13 17 21 19 24 21 22 23 25 20 21 22 23 27 23 27 29 30 31 32 28 27 26 21 18
27 27 26 27 28 22 17 14 10 16 20 20 19 15 14 12 10 7 7 7 5 4 3 2 7 10 14 19 24 26 24 26 27 26 23 23 26 30 24 26 30 32 34 32 29 25 22 18 20
24 32 30 32 29 24 20 17 10 18 16 18 22 14 13 10 11 8 6 5 6 4 4 2 2 4 4 2 20 28 28 25 26 24 27 29 28 26 27 28 32 36 36 27 21 21 24 24 22
35 33 32 35 30 24 19 17 10 16 14 19 22 14 10 10 14 13 8 4 4 5 5 4 2 4 2 2 5 8 19 24 27 26 27 29 34 34 32 31 30 32 25 24 25 22 25 22 26
39 34 33 36 33 23 22 15 13 13 12 17 21 18 14 12 13 11 11 8 5 4 4 4 5 4 4 2 3 6 6 9 13 13 8 7 13 21 21 22 22 24 25 24 26 25 30 30 30
33 32 34 34 30 28 28 15 13 19 19 15 18 20 17 15 12 10 9 9 8 7 6 5 5 6 5 5 5 5 8 10 10 10 10 12 12 13 15 17 21 21 21 22 24 25 29 30 32
37 43 33 36 38 34 32 21 18 18 19 15 18 20 19 15 15 13 11 10 9 11 12 10 9 8 8 8 8 8 10 9 11 10 12 12 13 13 14 15 16 18 20 21 23 27 29 33 31
43 42 40 40 40 37 31 23 17 15 20 18 20 24 22 19 19 17 14 14 12 14 15 15 13 13 12 12 13 13 12 11 11 12 13 14 16 18 17 18 19 21 22 24 27 29 31 35 36
47 46 45 43 41 34 28 28 16 17 20 19 20 25 25 21 22 21 19 17 18 15 14 15 13 13 12 12 13 13 14 13 14 13 15 15 15 19 20 23 24 24 26 29 32 34 37 40 42
41 42 43 44 43 39 36 30 24 16 18 23 23 25 26 24 23 25 25 21 19 19 16 13 11 13 15 16 15 15 15 13 14 19 20 21 22 19 22 27 30 31 29 31 34 37 40 44 44

GFSSGP_500_spd_069.txt.gz
Wind_Speed
31 30 29 28 27 28 19 20 22 29 30 28 22 20 20 19 23 25 20 21 22 20 18 19 25 27 34 38 42 42 34 32 31 35 30 28 33 31 29 26 22 20 20 18 18 15 14 12 10
30 29 28 26 23 14 14 30 31 30 31 25 21 19 20 22 24 26 23 23 25 25 21 18 18 24 28 40 42 42 34 34 32 32 34 33 35 31 31 32 29 24 23 25 19 16 13 12 13
28 28 27 24 24 16 13 31 32 32 31 25 21 22 24 25 24 27 26 27 26 27 26 24 20 22 28 31 41 44 38 39 29 31 34 35 36 39 38 38 31 27 28 20 16 17 15 15 12
26 27 26 23 19 17 21 28 30 29 32 24 23 22 28 24 25 25 23 27 29 26 28 25 26 25 26 34 34 41 47 43 33 25 24 32 33 33 35 35 29 28 27 21 24 19 15 15 12
26 25 24 25 21 20 25 26 27 29 28 28 24 23 24 24 26 25 24 28 29 27 29 26 30 31 34 44 34 37 42 39 30 29 22 28 36 32 38 35 30 27 27 23 24 19 19 15 12
28 24 23 20 16 24 26 26 27 30 29 27 27 26 26 26 27 28 32 37 31 28 27 28 34 28 28 28 39 44 37 37 31 15 17 25 30 35 35 34 30 30 27 26 25 20 19 16 14
26 26 22 21 17 22 31 26 28 28 28 23 30 25 27 26 27 30 34 32 32 32 28 26 28 27 29 30 26 33 36 40 40 29 25 23 24 24 29 34 34 32 28 28 25 22 22 19 17
26 26 25 20 20 23 32 25 28 28 28 27 30 26 25 26 26 29 27 32 33 33 28 25 26 28 27 23 22 26 37 28 27 26 29 24 31 27 40 37 37 34 31 28 24 24 21 21 17
27 26 24 17 21 22 30 27 29 28 27 27 27 26 23 23 25 28 30 34 35 31 27 29 26 22 26 22 19 21 23 26 31 31 28 31 33 39 39 38 39 37 31 28 26 24 23 20 15
27 26 21 18 24 25 27 28 29 28 27 25 27 23 20 22 27 30 33 35 31 26 23 26 24 25 29 26 22 22 21 31 31 28 34 32 28 37 36 49 45 38 33 29 29 27 24 17 19
27 25 24 22 23 25 25 28 29 27 25 24 24 20 19 22 23 26 32 31 26 19 23 18 8 18 27 28 30 30 28 29 29 34 29 27 25 26 29 42 49 39 36 31 29 28 24 20 20
31 26 26 23 25 24 25 28 28 28 26 24 20 21 22 21 24 25 29 26 21 16 19 13 8 14 17 29 32 31 33 34 41 29 35 26 26 30 28 38 42 39 34 31 32 31 25 21 23
31 27 26 25 26 24 25 25 29 26 27 20 16 18 19 21 21 25 28 22 15 11 16 11 12 14 14 32 33 39 39 34 26 35 33 25 24 27 27 41 40 37 35 34 34 30 26 21 25
31 30 26 27 24 25 23 23 28 24 25 18 16 15 16 19 22 24 25 19 14 12 14 13 11 12 19 33 46 38 47 46 40 35 28 28 32 31 25 42 42 41 38 36 34 30 26 25 26
33 30 26 27 24 24 22 20 24 24 22 20 14 15 17 19 21 23 22 19 14 14 11 14 13 7 16 22 23 35 47 40 40 49 34 40 42 34 32 44 49 45 39 36 35 31 31 27 25
33 29 26 22 25 23 20 14 23 22 21 19 17 15 18 18 19 20 18 18 13 13 12 14 9 8 7 15 22 29 35 32 34 29 29 34 36 28 30 35 49 50 40 38 37 34 29 26 25
32 27 22 22 28 23 18 16 21 21 21 18 20 17 17 19 16 18 16 16 16 14 12 15 9 5 3 8 14 22 34 32 35 36 32 30 29 30 29 26 50 49 40 41 38 35 32 30 25
30 25 21 24 20 18 20 14 22 25 18 18 20 18 19 16 15 16 15 12 14 16 14 16 10 10 5 10 12 22 28 26 31 34 30 28 28 37 33 34 38 50 44 43 38 38 33 33 33
31 22 22 23 19 22 18 17 19 18 24 20 21 20 18 14 15 16 14 11 11 13 11 10 12 12 11 17 12 17 19 23 31 32 30 30 27 29 26 27 27 33 53 43 36 35 31 33 33
31 29 29 25 26 21 20 20 18 19 19 24 23 21 17 11 10 13 13 10 9 9 6 5 11 9 12 13 16 18 20 16 18 25 30 29 29 27 22 16 15 26 31 31 31 29 28 28 27
33 29 26 26 22 20 19 22 18 20 21 24 23 23 16 11 9 11 11 8 6 8 7 2 6 10 13 14 13 14 15 15 17 17 16 18 21 21 26 18 20 23 24 25 26 27 26 18 19
34 27 29 29 29 24 20 20 13 15 17 26 24 22 15 8 5 10 11 8 5 4 5 5 3 3 11 16 18 17 21 22 22 24 20 21 17 19 23 24 23 26 26 27 28 28 26 18 19
28 31 35 31 31 28 21 21 12 14 18 21 20 22 15 9 4 5 9 11 6 2 2 3 2 2 3 4 12 21 25 25 23 22 23 23 20 21 25 25 29 24 27 28 29 24 19 21 21
33 38 36 32 31 34 19 18 13 10 18 23 17 18 13 10 8 7 7 7 7 5 2 2 3 1 2 5 8 14 25 27 25 25 22 25 27 26 27 26 25 28 28 27 26 23 21 23 24
41 41 35 33 35 31 19 18 14 12 22 20 17 15 14 11 8 11 9 6 6 3 2 0 2 4 4 3 3 3 7 20 23 26 26 20 18 24 33 31 31 28 33 28 29 26 25 26 25
44 42 33 32 29 23 19 21 17 18 26 22 15 17 16 17 16 14 12 7 6 5 2 2 2 2 4 6 6 5 5 5 8 10 13 13 10 8 11 20 24 23 25 24 25 25 25 29 26
43 45 36 26 21 22 22 22 23 17 21 22 21 18 17 16 17 15 12 10 8 6 6 7 7 5 4 6 7 7 8 9 11 12 13 14 13 13 12 12 13 17 19 21 22 22 25 27 25
49 40 39 39 33 32 20 11 18 21 22 23 20 24 20 18 17 18 16 14 12 11 8 10 11 11 11 9 8 9 11 10 11 13 14 15 14 14 14 14 16 19 19 20 21 21 24 25 26
49 47 45 39 39 26 24 19 23 27 23 22 27 24 20 22 21 21 21 19 16 14 14 13 13 11 9 10 8 8 10 11 13 16 17 16 16 16 17 19 21 22 23 24 26 25 26 29 31
45 45 43 42 29 35 27 24 27 24 20 24 27 23 23 25 26 24 23 23 22 22 19 19 17 15 14 13 13 11 10 11 14 17 20 20 19 21 24 22 25 24 25 28 28 28 30 33 35

GFSSGP_500_spd_075.txt.gz
Wind_Speed
30 29 29 28 24 19 19 23 31 25 28 31 29 32 37 34 32 33 32 30 29 27 26 24 24 28 26 25 25 30 36 39 36 42 38 37 34 32 34 31 29 30 32 24 23 23 24 23 20
33 33 31 31 23 20 20 27 22 26 31 34 33 38 33 36 30 29 28 27 32 27 24 26 25 26 26 26 27 27 31 34 41 40 38 36 35 32 30 28 29 30 34 26 26 26 25 22 20
35 35 33 32 25 19 18 26 23 31 29 32 35 33 33 32 30 27 29 28 29 27 21 23 25 23 23 26 25 25 29 35 39 43 40 38 35 32 33 28 29 32 34 28 26 25 23 22 19
36 36 36 35 26 17 16 21 30 29 24 31 35 30 31 31 30 27 28 25 25 27 24 26 30 25 22 26 27 28 28 36 42 43 39 37 37 32 33 32 32 33 30 29 25 24 21 21 19
40 38 37 35 27 19 19 10 31 31 29 33 37 36 30 29 27 28 26 24 27 26 25 27 24 24 27 26 28 31 32 36 37 35 39 37 36 35 33 34 35 35 33 29 27 22 23 24 20
44 38 40 34 29 22 28 22 25 35 38 29 33 34 33 30 25 25 22 23 25 27 24 23 26 27 29 28 31 34 43 45 30 26 36 39 33 37 35 34 39 39 33 30 29 25 26 24 20
39 40 42 39 29 25 26 22 27 36 38 29 33 32 32 31 29 27 22 23 22 26 26 26 27 31 29 27 30 35 42 38 43 44 33 38 40 33 38 38 39 40 37 36 33 31 28 23 20
40 43 46 41 26 22 17 25 29 36 40 38 31 31 34 30 32 22 20 19 21 22 26 28 30 30 25 27 30 34 34 39 43 25 27 31 35 34 35 40 40 38 42 38 37 29 29 23 23
41 47 49 35 28 19 23 20 26 37 42 32 30 33 33 25 24 24 19 19 22 23 27 33 31 27 24 28 28 31 29 26 25 37 39 34 33 32 31 35 35 37 36 39 33 32 31 24 25
46 47 44 31 30 24 29 25 29 40 39 32 31 33 32 27 22 25 20 20 19 21 25 29 30 27 24 29 23 28 26 27 24 32 33 32 34 22 22 24 22 24 32 41 36 34 31 25 26
45 46 38 36 31 29 35 36 33 42 44 35 33 33 34 33 28 24 21 23 21 24 25 28 27 19 19 15 20 24 28 28 26 39 43 40 34 25 27 24 25 23 26 44 34 32 31 27 25
47 46 43 39 35 31 36 38 33 39 40 35 32 34 34 33 27 23 18 18 21 23 25 27 23 19 15 11 19 24 26 24 23 33 45 36 24 29 29 28 26 25 33 37 34 35 33 28 27
48 46 45 43 39 33 37 38 31 34 30 33 31 33 31 30 25 23 18 19 20 19 23 26 21 19 14 12 13 21 22 25 42 35 36 26 29 27 27 22 24 31 26 35 36 35 35 29 33
44 47 47 45 42 36 35 35 34 28 29 30 31 33 24 24 23 21 16 20 21 18 22 25 21 18 13 14 14 21 26 32 22 37 38 25 23 24 24 24 21 22 29 27 36 39 39 31 36
45 50 47 46 44 38 35 35 32 25 30 30 29 30 24 18 21 22 19 17 17 16 22 23 22 14 16 11 14 17 24 24 26 32 39 31 25 27 25 20 25 24 20 27 33 40 41 33 39
46 48 49 40 41 39 32 33 27 23 29 30 27 22 24 20 18 21 19 20 14 15 21 20 23 14 12 14 11 21 26 28 28 25 33 35 28 27 28 21 23 26 20 25 32 39 41 36 39
45 46 46 41 40 28 30 29 22 24 30 26 22 18 22 17 19 19 16 18 16 14 19 18 20 10 9 8 10 14 30 36 31 31 26 35 25 29 33 24 20 26 29 19 31 40 43 36 39
40 42 44 41 27 28 25 27 26 23 29 23 19 17 24 12 13 14 12 15 14 12 15 16 15 6 9 6 5 9 20 25 32 33 34 34 35 29 32 34 35 31 24 19 22 39 40 39 38
39 43 51 36 29 28 23 22 23 17 27 24 23 14 19 16 10 11 11 12 11 10 12 14 12 6 9 6 3 4 15 27 30 32 37 30 31 23 24 25 20 16 17 23 22 28 39 38 44
37 42 43 35 31 27 23 23 22 26 22 24 25 18 18 13 6 12 10 8 7 8 11 12 8 6 6 5 6 5 5 12 23 26 30 27 29 28 24 19 16 17 18 24 26 25 28 29 35
35 33 37 34 35 36 23 24 29 25 20 20 23 19 20 16 4 11 10 6 5 6 9 10 9 4 5 5 6 4 3 9 10 22 18 21 23 20 21 21 21 21 21 24 23 25 27 28 29
41 35 43 37 42 43 29 28 29 26 25 18 17 18 18 19 3 10 10 6 2 3 7 8 9 7 3 3 5 3 3 7 6 8 11 14 14 19 23 22 23 21 18 21 22 22 23 22 23
39 40 48 45 48 43 34 34 26 27 25 20 13 16 17 15 6 11 11 8 3 2 4 7 6 5 4 2 3 4 7 8 9 9 9 11 10 10 13 15 15 19 18 16 17 17 15 16 20
37 35 48 47 44 51 37 40 29 22 16 20 16 18 20 9 10 15 13 8 6 5 4 5 5 3 1 1 1 2 3 8 12 13 14 14 13 15 16 12 12 15 19 18 19 20 20 21 24
36 36 51 49 47 51 38 43 26 20 20 17 18 17 19 12 10 18 14 12 10 7 6 5 5 4 3 2 2 1 1 1 14 16 17 16 15 14 18 19 18 21 22 23 23 22 22 24 25
35 37 38 47 41 46 31 43 14 17 21 15 19 24 21 18 15 19 15 12 13 10 8 6 5 4 4 3 2 3 3 4 5 15 17 17 17 16 15 17 21 24 26 29 26 24 28 27 31
34 38 33 47 45 44 38 31 23 22 22 23 20 19 20 24 16 21 18 13 15 11 11 9 7 7 7 6 5 3 1 2 2 5 5 5 6 9 11 12 13 12 15 23 27 28 28 29 29
32 33 34 41 38 41 35 32 26 21 22 21 20 22 21 18 15 22 19 17 16 14 12 12 10 8 9 10 9 8 6 4 4 5 7 8 8 10 11 13 15 14 11 12 15 18 21 21 22
31 31 35 47 43 37 27 28 26 27 27 30 29 29 17 18 16 17 19 18 18 16 16 15 15 12 10 7 8 7 9 9 9 7 8 9 11 12 13 13 15 15 15 15 16 18 20 21 24
26 29 29 45 43 37 26 29 32 33 34 29 33 26 16 18 16 17 20 22 20 20 20 18 16 15 17 14 12 10 9 9 9 8 9 9 10 12 13 13 16 17 16 19 19 21 22 22 23

GFSSGP_500_spd_081.txt.gz
Wind_Speed
28 28 27 27 25 22 21 29 31 30 31 29 27 28 27 22 23 28 29 30 31 31 30 29 30 32 32 29 27 26 26 26 26 26 28 31 31 35 35 32 29 28 27 26 23 21 21 21 19
30 29 29 30 28 22 24 32 31 31 34 31 28 29 29 25 25 25 26 26 29 31 30 31 31 32 30 28 26 26 26 28 29 30 28 27 34 32 28 28 27 28 25 24 24 20 23 21 18
33 34 34 34 33 22 25 34 33 33 36 37 33 31 32 30 28 27 26 26 28 31 32 31 30 29 28 27 26 27 29 29 30 31 30 31 30 33 34 36 35 31 30 29 24 22 22 22 20
37 39 37 37 35 22 25 33 33 32 36 37 36 33 35 32 30 28 26 24 28 29 29 27 29 30 28 27 29 31 32 32 29 30 33 35 28 30 33 30 28 28 30 29 29 26 26 26 23
39 38 34 31 31 21 27 27 30 34 37 36 36 36 36 36 32 26 27 28 29 32 32 26 27 27 27 29 31 34 32 33 33 32 37 30 34 32 33 39 37 32 30 28 29 28 28 27 23
34 34 35 35 34 26 27 25 30 37 36 38 41 41 38 37 33 31 26 27 29 29 29 27 25 25 26 28 32 32 33 33 34 32 35 37 43 46 40 37 34 33 30 28 29 30 29 27 26
37 37 36 37 38 32 21 26 33 36 39 41 41 46 40 34 33 30 31 26 28 28 29 24 22 23 24 27 30 33 36 36 37 37 41 30 32 36 40 46 36 36 32 29 28 29 27 23 25
37 38 38 36 34 26 21 27 35 39 43 44 45 45 38 35 31 25 29 27 31 29 30 24 21 24 24 28 29 31 34 36 34 36 38 37 43 39 30 35 27 31 28 32 30 29 25 27 27
37 36 34 32 29 25 22 31 39 42 45 46 50 48 44 39 29 21 26 26 32 31 32 25 24 25 26 29 30 29 31 32 33 33 32 30 37 39 36 34 32 32 31 30 30 28 30 29 27
38 36 35 34 35 36 28 35 39 44 47 49 49 52 50 41 32 21 23 25 27 30 32 27 30 26 28 30 32 27 27 30 31 32 32 29 32 36 30 34 34 33 30 26 28 30 34 31 31
36 36 34 34 37 41 37 36 39 46 49 51 52 53 51 46 31 22 24 21 27 30 30 27 28 27 28 29 31 28 30 28 30 30 30 30 28 43 29 35 33 25 31 30 33 32 36 35 34
33 33 35 36 40 41 41 35 44 48 51 53 54 54 48 46 31 26 25 24 28 31 30 28 27 27 29 29 28 26 26 22 31 32 31 31 30 42 42 39 33 29 34 35 31 34 40 38 36
39 37 41 41 43 41 38 37 39 48 51 54 55 50 45 48 30 28 26 27 31 31 29 28 27 27 28 29 27 27 24 21 27 29 29 28 26 32 39 36 32 29 26 23 27 30 29 30 28
40 43 41 42 42 40 38 37 43 42 52 54 54 49 47 46 30 28 26 30 31 32 29 28 24 23 28 28 27 26 23 23 22 25 26 32 26 40 39 37 25 26 29 18 18 25 23 24 32
41 39 40 40 38 41 39 43 47 35 39 51 55 52 51 39 34 28 28 32 32 32 27 24 23 24 28 28 27 28 23 23 21 22 26 30 31 43 38 34 27 26 28 23 24 23 22 24 36
39 41 41 38 40 39 39 46 42 33 38 43 54 58 52 38 38 31 29 31 31 28 26 23 23 26 28 28 26 24 23 18 24 23 23 31 35 44 38 35 27 29 25 23 23 23 18 25 29
40 40 41 43 42 42 46 47 41 35 39 43 46 51 48 39 41 24 27 28 26 25 20 21 23 24 27 28 21 15 16 19 23 22 22 27 47 50 33 27 27 27 22 16 17 19 23 22 25
38 42 42 42 43 46 53 48 35 36 39 39 39 44 46 41 33 24 21 28 19 23 16 21 20 21 23 16 15 13 12 19 19 20 21 27 47 46 29 24 25 26 24 22 23 23 18 18 26
41 42 40 41 44 50 50 46 37 41 37 37 35 39 37 35 33 24 21 23 16 18 19 18 15 16 15 10 13 15 15 18 24 20 19 38 47 36 32 31 30 25 23 20 19 19 26 24 24
41 40 39 41 43 49 48 45 38 40 34 39 35 38 37 36 31 19 22 18 15 17 19 14 13 11 12 12 14 19 17 16 28 24 19 40 41 36 28 27 29 26 29 27 24 27 29 24 23
39 38 39 40 44 47 48 46 35 35 35 37 32 34 39 31 26 18 23 15 17 16 17 13 12 8 9 11 12 11 9 14 24 28 22 28 42 35 32 27 25 25 27 29 31 25 24 23 20
36 34 37 39 44 44 46 48 38 38 36 37 30 34 35 34 22 18 21 18 17 15 15 12 11 6 6 7 8 7 6 9 24 33 30 26 27 32 34 32 27 26 27 26 28 26 23 24 21
29 33 35 39 41 42 40 45 28 33 35 37 34 33 38 34 18 19 19 18 17 15 12 12 10 6 3 4 7 9 7 9 14 28 33 30 31 30 32 32 30 31 29 25 24 24 24 25 26
31 34 33 34 40 40 30 38 28 32 32 28 33 36 32 23 19 23 22 21 17 16 12 10 10 8 5 4 5 5 7 9 10 19 25 34 31 30 22 27 30 31 28 25 26 24 25 26 24
29 30 32 34 42 33 27 34 25 25 29 28 35 34 24 24 24 27 22 20 18 16 12 10 9 6 6 6 6 6 7 6 13 18 23 27 30 31 29 28 27 29 26 25 26 26 25 26 22
29 31 32 37 40 33 28 35 24 22 30 27 26 26 31 27 20 27 22 17 18 15 13 12 8 5 3 4 5 6 7 7 8 18 20 21 22 20 20 20 23 26 24 24 25 24 27 26 25
31 30 33 39 38 32 27 31 23 24 36 36 32 32 25 21 24 19 17 15 18 16 15 15 11 8 6 5 5 5 4 4 5 13 21 21 20 19 18 17 22 23 20 21 21 25 26 29 29
29 30 33 35 32 32 26 19 15 25 40 36 33 29 23 21 23 21 18 14 15 17 15 16 14 12 9 7 9 8 6 4 2 3 16 18 19 18 20 22 22 23 26 22 20 18 20 29 34
30 30 32 28 32 31 18 20 15 24 35 33 29 30 22 24 23 18 15 18 18 22 17 16 15 14 12 10 9 8 8 7 5 6 8 11 12 12 12 14 18 20 20 21 21 18 17 15 20
29 27 27 25 24 29 27 23 16 22 25 33 36 30 26 26 20 16 18 23 25 24 22 20 18 17 15 14 13 11 10 9 7 8 10 10 11 12 13 14 15 16 19 18 17 20 20 19 20

GFSSGP_500_spd_084.txt.gz
Wind_Speed
36 32 30 28 27 23 18 25 28 29 27 28 30 27 26 27 28 28 28 26 28 30 30 29 28 29 31 31 30 28 28 27 26 25 24 23 21 19 20 26 26 23 25 25 24 22 21 19 15
35 33 32 30 30 24 20 27 30 30 29 31 31 28 28 29 29 30 29 27 30 31 31 30 29 30 32 30 27 26 27 27 23 24 26 25 24 18 19 22 25 28 29 26 24 22 18 15 15
36 35 33 34 33 23 24 30 31 32 32 32 33 29 27 27 29 30 29 27 28 31 31 28 29 31 32 29 26 25 27 23 23 27 28 27 26 25 20 23 23 26 25 24 22 18 17 15 16
36 37 36 36 34 24 23 31 33 32 33 35 34 32 29 29 32 33 31 25 26 29 31 30 30 29 32 28 27 26 24 25 28 30 29 27 30 26 24 22 24 28 27 27 26 21 18 16 19
37 37 37 36 33 22 25 29 31 32 34 36 35 34 34 33 34 36 35 27 28 29 29 31 28 28 29 29 29 29 27 28 30 29 28 27 27 28 24 27 24 28 31 27 28 25 22 21 22
38 36 35 32 29 26 29 29 29 32 37 37 35 35 37 37 37 41 33 28 28 31 30 27 27 27 28 28 29 28 28 29 30 30 31 30 29 29 25 33 26 28 28 27 25 25 25 23 26
37 35 31 32 32 32 22 28 29 32 35 35 36 37 40 41 43 45 32 28 26 29 31 26 27 27 26 25 26 28 28 31 34 34 34 32 31 27 34 33 29 30 33 31 28 26 27 27 28
36 36 34 34 33 21 22 25 29 32 33 35 39 42 41 43 46 47 36 31 33 31 34 26 25 27 27 28 28 30 29 31 32 31 32 33 32 28 27 27 32 39 42 28 29 28 28 33 29
37 38 36 33 24 22 25 29 31 32 34 38 43 42 42 44 47 46 39 31 31 32 34 31 26 26 27 29 30 32 32 30 29 29 31 34 34 40 41 34 24 24 37 27 30 28 27 27 27
39 38 35 28 29 31 30 31 33 34 37 43 43 42 44 48 48 46 36 33 32 31 32 30 27 27 28 30 32 30 31 30 27 29 29 29 29 28 30 38 31 29 29 30 26 29 27 27 24
37 35 31 32 32 35 33 30 29 36 41 43 45 45 48 51 51 43 38 34 33 31 30 31 27 27 28 30 33 31 30 29 29 28 29 30 30 28 33 31 34 34 34 27 27 31 32 32 28
38 34 32 31 32 34 33 35 34 34 38 42 44 46 49 54 54 43 40 38 34 31 28 30 27 27 27 31 32 32 30 29 29 26 19 29 30 29 29 30 33 40 35 27 23 28 33 33 33
31 28 29 33 36 37 38 37 36 42 36 38 45 46 51 55 53 42 42 37 33 30 28 27 28 26 27 31 33 31 29 30 27 24 26 30 30 30 30 29 33 35 35 22 29 29 35 37 33
36 40 40 39 37 37 40 40 46 34 27 35 41 47 53 55 51 41 39 36 33 32 29 27 29 27 28 32 32 30 30 30 28 28 27 29 32 32 34 40 35 34 37 25 31 36 33 42 35
40 42 42 36 35 40 43 41 39 34 32 38 44 47 54 56 52 42 37 39 35 32 31 31 31 27 30 32 31 31 31 30 30 29 25 26 27 29 29 40 45 38 33 26 24 27 25 24 26
40 41 40 37 37 37 40 34 36 36 39 41 44 47 51 56 47 46 38 39 37 33 31 34 29 27 29 30 30 32 33 30 27 29 27 26 26 30 32 37 44 45 30 32 26 24 21 21 22
42 42 40 39 38 39 40 41 42 40 40 45 47 46 45 48 46 43 36 38 38 34 31 32 25 24 24 27 29 29 28 20 25 25 26 25 24 29 37 44 44 37 31 31 24 25 22 23 22
39 42 43 42 38 39 43 43 43 44 44 48 45 42 46 47 45 40 35 36 40 34 29 25 22 19 22 25 22 20 15 18 14 21 28 23 22 28 43 47 43 32 26 27 27 24 25 29 27
45 43 42 40 40 43 44 45 43 44 45 51 39 41 42 43 36 34 32 38 39 33 24 20 19 17 20 21 18 17 19 18 19 19 25 25 23 31 47 46 36 29 32 28 26 25 23 22 22
44 43 41 40 40 45 45 46 43 42 45 49 35 39 37 36 31 28 32 37 36 30 22 19 15 17 17 19 16 18 19 22 20 18 22 21 26 38 48 41 33 30 28 26 25 26 21 23 26
42 41 41 41 40 43 45 42 37 42 48 37 39 31 38 36 26 24 30 38 29 25 20 19 14 15 14 17 15 15 14 15 17 20 21 14 34 46 50 39 30 30 23 23 24 24 21 21 28
40 39 40 40 41 42 42 44 35 42 46 35 31 31 32 31 27 29 37 27 28 23 19 17 14 12 12 13 12 11 10 11 10 20 21 14 37 46 45 37 31 30 27 22 23 27 27 27 26
38 38 38 39 40 40 40 44 36 41 34 35 33 31 32 29 30 29 33 26 27 23 20 15 12 11 11 10 10 8 8 11 10 17 26 22 32 40 36 28 28 29 26 26 26 25 28 29 26
36 35 36 37 37 37 35 42 37 32 19 28 32 33 34 31 32 36 31 31 26 23 20 13 11 9 10 9 8 7 7 11 10 8 28 27 23 27 20 25 31 29 27 26 26 28 29 27 27
34 35 36 35 35 34 34 41 31 24 17 24 34 38 33 34 35 34 33 31 26 23 21 14 12 9 9 9 8 6 7 7 7 11 11 25 26 29 30 24 25 27 31 29 30 31 30 29 29
34 35 33 32 33 31 33 34 31 17 21 29 32 40 39 37 32 28 24 29 25 23 21 15 14 9 6 6 6 4 5 6 6 8 11 26 27 26 25 22 27 30 32 33 28 27 26 26 27
34 33 32 31 30 31 33 28 26 16 24 30 34 30 32 29 27 27 24 29 24 23 22 18 15 11 7 6 6 4 3 4 5 5 14 16 19 23 25 27 27 24 23 24 23 22 21 24 25
33 30 29 29 31 31 32 25 21 21 26 31 35 25 31 30 27 23 22 28 26 26 24 18 17 14 12 9 7 7 6 5 4 2 14 19 17 17 15 15 17 18 20 21 20 19 22 24 25
30 27 26 27 30 30 31 22 17 19 25 32 35 26 30 27 23 25 28 26 24 25 22 18 20 18 16 12 9 8 9 9 7 4 7 15 18 20 19 20 21 22 21 22 23 22 22 19 20
28 28 29 28 26 28 27 20 18 19 22 30 35 31 30 26 27 34 30 28 23 23 23 21 20 19 18 17 14 11 8 9 9 9 9 12 13 14 14 13 12 12 16 17 19 22 24 22 21

GFSSGP_500_spd_087.txt.gz
Wind_Speed
37 37 36 35 33 30 22 23 26 27 25 23 24 24 23 22 21 24 25 25 26 26 29 30 28 26 25 25 25 26 28 27 24 23 23 21 21 17 15 18 18 20 19 17 18 19 18 17 15
39 40 38 37 36 31 20 24 28 29 29 25 25 28 27 22 22 26 28 28 26 29 31 33 30 28 26 26 26 27 27 24 23 22 19 18 19 18 18 17 18 24 25 19 19 20 21 19 17
40 41 39 40 38 31 21 26 31 32 31 28 28 30 28 21 25 27 31 31 24 29 32 34 32 31 27 26 27 28 25 22 20 19 20 22 22 22 21 22 20 24 28 25 23 21 21 19 19
40 42 41 41 38 29 23 28 35 33 30 27 28 31 27 25 27 28 32 35 24 32 32 35 34 31 29 26 28 28 22 22 22 23 24 24 22 24 22 21 21 21 26 24 23 21 19 21 21
41 41 40 39 36 28 25 32 36 33 28 29 29 29 29 29 31 34 35 35 25 32 33 35 33 32 28 26 27 26 25 25 26 26 26 24 22 25 23 27 20 17 20 21 22 21 20 23 20
41 39 36 35 33 30 29 33 33 30 30 31 31 31 29 32 34 37 36 36 27 31 35 35 31 32 30 25 25 26 23 25 28 27 25 25 25 24 27 22 25 21 17 22 27 23 24 24 23
42 41 37 35 34 32 26 29 27 29 31 33 32 31 30 32 36 38 40 39 29 32 38 37 34 32 29 25 26 25 22 24 26 27 27 28 30 26 28 22 26 29 28 22 24 23 25 28 27
40 40 37 35 33 27 23 26 29 31 32 33 32 31 31 34 38 39 41 41 30 32 37 39 36 34 26 26 27 25 25 25 27 30 29 28 28 30 26 21 23 30 30 30 29 30 28 30 30
41 38 35 33 31 22 28 32 33 33 33 34 34 30 31 36 38 41 43 43 33 33 38 40 39 36 29 27 30 27 26 26 27 29 28 27 26 30 26 26 32 24 22 31 34 31 32 31 31
39 38 35 33 30 30 35 34 32 32 33 34 33 31 33 37 37 41 44 44 34 32 34 39 39 38 31 29 30 28 28 28 27 28 28 26 29 28 27 33 35 33 22 22 45 32 29 33 30
38 36 34 35 33 37 37 35 32 32 32 35 32 33 36 36 38 42 45 47 37 33 32 40 39 39 32 30 29 28 27 28 28 28 25 26 30 28 27 22 27 28 25 22 33 29 32 31 29
40 37 37 37 37 37 36 34 31 27 29 31 30 37 37 35 37 41 44 47 39 33 32 37 39 36 30 29 30 29 27 30 28 28 25 28 27 28 28 25 24 35 34 29 34 30 31 32 31
37 34 35 35 36 35 35 29 27 30 27 26 33 37 34 36 38 40 43 45 35 34 36 35 37 36 30 28 29 28 28 30 29 28 26 28 19 21 29 26 28 30 35 29 35 33 32 34 31
36 36 35 35 33 32 30 31 35 28 27 32 32 34 36 35 39 43 45 47 36 37 38 35 38 35 31 29 29 27 30 30 29 29 28 28 25 25 26 28 28 27 35 29 36 30 28 30 31
39 38 37 37 37 36 37 36 34 29 33 33 31 33 37 41 41 42 44 46 39 40 37 36 40 36 33 30 30 28 32 32 31 31 30 28 26 26 34 33 30 31 32 37 36 27 27 28 34
40 39 40 39 38 37 37 36 35 37 33 34 35 37 37 40 41 43 44 42 40 41 35 40 38 35 36 30 27 29 31 32 33 31 29 28 25 27 30 32 32 33 36 38 36 29 29 32 32
41 39 38 38 37 38 38 35 39 33 35 36 37 39 40 43 42 42 38 42 43 37 38 41 36 35 34 29 23 27 29 29 27 21 23 25 28 28 29 29 31 37 43 42 35 29 27 28 30
37 38 38 40 39 39 38 37 39 38 37 40 38 37 41 43 44 39 35 40 41 34 38 38 35 36 32 24 24 24 26 23 16 17 17 19 24 27 26 28 27 37 44 42 31 29 30 26 28
43 42 41 40 39 39 40 36 42 41 40 37 36 38 41 43 41 36 33 37 37 34 34 34 36 36 27 24 20 23 24 21 20 18 17 16 25 29 27 28 30 42 45 40 33 32 31 28 25
42 41 40 41 41 41 40 37 41 40 40 37 37 38 42 40 39 33 30 33 35 31 31 33 36 32 24 21 21 21 20 19 21 24 24 21 27 32 27 26 35 43 48 29 32 33 29 29 30
40 40 40 41 42 40 42 39 38 37 37 36 36 42 44 42 33 29 28 31 34 29 28 36 34 27 20 19 20 17 17 17 19 19 22 20 25 29 37 30 37 42 39 35 34 33 31 23 23
39 40 40 39 40 39 39 39 33 33 36 37 39 45 43 38 30 27 27 30 26 25 30 34 29 21 18 18 16 15 13 14 15 20 15 24 27 28 31 39 42 44 29 32 34 33 30 29 27
38 38 39 39 38 38 36 37 32 36 37 41 44 47 40 31 28 26 29 31 27 25 35 26 25 17 15 16 14 13 11 12 11 19 17 23 18 24 34 45 47 44 32 38 37 31 28 31 29
35 36 36 36 36 37 35 33 29 33 34 35 44 44 39 35 28 27 32 31 28 30 30 25 22 16 14 16 12 12 8 8 7 13 6 20 23 21 40 46 48 41 42 34 31 27 28 29 31
34 35 34 34 35 34 32 32 33 30 28 32 31 30 30 32 25 32 34 27 27 31 28 24 21 16 13 14 12 12 8 6 5 6 10 15 21 22 42 43 38 35 33 34 30 28 28 29 29
35 34 33 34 33 32 31 35 32 27 25 28 27 27 28 28 28 34 33 28 29 32 26 24 21 17 15 12 9 9 8 5 4 5 6 12 22 23 34 26 26 26 29 31 27 27 28 28 31
34 33 32 32 31 31 31 29 27 22 22 21 24 27 27 30 33 31 27 29 33 27 26 24 24 20 15 12 9 8 7 5 4 4 6 6 22 15 18 21 28 24 27 36 28 29 29 28 26
32 31 30 30 30 32 32 27 22 21 18 25 27 32 31 34 33 29 29 28 31 27 26 26 25 23 17 13 10 7 8 7 5 5 5 13 14 19 24 26 24 21 23 26 27 26 23 22 18
31 30 30 29 28 31 31 24 17 19 20 25 28 33 32 34 37 34 29 29 25 24 26 27 26 25 18 14 12 9 9 10 7 5 4 11 13 17 18 16 15 14 17 20 19 19 20 18 20
30 30 30 28 30 31 31 22 18 16 21 24 30 32 34 35 35 34 32 32 24 23 25 27 26 26 19 17 13 9 7 7 7 4 2 5 9 10 12 13 12 14 17 20 20 21 23 23 21

GFSSGP_500_spd_090.txt.gz
Wind_Speed
36 35 35 34 34 36 31 29 31 30 26 23 25 24 22 21 18 22 23 22 22 21 23 24 25 23 22 21 21 24 26 27 26 24 23 21 17 14 18 17 18 19 21 22 22 20 18 17 17
40 39 38 38 38 38 31 28 30 32 29 26 27 26 25 24 20 23 23 24 22 22 25 26 27 26 26 26 23 23 24 25 25 22 19 17 15 14 13 16 18 20 22 19 21 22 21 20 20
40 41 41 42 41 41 28 29 34 34 32 29 29 27 28 22 23 24 25 26 24 22 26 28 28 27 28 28 27 25 25 24 22 20 19 19 19 19 17 17 19 20 25 22 22 22 22 22 21
40 41 43 44 42 38 32 32 35 35 35 32 30 30 28 23 24 25 25 25 25 21 26 30 27 28 28 28 27 27 27 25 21 21 21 23 25 24 21 19 20 19 23 27 25 22 21 23 23
43 44 44 43 42 40 32 33 37 38 37 34 31 32 29 27 26 28 26 25 26 22 25 30 28 28 27 28 28 29 28 25 22 22 22 25 25 24 21 22 22 17 19 19 21 25 24 24 24
44 44 45 43 42 40 36 35 39 39 39 34 32 32 31 29 30 29 26 27 29 25 25 31 32 30 27 27 30 30 30 26 23 21 21 22 23 21 23 23 18 21 21 17 17 24 25 25 26
44 45 43 44 44 41 37 37 39 40 37 34 33 32 33 33 32 31 29 29 30 27 25 31 33 32 27 25 29 31 30 27 24 22 21 20 23 23 25 25 25 22 23 20 16 25 25 26 26
44 45 44 44 44 45 37 34 37 37 38 35 34 34 34 33 32 31 30 30 30 30 25 29 34 35 30 26 29 31 30 29 25 24 22 24 26 26 25 24 27 21 23 24 25 26 31 29 29
45 45 44 44 43 44 37 34 38 38 40 38 36 34 32 33 31 32 32 33 33 33 27 27 33 36 31 26 31 33 30 30 27 26 25 25 24 26 26 26 22 22 23 26 25 31 28 27 29
46 46 42 43 42 39 36 36 41 42 40 37 35 33 32 31 32 33 33 34 34 35 30 27 32 36 35 29 33 34 31 31 27 28 28 26 26 28 27 26 25 29 30 28 31 34 31 30 30
46 44 46 44 40 41 38 38 43 42 39 36 38 36 34 32 31 31 32 33 34 35 31 25 31 37 34 31 32 35 33 31 27 28 29 28 28 29 27 28 27 24 22 28 32 33 35 33 30
49 45 47 48 44 43 41 41 43 41 38 38 39 37 34 33 30 30 31 32 33 34 32 27 31 35 34 32 32 35 34 32 26 29 28 28 28 29 26 30 25 22 26 26 23 23 37 37 31
47 47 46 48 45 43 43 42 43 41 38 37 37 35 34 34 31 29 29 31 33 35 35 30 34 34 33 31 31 36 35 32 27 26 26 28 29 29 25 26 26 23 18 26 27 27 36 34 36
46 46 47 47 44 41 42 41 41 39 37 36 35 34 35 33 32 31 31 32 33 35 36 33 35 35 34 33 32 34 35 32 29 25 27 29 29 26 28 20 22 25 23 31 30 33 31 28 35
47 42 48 43 40 38 38 37 36 34 35 37 36 34 34 34 32 31 33 34 35 36 35 32 33 35 36 35 33 33 35 32 28 26 29 31 30 28 26 22 26 27 27 30 35 29 38 32 36
48 48 48 47 41 38 37 36 36 36 35 36 33 33 32 30 31 33 34 36 37 37 35 33 34 36 36 32 34 32 33 30 25 27 29 32 30 30 27 23 31 31 29 30 40 35 41 32 33
50 48 48 44 41 41 38 41 41 38 38 37 35 33 32 33 33 35 37 37 39 38 32 33 36 36 32 32 33 33 33 28 26 26 26 27 30 30 27 25 33 31 31 30 40 43 39 29 31
46 44 44 44 44 41 41 40 41 37 36 36 35 36 35 33 35 39 35 36 39 34 33 32 37 33 31 33 32 33 30 28 25 24 23 20 22 25 28 29 30 33 34 33 39 40 40 28 31
45 43 44 46 45 43 41 39 39 39 35 35 34 35 34 34 37 38 37 39 36 31 32 33 36 29 33 31 31 30 29 26 24 25 25 25 22 21 24 31 31 32 33 35 41 43 40 29 34
44 42 42 42 42 42 39 40 39 40 38 35 35 35 35 37 39 38 36 41 34 31 31 31 30 30 32 31 30 28 28 24 25 24 25 27 21 24 24 30 31 32 34 38 47 47 41 31 31
48 40 40 41 41 39 39 39 41 40 36 35 36 36 36 37 38 39 40 41 33 30 25 29 31 30 33 28 28 28 23 23 23 24 24 26 27 27 26 32 31 31 34 43 46 45 35 32 31
36 36 37 38 37 36 38 42 41 37 34 34 34 35 36 37 38 39 42 39 32 28 28 31 31 31 28 30 28 25 19 20 22 21 23 26 26 25 27 36 39 36 34 40 50 41 37 34 29
41 37 36 36 36 36 34 38 40 37 31 31 34 36 37 39 41 42 44 34 33 30 28 31 29 26 27 29 26 21 17 19 19 19 22 23 25 28 28 32 33 32 35 44 47 35 32 31 29
36 32 34 34 34 39 34 34 35 36 29 29 33 34 37 40 39 41 36 33 32 30 29 27 25 25 28 27 23 18 18 17 16 16 17 24 22 29 26 30 36 38 37 43 45 36 33 32 34
40 39 36 33 35 33 32 33 34 30 28 27 31 33 38 36 33 23 29 31 31 30 25 26 25 26 26 23 19 18 18 16 14 15 14 16 22 28 29 27 37 39 46 40 34 35 33 36 35
32 31 32 33 32 31 30 30 35 27 27 29 31 36 32 31 24 23 26 29 32 26 30 27 27 26 24 19 18 19 18 15 12 12 12 10 15 23 22 27 37 45 48 39 35 36 39 34 31
33 31 30 31 32 30 28 25 30 25 26 27 31 29 25 25 23 26 28 31 31 29 29 28 27 24 24 16 18 17 14 10 10 9 9 11 12 22 20 26 43 43 48 41 42 40 34 30 28
32 31 30 31 28 28 28 24 24 28 25 27 26 28 25 25 26 28 30 32 31 31 25 28 28 26 22 17 18 16 12 10 9 8 8 9 12 15 21 27 32 24 28 30 33 32 32 32 28
33 30 28 25 26 26 27 20 26 25 25 27 24 28 26 27 29 30 30 34 36 32 32 30 28 25 23 19 18 17 12 11 8 6 6 8 8 16 14 26 30 20 25 25 31 32 33 28 31
29 27 25 27 28 27 27 26 22 23 23 21 25 28 28 28 30 32 37 37 35 31 28 28 24 26 25 20 19 17 11 8 6 4 1 3 10 13 10 20 27 22 25 26 24 24 21 23 23

GFSSGP_500_spd_093.txt.gz
Wind_Speed
34 33 33 34 35 36 35 31 30 34 31 33 26 26 25 24 24 24 24 24 22 18 18 21 20 20 20 19 19 18 20 22 23 25 26 24 23 23 21 19 17 20 20 21 23 23 22 20 19
39 38 37 37 39 38 36 27 32 30 37 31 31 29 27 26 28 25 26 26 23 18 19 23 23 23 22 21 21 19 20 22 24 26 26 24 21 19 17 16 18 17 18 22 23 23 23 22 21
40 40 42 42 45 44 39 18 36 34 41 34 34 32 30 29 28 28 27 27 24 15 19 23 23 23 22 23 22 21 21 23 25 26 25 24 23 20 20 19 19 19 18 19 22 23 24 24 23
39 41 42 45 43 42 42 31 40 35 41 36 38 35 34 33 29 29 25 27 26 15 19 23 24 24 24 26 25 22 22 24 26 27 26 24 24 25 22 19 20 22 18 21 22 21 21 23 23
42 43 44 44 43 41 42 41 44 35 41 38 39 38 37 36 31 30 29 29 25 16 20 21 24 26 25 25 26 25 24 24 27 28 27 25 25 25 23 23 20 21 21 21 25 24 22 22 25
44 45 46 44 43 43 43 47 41 41 44 41 40 41 42 37 33 33 31 31 24 16 18 20 24 27 26 27 28 25 27 25 26 27 26 24 25 21 21 21 21 20 19 20 20 24 26 26 27
44 47 45 44 43 43 31 50 45 43 43 44 45 44 44 43 35 34 33 31 27 18 17 21 23 27 28 27 29 27 27 27 26 28 26 25 22 18 16 22 22 20 21 24 25 25 26 28 27
45 46 46 45 46 48 39 53 41 42 44 46 47 46 44 44 36 36 34 33 27 22 19 21 23 27 29 29 30 29 28 29 26 26 29 28 27 22 24 25 21 22 25 24 27 26 25 28 26
47 48 44 45 45 46 52 49 41 42 46 49 47 47 46 40 35 37 36 34 28 26 20 19 22 26 29 31 33 30 30 31 28 27 31 30 30 24 22 24 24 20 24 24 27 27 23 29 29
52 50 45 45 46 47 54 44 43 43 49 48 50 47 46 41 37 36 36 32 30 27 24 19 20 25 28 31 34 33 32 32 29 29 32 32 32 28 25 25 24 25 21 29 30 31 31 27 33
50 52 49 51 51 52 50 44 43 43 47 50 51 47 46 41 37 37 35 33 31 30 25 20 19 26 28 32 35 34 34 32 29 30 32 34 33 30 27 25 27 27 28 25 26 27 31 33 32
53 51 53 53 54 55 49 49 45 45 45 49 50 51 47 44 38 36 36 33 32 31 26 22 22 26 29 34 37 37 36 30 29 31 32 34 35 31 28 27 27 30 29 26 30 30 31 27 37
57 55 56 55 56 56 53 50 46 45 48 50 51 49 46 45 41 38 34 33 33 30 26 25 25 26 30 34 37 38 37 32 31 31 34 34 36 32 29 28 29 30 27 22 24 27 30 37 38
60 59 59 60 55 52 53 49 47 45 48 49 48 47 47 46 43 40 33 32 30 29 30 29 28 28 29 34 36 37 37 33 30 31 34 35 35 31 29 28 27 27 25 24 20 22 20 30 37
61 61 61 55 57 56 49 50 46 43 45 49 48 45 46 44 42 33 31 31 29 30 32 31 29 31 30 33 34 35 35 31 29 31 33 33 34 32 30 29 27 24 24 24 21 23 23 21 34
60 63 62 58 57 53 51 50 42 41 45 45 45 42 42 38 36 34 31 31 32 33 32 32 32 30 32 33 32 32 29 31 27 30 30 30 32 32 32 30 27 25 25 26 23 29 26 25 37
57 62 62 54 57 57 50 47 41 44 44 38 40 37 37 37 35 35 33 33 35 35 34 33 33 29 33 33 33 29 30 27 27 28 27 30 31 30 30 29 28 28 30 32 26 29 36 32 41
52 57 62 58 48 55 51 50 42 43 42 37 37 38 38 38 35 36 34 36 36 36 36 34 33 29 34 33 31 28 30 27 27 26 28 30 30 26 23 25 28 30 32 32 29 30 35 33 41
47 53 57 55 43 55 51 49 49 47 47 38 39 39 38 38 37 39 37 38 37 38 36 34 32 33 32 31 29 32 29 27 27 26 29 30 28 28 22 23 30 40 30 29 29 30 34 35 39
44 52 56 47 47 49 44 47 45 45 43 40 37 38 39 39 39 37 37 39 38 37 36 34 36 35 25 29 30 34 28 26 26 27 30 30 27 28 26 28 27 34 34 35 32 34 33 41 43
43 46 46 50 39 44 39 46 40 40 44 39 37 38 41 40 38 37 38 39 38 37 36 33 35 34 26 29 33 31 24 26 25 29 29 27 27 28 30 28 26 34 34 34 39 36 34 40 43
43 41 36 40 44 41 39 41 24 43 45 37 36 35 37 37 37 37 39 38 37 37 35 35 34 34 27 31 32 26 25 24 26 28 27 26 28 27 29 35 32 35 39 38 37 36 37 42 44
38 38 46 46 47 41 40 40 32 33 36 34 32 37 36 37 38 37 37 37 37 38 36 34 36 33 29 32 27 24 24 25 27 27 25 26 27 29 30 30 32 35 35 40 40 39 42 45 47
32 38 37 30 29 36 38 35 20 18 31 32 31 31 35 37 37 37 36 36 36 36 32 34 34 30 28 28 23 23 24 27 27 24 25 26 28 31 30 34 34 41 40 35 32 38 43 45 46
34 36 33 32 36 37 15 27 25 32 39 24 28 35 36 36 36 36 35 34 37 32 31 35 32 28 28 22 23 22 26 26 24 23 25 27 24 25 30 28 33 37 39 36 37 38 42 46 39
35 35 23 19 21 20 24 29 22 37 29 27 29 31 33 34 36 35 32 31 29 29 31 33 28 30 22 25 21 22 24 23 21 22 23 24 22 27 25 25 26 33 36 36 33 40 46 44 34
32 35 28 27 21 25 16 9 26 23 29 29 29 31 33 34 32 30 25 23 26 26 31 30 28 27 24 20 19 22 22 21 19 19 20 21 22 29 20 22 24 31 35 38 33 41 46 43 33
31 28 27 30 29 22 22 15 22 24 26 26 26 28 30 29 28 23 22 25 28 29 29 27 28 25 26 18 20 21 20 18 17 19 19 19 19 23 18 27 28 33 38 39 39 43 37 37 34
31 26 28 28 26 19 13 18 29 27 23 20 24 26 28 29 24 24 25 29 30 29 28 26 25 28 27 18 21 21 19 16 17 19 18 18 17 16 16 24 24 32 37 39 44 40 36 34 35
25 27 24 26 22 27 24 21 16 23 23 23 23 23 27 30 23 26 29 30 31 31 30 29 30 33 30 20 21 20 19 15 15 17 14 13 12 11 11 13 25 22 24 28 37 42 36 30 28

GFSSGP_500_spd_096.txt.gz
Wind_Speed
33 32 32 33 34 34 31 31 26 16 29 39 32 28 28 26 29 32 26 23 20 20 19 19 20 19 20 21 20 20 20 20 19 19 20 23 25 26 26 26 22 20 20 19 18 21 25 25 23
38 37 37 37 39 38 33 30 17 12 38 39 38 29 32 26 35 36 30 26 23 23 21 20 22 20 23 22 20 19 19 20 20 20 21 23 24 25 25 23 20 20 19 17 17 18 23 24 22
38 38 41 43 44 42 38 31 8 23 42 45 41 30 34 34 34 40 29 29 26 24 21 19 22 22 25 23 20 20 20 21 21 20 21 22 23 25 23 22 21 21 20 17 19 18 22 25 24
39 40 42 44 43 40 40 36 24 24 47 48 40 35 38 39 40 41 34 32 28 26 21 19 22 24 25 22 22 21 21 23 23 22 23 22 23 25 24 23 23 21 21 20 18 18 21 26 26
40 42 45 43 41 38 37 36 27 39 45 49 43 38 40 39 43 43 37 34 31 26 22 18 21 23 22 23 22 22 24 25 24 24 24 23 23 23 23 24 24 23 22 21 20 19 21 24 26
43 42 45 44 41 41 39 37 42 43 45 46 48 40 36 44 44 43 40 38 35 27 22 19 21 21 23 23 24 25 25 25 25 25 25 24 23 22 25 24 25 23 21 23 23 22 25 25 24
44 45 44 43 43 43 42 16 30 34 47 43 48 43 42 43 50 43 40 41 37 31 25 21 21 20 22 24 26 25 25 25 25 25 26 24 23 20 22 25 20 21 20 22 19 19 24 29 28
48 47 48 46 42 43 43 34 35 43 48 37 45 48 50 52 51 46 42 41 40 34 28 21 21 21 22 25 27 26 25 24 24 24 25 25 23 22 24 27 26 27 26 27 25 24 25 26 28
46 53 54 47 44 43 42 43 44 54 51 43 41 46 52 55 49 49 46 41 41 37 30 23 22 23 22 26 26 27 26 26 26 26 26 26 25 25 25 26 26 26 27 26 21 24 22 24 26
50 51 50 47 50 49 48 42 44 54 48 45 45 48 53 54 53 48 47 42 41 37 31 26 23 24 23 26 26 27 28 28 27 27 27 28 27 28 27 29 29 28 28 23 23 26 31 28 25
51 52 48 48 50 53 54 53 52 52 45 47 47 48 55 55 53 51 48 40 41 39 34 29 25 24 25 25 25 28 31 29 28 29 30 29 29 30 30 29 30 28 29 26 25 27 23 29 32
53 54 55 52 50 53 57 57 59 56 50 48 49 50 53 56 52 52 47 43 40 36 33 30 28 24 24 26 25 29 31 30 30 32 33 32 30 32 31 29 32 28 30 26 30 28 24 23 35
48 52 57 60 57 57 57 61 63 55 51 51 50 50 52 52 54 51 45 42 41 37 34 30 30 26 23 25 27 31 32 32 32 33 33 33 32 33 32 30 33 31 30 28 30 27 27 23 31
50 53 56 60 62 61 62 61 63 59 49 51 51 50 52 52 51 52 46 44 41 37 35 29 30 28 24 26 28 32 33 35 34 34 32 32 34 34 33 29 30 32 29 27 27 25 20 26 31
51 56 59 61 64 63 63 62 61 57 45 46 49 51 50 51 50 51 48 44 40 37 35 33 29 30 26 27 28 32 35 36 37 36 29 31 34 32 30 29 29 31 28 27 29 25 22 24 31
51 57 59 56 61 64 64 66 59 52 55 42 48 49 49 49 48 48 45 41 39 35 35 37 33 28 29 28 30 32 35 37 36 30 29 29 30 27 28 28 28 31 30 30 27 27 28 28 23
51 57 58 55 52 56 51 65 61 48 50 51 48 48 46 48 47 46 43 39 36 35 37 39 32 26 28 30 31 32 35 36 31 27 28 29 27 27 27 28 29 32 33 33 27 27 28 19 21
49 54 53 51 51 50 54 57 61 45 46 45 54 41 47 43 41 39 39 36 37 37 39 37 31 27 28 32 32 32 33 32 29 27 27 28 27 26 27 29 29 28 31 29 24 30 28 26 22
51 53 51 48 45 29 41 51 54 50 49 47 44 44 39 41 37 36 37 38 36 38 38 36 32 26 29 30 32 31 30 30 30 26 26 27 25 26 28 30 28 27 29 28 30 27 31 31 28
53 53 49 48 47 44 49 50 52 59 39 44 41 37 40 39 39 41 42 43 39 40 39 37 33 28 29 31 31 33 31 31 27 24 27 27 25 27 30 31 31 27 29 32 32 33 32 36 37
52 51 51 47 42 43 45 49 49 28 36 41 46 38 38 37 38 40 41 40 38 38 38 37 33 32 30 30 34 35 32 28 24 26 26 26 24 28 29 30 30 32 31 38 31 32 31 32 29
47 42 44 44 42 43 35 45 35 16 29 36 35 37 40 42 42 40 39 41 41 40 37 36 32 33 30 29 36 34 27 25 25 25 23 24 25 29 28 29 28 33 30 28 34 36 35 37 31
41 34 40 38 38 38 39 40 30 22 17 20 19 29 40 41 44 44 43 40 40 38 34 36 31 31 30 32 36 32 25 24 27 22 22 23 26 29 28 29 30 29 34 35 34 37 38 34 33
36 34 39 32 32 39 35 39 39 30 14 26 41 34 35 42 37 34 39 37 38 36 36 37 29 32 30 34 34 29 23 26 22 20 22 25 27 29 28 29 30 30 32 33 36 43 34 36 39
41 32 27 25 30 34 28 20 33 19 38 36 23 27 38 39 36 40 37 36 37 34 33 35 24 34 31 33 33 28 25 24 20 19 23 27 27 29 29 27 27 30 33 37 40 44 39 40 38
35 35 28 28 23 18 11 22 9 25 30 32 31 32 30 34 36 37 38 34 32 32 34 23 33 35 27 31 31 27 25 21 18 20 24 25 27 28 27 30 29 33 35 41 39 38 38 36 40
30 36 25 23 20 17 18 16 20 21 27 28 33 33 31 29 30 34 32 31 29 32 25 29 32 27 27 30 26 22 22 19 17 21 24 25 28 28 26 29 34 29 31 35 44 43 38 36 34
20 25 34 33 20 18 14 21 20 31 34 32 32 30 28 30 29 28 28 28 24 24 27 28 24 27 28 25 24 22 21 17 18 22 24 26 27 28 30 26 23 23 23 34 45 42 39 36 38
28 25 25 30 31 11 12 13 20 23 30 36 30 29 27 30 26 22 24 24 23 21 26 25 26 27 25 25 26 18 17 18 19 21 24 25 26 27 29 25 24 25 28 28 32 40 35 30 45
21 30 26 31 33 22 18 19 16 31 39 12 17 17 22 26 24 20 22 22 22 24 25 27 26 25 23 28 24 17 19 20 20 19 23 22 23 24 21 25 24 30 29 33 37 37 36 37 47

GFSSGP_500_spd_099.txt.gz
Wind_Speed
34 34 35 35 35 35 30 27 26 13 17 22 25 34 39 34 33 34 33 28 24 21 18 17 17 17 18 19 21 21 21 19 19 19 18 20 23 24 24 24 24 24 23 20 17 18 21 21 25
39 39 39 40 40 37 32 28 23 18 23 27 33 33 38 39 35 34 35 35 28 26 21 20 18 19 19 20 21 23 22 20 20 20 21 22 22 24 23 23 23 23 23 21 17 16 17 19 24
37 41 42 44 46 41 35 32 24 27 20 26 34 38 39 40 42 37 35 36 33 29 29 23 19 21 22 22 22 24 21 19 20 22 24 22 23 24 22 22 23 23 24 21 18 18 18 19 22
40 42 41 46 44 36 36 35 28 20 23 32 38 45 46 44 44 39 36 38 34 34 32 29 21 23 24 22 22 24 22 21 22 24 25 24 24 23 21 22 20 22 23 21 21 20 20 19 23
44 44 45 47 42 35 35 34 29 29 34 37 44 48 49 45 42 40 39 37 39 36 36 35 25 25 26 20 21 23 25 26 24 25 27 26 25 24 22 21 21 20 22 23 21 20 21 20 22
45 45 48 47 42 38 37 35 34 25 38 40 46 49 50 46 41 39 41 42 41 39 37 36 29 26 25 22 21 22 25 25 23 25 25 24 24 24 22 21 21 19 19 22 23 23 25 23 24
45 47 47 48 47 42 35 34 37 38 36 44 48 52 53 49 46 47 45 42 39 40 39 37 34 25 25 24 22 22 26 24 22 22 23 23 23 23 21 21 23 22 19 22 25 24 20 22 25
47 49 50 50 49 42 34 36 37 39 41 41 43 48 54 51 49 49 51 46 40 40 40 39 37 25 27 25 23 24 27 24 20 22 23 22 22 23 22 22 22 23 23 26 27 32 23 18 21
46 48 45 49 48 43 41 41 31 37 44 43 45 49 47 46 48 49 51 47 42 38 40 40 38 29 28 26 25 27 27 24 22 23 24 22 21 22 22 23 25 23 23 23 25 23 23 23 24
45 46 45 46 46 48 47 48 47 41 48 51 50 52 52 48 52 51 49 47 42 38 40 41 37 30 29 28 27 27 26 24 24 24 23 22 23 25 24 23 26 24 25 26 24 24 25 30 27
42 45 42 46 49 49 50 50 50 50 52 55 51 55 54 51 55 53 48 50 48 42 42 39 36 33 31 29 29 28 25 24 25 25 24 25 26 30 27 26 28 26 26 26 25 25 24 23 19
45 41 41 42 46 51 53 51 52 53 56 58 54 52 52 50 53 52 51 52 49 43 40 39 37 34 32 31 31 27 26 25 26 26 28 27 29 32 30 28 30 27 28 27 27 27 24 24 18
49 42 42 43 43 48 54 55 57 56 58 60 57 54 53 50 51 50 52 52 46 44 43 38 36 34 32 31 31 27 28 26 27 28 30 30 32 34 32 30 32 29 28 27 29 25 25 29 27
45 47 46 43 44 48 54 53 59 57 60 61 56 51 53 51 50 50 50 51 48 40 44 39 34 32 33 31 32 29 29 28 30 30 32 33 34 34 33 32 32 30 29 27 29 27 27 27 24
47 51 50 48 48 48 51 57 54 56 53 59 54 50 51 54 53 50 51 51 46 39 40 42 34 31 33 32 33 31 30 31 31 33 33 35 34 33 33 31 29 28 29 28 29 28 28 27 31
49 52 52 45 45 45 51 60 52 56 58 60 58 58 55 52 53 55 52 48 48 41 38 41 38 34 31 33 33 32 33 32 32 33 34 35 34 31 30 29 27 25 29 28 28 29 29 30 30
53 55 54 55 47 48 54 60 53 56 59 59 61 58 58 56 56 56 52 50 43 41 39 42 38 38 33 35 34 34 33 33 32 33 33 33 31 29 28 28 26 25 27 28 29 29 28 30 29
55 56 57 58 52 51 54 58 54 53 55 58 52 60 62 57 52 48 49 45 43 42 40 42 38 37 35 33 34 34 33 34 33 33 32 32 29 27 29 27 24 24 26 26 27 31 29 31 25
63 66 64 64 53 51 54 56 53 44 45 48 48 56 60 53 44 46 44 41 42 43 39 40 38 34 31 27 32 33 33 34 34 34 32 29 26 27 29 26 24 23 26 26 26 30 25 25 26
70 68 65 57 52 49 50 54 47 40 41 40 50 47 44 33 37 40 40 41 39 37 39 38 37 34 30 25 32 33 33 34 34 34 31 28 25 29 29 25 24 25 27 27 28 31 33 25 27
64 59 55 53 49 47 49 53 43 36 42 31 32 41 34 39 37 38 38 46 41 37 35 36 34 34 33 27 30 32 34 35 32 32 25 26 27 29 28 24 25 26 26 29 32 28 34 32 29
52 49 42 36 37 47 43 49 39 33 32 23 21 34 28 36 38 45 46 44 44 40 36 36 39 36 33 30 28 32 35 34 32 31 27 28 27 27 27 24 25 27 28 28 33 29 35 33 31
44 35 31 23 31 43 47 42 31 27 29 29 21 21 37 42 48 48 46 42 35 37 39 39 36 38 33 33 28 35 35 33 32 30 29 26 28 27 25 24 26 27 28 30 29 33 27 32 32
32 41 38 28 34 46 36 35 29 23 25 16 20 28 33 36 47 46 44 40 39 38 40 37 41 36 32 30 29 36 37 29 30 29 28 27 29 26 24 25 27 29 29 30 29 31 28 29 35
29 42 38 30 36 36 22 27 21 14 29 21 30 32 32 33 33 33 34 33 34 37 38 37 37 31 29 31 34 39 36 28 30 29 26 28 27 27 25 26 29 29 30 31 35 31 30 30 38
31 41 38 33 26 11 11 16 4 18 28 28 35 30 26 29 37 32 37 29 32 30 31 34 33 28 31 33 38 38 31 29 28 29 28 25 26 25 26 29 29 30 29 33 33 31 34 31 39
24 45 28 27 23 12 14 2 15 20 45 38 22 32 31 25 25 30 31 32 36 40 37 33 33 35 37 36 36 34 29 29 28 28 26 26 23 25 28 30 29 32 33 31 35 34 33 31 39
30 42 34 31 30 16 17 16 25 19 30 27 41 42 29 24 31 27 31 33 34 36 35 34 36 34 33 32 33 29 26 28 28 29 30 23 22 26 29 30 32 32 30 32 29 33 37 41 39
26 33 27 29 27 10 10 24 31 23 18 18 25 27 25 25 24 24 26 30 33 32 31 32 30 28 26 28 27 25 26 26 26 24 22 21 23 26 28 29 30 30 27 30 30 34 38 40 37
21 17 28 29 25 14 9 6 24 27 19 42 28 10 21 24 23 20 24 26 27 30 32 31 28 25 25 24 23 26 28 25 24 21 22 22 23 25 27 27 26 24 28 24 27 34 35 40 42

GFSSGP_500_spd_102.txt.gz
Wind_Speed
33 36 39 40 39 40 34 27 25 17 26 29 26 22 20 26 33 37 33 34 34 31 24 19 19 22 18 18 18 17 18 20 20 19 18 20 22 23 24 24 24 24 25 22 23 20 18 19 20
35 36 36 39 42 42 34 27 23 22 19 28 30 27 25 29 30 35 34 35 33 33 31 27 22 24 23 21 20 18 19 21 22 18 19 22 23 24 25 25 24 24 24 23 22 20 18 18 19
33 36 36 40 43 37 34 29 29 28 22 26 32 36 29 33 33 34 36 37 37 36 32 31 28 25 27 25 22 20 19 20 19 20 23 25 25 24 25 25 25 23 22 23 23 21 22 20 19
34 34 35 40 41 32 29 28 31 25 27 32 37 40 41 40 39 40 40 36 36 36 35 33 33 29 27 27 25 22 20 19 19 23 25 24 24 25 24 25 23 21 22 22 23 23 24 21 21
37 37 37 38 37 34 32 31 28 28 27 33 37 42 46 46 43 43 40 38 39 38 38 36 37 34 28 28 30 26 23 20 20 23 25 25 23 23 24 26 22 19 22 20 23 23 24 24 22
36 37 37 39 38 37 37 31 33 32 30 36 42 42 44 46 44 42 41 42 43 43 40 38 38 37 31 30 32 29 27 22 20 22 24 24 22 22 24 26 23 19 21 22 22 24 24 24 23
37 37 38 40 41 40 36 34 36 35 35 37 44 47 50 50 48 45 38 41 44 43 39 37 39 38 34 31 33 30 29 25 22 21 23 21 22 22 23 24 22 19 21 21 23 25 26 27 27
38 42 41 41 40 39 34 37 40 40 40 38 45 49 53 53 52 45 42 43 45 44 42 40 40 38 35 31 33 32 30 27 24 21 21 21 22 22 22 21 21 20 20 22 22 24 20 22 17
43 46 44 40 36 37 38 39 40 44 44 42 45 48 48 53 52 45 42 42 41 42 43 38 41 40 37 32 32 33 31 29 26 22 21 21 21 21 22 22 21 21 23 22 22 25 23 21 18
47 49 47 38 40 40 42 44 42 47 48 46 45 50 51 52 51 45 45 43 44 40 41 36 39 40 38 33 33 33 32 31 27 24 22 21 22 22 24 24 23 24 25 24 24 24 25 23 18
43 47 38 39 38 41 42 46 45 45 48 51 51 51 54 51 51 45 46 48 44 43 44 39 36 39 38 35 34 32 32 30 29 26 23 22 23 23 25 25 26 26 27 27 25 25 25 23 20
48 43 40 41 39 40 40 40 46 48 48 49 53 55 57 57 53 52 46 46 47 43 43 45 38 41 38 36 36 33 33 31 31 28 24 24 24 26 27 27 29 29 31 31 26 26 29 29 27
46 42 48 47 44 42 40 42 44 46 48 49 49 53 55 57 55 55 49 47 47 46 46 41 37 40 40 36 37 36 32 32 33 29 27 26 26 28 30 31 33 32 34 33 28 30 32 31 30
45 48 46 43 38 38 40 40 47 50 46 48 50 50 54 51 52 53 55 52 48 46 48 33 37 38 38 37 36 37 34 35 34 31 29 28 28 32 32 34 35 35 32 31 30 30 31 30 30
43 49 48 43 41 44 41 54 53 44 43 45 50 50 53 56 54 54 52 54 52 47 49 40 35 37 38 36 36 36 37 37 35 32 32 30 30 33 34 35 36 33 30 30 31 31 30 29 32
47 52 51 45 45 45 49 59 53 47 48 49 47 53 58 57 56 56 58 57 53 49 49 44 39 35 36 35 35 38 39 38 36 35 33 31 33 34 36 35 30 30 30 31 28 28 30 30 33
48 49 51 52 46 49 51 58 56 50 50 52 51 47 51 56 58 58 56 59 51 48 46 46 41 39 35 36 38 39 39 39 38 35 33 33 35 36 36 33 26 29 30 28 27 26 29 30 33
52 55 53 54 49 56 60 65 62 59 55 56 54 52 51 53 58 58 59 61 56 51 48 48 46 42 39 38 39 41 40 39 37 33 33 35 37 37 36 29 27 29 26 26 28 27 28 29 31
54 57 61 58 56 63 68 68 66 58 58 55 47 51 53 54 57 55 56 60 53 50 51 49 50 45 41 37 38 35 35 38 36 33 34 36 37 38 35 28 29 27 25 26 27 28 27 26 28
59 61 63 66 65 62 63 65 63 59 56 48 47 44 42 44 44 47 47 55 52 50 50 50 48 45 39 35 33 36 39 39 39 33 33 36 36 36 33 30 29 25 24 26 29 28 27 23 27
65 67 69 70 68 61 58 65 61 56 50 42 40 37 40 39 39 46 43 45 47 54 48 44 43 41 35 33 34 37 38 38 35 33 35 36 37 37 34 32 29 25 24 27 27 25 26 25 26
68 63 59 58 55 55 44 60 56 50 44 37 33 32 38 37 42 44 43 44 51 50 48 51 42 36 36 33 32 32 33 38 36 36 37 37 36 38 34 32 28 26 25 24 25 25 25 26 25
64 55 52 49 53 46 38 46 41 36 34 32 29 37 37 35 46 49 50 49 51 48 44 38 39 39 38 34 30 30 34 40 39 35 37 37 36 38 33 33 28 29 25 24 24 25 27 26 29
53 50 48 45 40 42 24 31 14 18 19 24 35 36 39 34 44 49 52 52 45 41 38 39 35 33 33 32 31 28 37 40 38 36 37 35 36 36 35 33 30 29 26 25 25 25 27 28 30
42 36 33 30 36 28 20 33 17 11 22 26 47 40 35 32 45 45 42 33 36 34 34 37 36 37 34 33 31 31 35 42 37 38 37 33 35 34 36 35 31 29 27 28 26 27 28 30 31
28 26 26 30 30 26 23 23 16 15 27 35 46 40 30 27 32 40 38 37 31 33 38 37 38 36 32 35 36 36 41 40 38 38 34 33 33 35 38 34 31 30 29 30 28 29 29 30 32
22 27 21 30 32 28 17 16 14 22 27 40 41 20 26 31 30 30 24 29 34 35 35 33 33 28 34 38 35 37 36 37 38 36 32 31 35 37 36 34 31 28 31 31 30 32 32 31 30
24 20 23 35 34 26 8 13 13 15 21 24 37 21 17 36 27 22 19 30 37 37 41 36 32 31 33 31 34 36 34 35 36 32 32 34 36 35 34 31 28 31 33 32 34 35 32 33 34
18 20 22 28 36 21 18 10 7 19 19 29 32 11 23 30 17 21 19 25 29 32 35 37 35 33 34 34 35 35 32 35 31 32 34 35 37 39 29 28 29 31 32 35 35 38 32 31 34
22 18 26 31 25 20 26 17 12 25 14 12 31 32 22 22 22 25 26 29 23 28 29 28 27 33 34 33 30 31 32 31 31 32 34 36 38 29 28 27 27 29 33 32 33 29 30 36 38

GFSSGP_500_spd_105.txt.gz
Wind_Speed
30 30 30 32 36 38 31 25 26 24 21 24 27 28 31 32 31 29 29 28 31 35 31 29 25 21 22 23 24 23 21 19 17 17 19 17 19 21 22 23 21 21 22 22 23 20 21 19 18
31 31 29 30 35 35 24 19 20 24 28 23 26 30 33 37 37 33 31 33 36 39 36 32 30 27 25 26 26 25 24 21 19 19 18 20 21 23 23 24 23 23 23 23 22 21 20 20 20
35 33 30 30 30 29 22 18 26 27 30 26 27 32 34 35 37 35 35 35 34 36 37 37 35 31 27 29 28 28 26 23 21 20 19 20 22 22 24 24 23 23 25 21 22 21 20 21 20
34 34 33 33 30 28 23 24 26 25 29 31 32 34 37 35 37 39 37 38 40 38 39 40 35 34 30 30 28 30 27 26 24 22 19 20 21 22 23 24 23 24 23 22 22 20 20 19 20
35 33 35 31 30 29 27 25 29 28 29 34 37 37 40 40 41 42 43 43 43 39 39 40 39 37 35 34 30 31 30 29 26 25 22 20 20 22 23 24 23 23 23 21 20 20 19 20 20
37 36 32 29 30 32 31 28 31 31 32 37 40 41 42 42 42 43 43 42 39 37 40 40 38 40 39 36 32 33 34 31 29 27 25 22 21 22 23 23 24 23 21 20 20 19 19 18 18
38 39 36 35 34 32 28 32 35 35 35 37 40 42 42 44 44 43 42 40 39 39 41 44 41 38 36 35 32 32 35 32 31 29 27 23 21 22 22 21 23 22 19 19 19 18 16 16 18
41 42 38 36 34 31 27 31 34 37 38 39 42 45 43 44 46 48 47 42 37 39 42 43 41 39 37 37 35 32 35 35 32 32 28 24 22 22 21 20 21 21 20 20 18 19 18 16 18
46 45 43 39 34 35 34 36 38 39 42 42 42 43 44 45 48 51 51 45 41 42 41 37 37 37 38 37 35 31 35 36 34 33 30 25 23 22 20 20 22 22 22 22 24 22 19 20 21
49 47 45 38 39 39 39 40 38 40 43 43 42 46 45 47 48 51 53 48 43 44 42 39 37 36 36 36 33 31 33 32 34 36 32 27 25 22 21 20 22 22 23 25 26 26 24 20 22
50 51 42 43 41 40 43 42 41 42 43 43 41 45 47 49 51 53 54 49 48 43 40 40 42 41 38 36 37 34 32 31 33 36 34 29 27 23 22 22 23 24 26 28 28 27 27 26 23
51 46 41 42 39 41 38 39 38 39 41 42 43 45 47 50 52 54 55 53 49 48 44 40 41 40 36 37 42 38 34 33 31 33 34 31 29 26 25 24 25 26 29 30 31 30 29 32 29
47 42 42 45 42 36 40 41 41 45 42 40 42 45 47 49 52 53 54 54 49 50 44 39 40 46 36 39 39 40 36 34 31 32 33 33 31 29 27 27 29 29 32 33 33 33 33 34 33
43 46 43 43 40 38 42 42 49 39 34 38 41 43 46 50 54 54 55 55 53 52 49 44 41 44 35 40 38 41 40 38 34 32 34 35 32 31 29 30 30 32 35 36 35 32 32 32 33
44 46 44 41 39 44 45 52 46 44 41 43 41 41 46 48 54 57 57 59 60 58 56 49 49 43 36 41 37 38 38 40 37 35 35 35 34 33 32 31 31 34 35 37 33 28 29 32 34
46 48 47 45 40 43 49 55 48 47 48 49 48 46 47 47 52 58 63 63 61 61 61 54 49 45 37 41 43 39 41 41 40 38 37 36 36 34 33 33 32 33 35 34 28 28 31 31 31
43 47 49 50 49 48 51 53 50 52 52 55 54 52 53 49 50 52 57 62 63 64 63 59 51 43 39 41 44 42 44 43 43 42 39 38 39 36 34 33 34 34 34 29 27 31 31 29 28
47 50 50 50 50 50 53 59 57 60 60 62 60 60 62 59 50 52 55 60 64 63 62 61 55 45 41 36 44 47 45 44 45 42 41 42 37 35 34 34 33 35 32 28 29 30 29 28 28
50 53 53 50 49 59 63 65 64 63 67 67 67 67 67 67 61 51 55 59 61 62 62 60 58 49 46 44 42 44 46 46 45 42 41 38 34 36 35 34 32 34 33 29 30 29 29 27 29
50 52 54 54 56 64 65 69 69 71 77 75 74 75 73 70 57 49 56 60 62 59 59 60 58 49 48 48 43 42 46 47 46 45 43 35 34 37 36 34 32 36 35 30 30 29 30 30 28
52 56 58 61 61 64 72 77 77 80 74 73 67 64 61 61 58 50 53 56 58 58 58 60 56 50 51 48 46 45 46 48 48 47 37 33 32 39 39 34 35 37 33 31 29 30 29 30 25
55 59 63 65 70 74 72 88 87 71 65 50 44 52 58 53 50 51 51 53 54 55 55 58 53 50 51 45 44 46 47 46 46 40 37 36 41 43 40 35 35 37 35 30 31 30 29 29 26
58 62 66 68 71 72 78 73 73 42 32 24 34 45 50 49 49 48 47 50 56 57 54 55 54 51 46 41 36 42 46 45 44 43 40 38 41 41 40 34 35 37 35 31 32 31 30 27 27
65 69 71 69 65 69 61 45 16 8 15 19 27 39 42 40 41 42 46 50 56 54 50 49 51 51 47 40 35 39 42 41 41 40 39 38 40 40 39 37 36 37 35 33 33 32 31 29 27
67 72 71 67 54 52 29 27 23 17 23 22 25 33 37 41 41 42 45 45 54 51 48 44 49 47 44 38 38 39 40 39 42 43 41 40 39 40 38 38 36 37 35 35 35 33 31 30 29
65 57 51 38 26 18 17 18 15 18 25 21 23 34 35 38 33 37 41 39 44 41 44 38 39 40 40 38 39 43 47 45 44 40 43 41 39 40 37 37 38 36 34 36 35 36 32 32 31
45 33 18 20 16 16 18 15 11 21 20 22 23 25 33 26 29 33 25 32 35 36 36 35 37 33 36 40 42 38 41 43 41 41 42 38 38 39 37 38 38 34 36 35 36 36 33 35 33
13 13 18 18 19 20 18 14 10 21 24 28 25 22 18 12 18 26 25 25 29 38 36 40 36 33 35 38 39 42 44 42 41 40 39 38 40 36 37 39 35 35 37 36 38 35 36 39 36
8 13 17 15 19 20 23 19 16 25 6 19 18 13 7 27 18 31 20 24 24 28 43 38 34 33 37 41 40 38 39 38 35 35 36 36 36 35 39 36 36 39 36 37 36 38 41 42 40
5 10 10 18 16 18 18 15 18 17 8 4 23 26 18 18 19 26 23 24 20 21 24 32 39 40 39 38 36 32 36 35 35 36 34 32 34 36 37 36 38 39 33 34 36 38 39 40 37

GFSSGP_500_spd_108.txt.gz
Wind_Speed
29 30 30 30 32 31 26 17 18 24 25 21 22 23 24 25 27 27 27 30 32 31 31 27 27 24 20 19 22 25 24 22 20 18 16 16 15 16 17 18 19 19 20 19 19 17 17 15 16
27 29 32 33 33 29 23 15 17 28 28 24 24 26 27 27 28 28 29 31 34 35 32 33 33 31 28 22 23 25 25 25 23 20 19 16 16 18 17 18 19 19 20 20 17 17 15 15 16
26 27 28 32 32 28 24 20 22 28 30 27 27 30 31 30 31 31 31 31 32 33 33 34 34 33 32 29 26 27 26 26 25 23 21 18 18 18 18 18 19 19 21 20 17 16 13 13 14
30 31 31 33 31 30 25 23 25 25 29 31 32 30 32 32 33 32 33 33 34 34 35 34 37 36 35 32 32 29 29 30 27 25 24 21 19 20 20 19 19 20 20 19 16 14 14 13 12
32 32 33 32 30 26 25 25 29 28 28 32 35 31 32 33 35 35 36 37 37 37 36 37 38 38 36 32 31 33 31 32 30 28 25 25 22 21 21 20 21 20 19 19 16 14 13 13 11
36 35 37 35 33 29 25 24 29 31 30 31 37 34 34 38 36 38 39 41 42 40 39 39 38 39 38 33 32 30 31 31 34 32 27 26 25 23 23 21 22 20 19 17 13 14 14 13 15
39 40 40 39 36 30 26 26 30 32 33 33 35 37 36 37 39 39 41 43 44 42 40 40 40 40 40 36 34 31 29 28 33 35 31 27 27 25 23 22 22 19 19 16 16 15 17 17 17
42 44 43 42 39 33 28 31 33 36 35 35 35 38 37 39 38 41 42 43 42 42 40 42 42 41 39 38 36 34 30 30 31 37 33 29 28 27 24 24 23 20 21 20 17 18 17 18 17
47 48 45 43 39 38 37 38 37 39 38 36 36 36 38 39 41 42 43 43 45 44 42 42 43 43 40 37 31 29 30 26 29 34 33 29 31 28 26 25 24 22 20 22 21 19 21 20 19
50 53 47 44 43 41 42 41 37 39 40 39 36 37 39 40 44 43 42 45 44 49 44 41 42 43 42 39 30 28 29 26 27 30 32 30 32 29 27 26 25 23 21 23 23 23 23 24 22
53 51 46 46 44 44 43 39 40 38 38 39 38 38 40 40 42 42 43 45 48 48 42 42 40 42 41 38 38 34 29 31 28 29 31 32 32 31 28 27 25 24 23 24 25 26 26 26 26
51 50 47 46 43 42 42 42 39 40 38 36 38 38 40 42 43 45 45 47 49 48 47 45 43 40 40 39 32 35 33 32 31 31 30 32 33 32 30 28 27 26 24 25 27 28 29 30 31
53 49 48 46 40 42 44 45 44 42 38 39 37 38 40 43 46 48 47 49 52 52 48 46 45 44 43 39 30 34 35 31 30 34 33 30 34 34 32 30 29 27 27 27 29 30 33 34 34
49 51 47 44 43 44 45 43 46 42 39 40 39 39 42 44 47 50 52 52 52 55 54 54 53 50 48 44 38 40 38 34 38 37 35 31 34 36 33 31 31 29 28 28 30 31 35 34 28
51 53 51 47 48 46 49 49 45 47 45 40 39 40 39 41 44 50 53 54 54 54 57 58 56 54 51 47 43 41 38 37 37 38 40 34 35 38 36 33 32 31 29 30 30 34 35 28 24
51 51 48 46 46 48 49 51 46 46 47 46 41 41 41 41 41 44 49 51 54 54 56 61 60 57 53 49 47 45 43 42 40 40 39 40 37 38 40 35 34 30 30 30 29 34 31 24 26
49 51 51 50 48 47 52 54 51 47 48 50 49 48 46 46 45 44 45 49 52 54 56 60 64 61 57 51 51 47 45 47 44 42 40 41 39 38 41 38 35 31 30 30 30 33 26 24 27
52 52 54 53 50 49 52 54 53 55 55 50 51 54 54 52 50 50 50 51 53 55 57 60 62 62 60 57 52 51 47 47 44 43 43 42 43 41 43 42 34 32 30 28 30 33 24 26 30
53 53 54 49 53 55 54 53 52 53 56 56 57 58 59 59 57 59 59 61 62 59 59 59 61 62 64 57 48 52 43 43 44 45 45 45 45 44 42 40 36 32 31 27 31 31 26 28 31
52 53 53 52 54 55 56 56 53 55 60 61 61 65 69 70 70 71 71 68 69 65 63 63 61 63 62 62 51 50 45 42 47 45 50 49 47 43 44 41 37 31 31 29 31 31 27 30 31
52 53 53 54 57 56 58 57 55 59 61 68 70 75 78 81 83 84 83 80 75 76 68 65 65 64 63 59 60 51 51 45 46 46 48 49 46 45 44 40 36 31 34 32 32 31 30 32 30
53 53 55 55 57 59 62 68 56 65 66 71 78 83 85 86 87 86 82 77 73 71 71 66 64 63 65 60 58 51 48 45 39 41 46 47 49 46 44 40 37 34 37 32 31 32 32 34 31
53 54 56 58 59 64 57 72 65 72 73 78 79 72 65 68 67 65 65 63 63 66 65 68 65 63 64 65 53 50 48 45 44 41 44 48 50 47 46 42 38 39 37 34 32 32 33 35 32
54 56 58 62 66 71 64 71 73 69 67 57 40 34 37 45 42 41 41 44 48 55 55 61 65 64 64 57 48 50 44 46 44 42 44 50 49 49 48 44 40 39 38 35 33 34 34 34 34
55 61 65 67 71 73 69 65 61 50 30 21 23 28 33 35 32 30 30 32 36 42 49 52 56 58 56 50 49 44 42 40 39 38 43 49 48 51 46 45 40 40 37 34 35 35 33 34 35
61 67 69 65 66 63 49 41 33 15 14 18 20 21 25 28 27 25 28 32 36 40 44 49 54 55 47 46 47 41 41 38 38 40 45 50 48 50 50 41 38 41 35 34 36 36 33 34 33
62 60 61 62 50 37 21 18 9 5 18 24 24 21 23 23 23 20 25 29 31 35 38 40 46 48 42 44 46 46 46 41 42 46 43 46 49 49 42 38 39 36 34 36 37 35 33 33 32
60 46 31 21 15 13 7 17 6 9 21 22 24 25 25 28 21 25 21 30 26 26 32 37 38 42 44 43 50 48 48 47 48 45 43 43 46 46 46 37 37 33 35 36 36 35 34 33 34
11 10 6 6 11 13 8 16 9 9 18 23 21 17 20 19 11 12 15 19 17 25 20 34 39 39 36 38 42 43 45 48 48 45 44 45 46 50 37 39 37 33 35 38 36 36 34 36 36
4 6 9 9 13 13 13 13 11 21 18 22 20 15 12 9 17 18 8 14 13 17 19 30 25 28 36 31 35 39 46 45 42 41 42 45 49 44 41 38 35 36 36 34 36 35 36 38 38

GFSSGP_500_spd_111.txt.gz
Wind_Speed
22 23 24 26 29 27 24 17 18 26 25 23 24 24 21 20 21 23 23 24 24 24 26 30 29 26 25 21 19 21 24 23 18 18 17 16 15 13 15 15 16 16 16 15 15 12 12 11 11
22 22 21 22 25 24 21 16 18 25 28 25 25 24 25 23 24 22 23 22 25 27 29 29 26 26 26 25 24 22 24 26 23 21 19 20 18 15 16 17 16 17 17 15 14 12 13 10 11
24 24 23 25 23 18 19 17 22 25 28 27 26 25 27 25 27 26 25 25 27 31 32 30 28 28 27 28 24 24 26 25 24 24 21 20 20 18 17 17 16 17 19 15 14 13 13 12 12
25 25 27 28 24 19 18 20 22 24 29 30 29 29 24 28 27 28 28 29 31 32 31 32 31 31 30 30 30 25 25 27 25 27 24 21 20 20 19 17 17 17 19 16 15 12 12 12 11
31 29 31 30 27 23 21 21 22 25 30 31 30 29 27 28 28 29 33 35 34 35 35 34 34 34 34 33 32 30 26 27 25 27 26 26 21 22 21 19 18 17 17 16 12 11 12 12 11
35 34 36 34 31 27 22 21 24 27 29 29 32 30 29 30 29 29 32 33 36 39 38 37 36 37 36 36 35 32 30 28 25 26 27 26 24 23 23 21 19 18 17 15 14 13 13 14 14
38 38 39 37 35 31 24 26 27 30 31 32 33 32 31 29 30 31 33 35 37 39 41 40 39 39 39 38 37 34 30 28 28 27 28 28 25 22 25 22 21 19 19 15 14 13 15 15 15
41 41 42 38 37 34 32 33 33 32 33 35 35 33 32 31 31 32 34 36 38 40 41 42 42 41 40 40 39 36 35 32 30 28 28 29 27 23 24 24 22 22 21 17 15 13 14 17 17
43 44 44 42 39 38 38 39 36 36 35 37 37 35 33 33 34 32 33 37 39 40 41 40 41 43 43 42 41 37 32 26 25 23 26 27 25 23 23 25 24 23 23 19 16 14 14 17 18
44 46 45 45 45 45 42 40 39 41 39 37 37 38 38 37 37 39 37 38 41 41 41 40 38 40 43 40 38 35 30 27 24 23 27 28 27 24 23 25 25 25 24 21 18 17 17 19 19
46 46 44 47 46 47 47 44 44 42 40 37 37 39 40 39 40 42 43 41 42 43 43 43 42 41 38 38 37 33 29 26 22 24 28 29 27 25 26 26 26 26 25 23 21 19 19 21 22
47 46 47 46 43 41 43 45 44 48 43 39 42 42 43 44 44 43 46 45 44 44 45 47 45 41 41 36 38 37 29 27 25 26 25 28 29 28 29 28 28 28 26 25 23 22 21 23 23
50 49 50 50 46 46 44 42 44 41 42 44 43 44 44 44 46 45 47 47 47 48 48 49 47 46 41 41 37 39 36 31 29 27 26 29 30 29 30 31 29 29 28 27 24 24 24 23 26
48 48 46 46 46 45 44 44 47 44 42 41 43 44 43 43 43 45 48 48 48 50 49 52 49 48 45 42 42 41 39 40 39 33 31 33 34 30 30 34 31 31 29 28 26 24 25 23 27
50 50 48 45 49 49 47 48 48 50 45 42 42 43 42 40 41 43 46 49 49 50 50 51 52 52 49 50 44 43 42 44 43 36 36 36 35 36 32 33 36 34 32 29 27 25 25 25 27
52 50 49 50 51 52 51 50 49 47 46 44 43 43 43 41 41 42 41 43 47 46 49 52 53 55 53 50 51 46 47 45 47 43 40 39 37 36 37 36 36 37 36 31 28 26 24 25 27
52 52 51 51 51 51 53 53 51 48 46 47 47 47 46 45 46 47 47 46 47 48 47 47 51 53 55 56 55 52 49 49 48 47 43 41 39 39 37 39 38 37 39 35 30 27 22 25 26
53 53 53 53 51 53 53 52 56 51 49 49 51 48 47 47 49 49 50 50 50 50 52 51 50 49 52 55 57 54 52 51 53 49 44 41 43 41 39 39 40 38 39 38 33 29 22 24 26
54 54 54 54 54 56 53 51 52 54 53 54 48 49 49 49 50 51 53 54 55 56 56 56 57 55 55 54 54 54 52 50 52 51 46 41 43 46 42 41 41 38 39 40 37 30 24 23 27
56 57 56 56 55 57 57 53 51 54 53 53 54 54 53 54 54 56 57 59 60 61 62 62 63 63 62 57 55 54 54 52 51 53 51 47 44 48 44 42 43 41 41 40 38 31 27 26 28
59 59 57 58 58 56 57 54 51 52 56 55 57 57 58 60 62 64 65 67 69 69 70 71 71 71 70 65 60 58 56 57 54 58 52 47 43 48 44 45 44 43 43 40 38 33 28 30 30
60 57 58 58 57 56 55 59 47 53 58 59 61 62 64 67 69 73 76 78 80 80 79 80 81 80 77 72 66 59 56 59 50 54 51 42 48 51 44 47 46 43 42 40 39 36 30 31 30
59 58 59 57 55 53 53 62 44 58 59 59 62 65 71 76 78 80 83 88 85 79 72 69 78 84 79 75 71 65 55 59 53 53 49 50 50 48 47 48 46 43 43 42 39 38 29 32 33
54 53 51 49 51 51 54 63 49 56 62 63 68 73 75 76 73 64 57 46 44 44 46 49 65 80 76 73 73 67 59 59 54 49 47 52 45 48 47 44 44 44 45 43 40 36 31 34 34
51 47 45 46 54 53 58 59 61 62 68 68 71 68 57 45 38 42 31 30 28 25 26 31 41 55 62 65 65 67 62 59 49 46 50 51 45 51 45 43 44 46 45 45 42 36 34 33 35
47 45 50 55 57 58 62 61 65 66 54 28 26 28 31 31 35 24 20 21 20 17 18 21 25 37 45 52 56 59 59 52 44 45 50 50 47 49 46 46 48 47 46 42 40 38 36 35 35
47 51 53 56 59 61 57 50 52 35 14 12 16 17 23 27 27 24 16 16 15 19 16 20 26 32 37 41 42 46 50 42 43 44 47 49 51 49 47 47 49 45 40 38 38 39 37 38 37
50 51 49 50 40 29 18 20 18 12 14 14 16 16 17 15 13 12 16 18 19 22 24 21 26 29 35 36 38 41 40 42 43 45 45 49 48 43 45 45 43 40 37 39 38 39 39 39 36
43 37 31 27 8 4 7 4 13 12 16 22 17 18 20 13 16 12 9 13 14 16 22 21 31 34 35 34 35 40 42 44 46 47 49 48 40 37 38 40 43 39 43 40 40 39 39 37 34
15 14 12 9 8 5 8 5 15 12 12 13 19 21 19 13 10 13 9 3 7 3 10 10 20 28 27 35 40 42 43 48 51 50 49 43 39 39 38 41 43 47 48 43 40 41 37 34 34

GFSSGP_500_spd_114.txt.gz
Wind_Speed
20 20 20 20 20 16 20 18 19 27 28 27 26 25 23 22 21 23 23 23 23 23 19 19 20 21 23 22 20 21 20 21 22 21 18 17 17 14 12 12 13 12 11 12 14 12 12 13 12
22 21 21 19 18 12 12 15 20 25 28 27 26 27 24 27 23 20 23 23 23 25 25 23 23 25 23 21 17 20 20 22 22 20 21 19 17 17 15 13 13 13 12 13 13 12 12 12 12
23 23 24 22 17 16 15 16 17 22 27 29 27 26 25 27 24 22 23 23 24 25 29 30 29 27 25 23 23 21 21 23 24 21 20 20 18 17 17 16 15 14 12 12 13 15 12 11 11
24 23 26 26 21 17 19 19 20 22 26 29 30 29 27 27 26 24 25 26 27 27 30 31 33 31 29 28 26 27 24 23 23 25 22 21 18 17 18 19 17 15 14 12 11 14 11 11 11
30 28 31 29 26 22 22 23 23 23 25 26 30 31 29 27 27 26 26 28 29 29 30 32 34 34 34 32 31 29 29 27 25 25 25 22 20 17 17 18 19 16 15 14 12 12 13 12 12
34 33 36 35 31 25 23 26 27 25 26 28 29 28 30 29 28 26 29 30 31 31 33 34 35 34 34 34 34 34 31 29 29 26 25 26 24 18 16 17 19 18 16 16 14 13 13 12 11
37 39 41 38 35 28 27 28 29 29 29 31 29 32 33 33 31 30 31 33 32 33 33 32 35 35 35 35 36 36 34 32 30 30 30 27 27 24 18 17 18 18 17 18 16 14 14 13 12
35 37 40 41 38 34 32 32 31 32 34 33 32 34 34 35 33 33 33 34 34 35 36 36 34 36 35 36 38 36 36 36 34 32 31 28 27 26 22 18 20 18 19 19 17 15 14 13 13
37 39 38 39 39 39 36 33 33 34 36 36 37 36 35 36 38 38 37 37 37 38 38 38 35 36 38 38 38 38 37 32 31 30 27 26 24 24 24 20 19 20 19 21 19 17 16 15 14
38 39 39 40 41 40 41 38 37 40 37 38 37 38 38 38 40 42 41 39 40 42 42 41 38 37 38 39 38 37 34 31 26 24 26 25 26 26 28 24 22 21 20 21 21 20 18 16 15
39 38 41 42 43 45 44 43 42 42 41 39 42 42 43 41 41 43 45 44 44 44 43 44 42 40 41 40 40 38 34 32 27 23 24 30 29 29 29 28 25 24 23 22 22 22 21 19 18
42 41 43 44 45 45 45 46 42 44 39 40 43 41 43 44 44 44 47 48 49 48 47 47 47 45 43 43 41 40 37 33 29 26 26 27 28 31 32 29 28 28 25 24 24 24 23 21 21
41 43 44 46 46 45 46 46 44 41 41 41 40 39 40 41 44 46 46 47 48 49 51 51 51 50 48 47 43 40 39 37 32 31 26 26 27 30 34 33 31 30 29 26 26 25 24 24 22
42 46 46 45 46 48 46 45 45 41 40 41 42 40 38 39 41 43 46 48 48 49 51 52 52 52 52 47 46 41 41 41 35 33 31 32 32 30 33 36 32 33 33 29 27 26 25 23 22
48 50 49 47 47 49 47 47 47 45 42 41 42 43 44 43 43 43 44 47 47 48 50 52 53 54 52 50 48 47 43 43 41 38 36 34 34 34 33 33 32 34 37 33 28 28 26 25 23
50 50 51 53 50 51 50 49 53 45 46 45 44 44 44 45 44 43 45 47 47 47 48 50 53 53 54 54 52 48 48 47 45 44 41 40 37 36 37 33 33 34 40 39 31 28 29 27 24
51 56 57 53 53 50 52 53 54 52 50 48 46 44 46 47 49 48 48 48 47 50 49 48 49 49 52 54 56 53 51 49 48 45 43 46 40 36 39 37 36 34 37 41 37 30 29 29 26
53 56 52 55 54 51 52 53 55 56 52 52 51 49 49 50 52 54 54 53 52 52 53 52 52 51 51 52 54 54 56 54 51 50 49 48 44 39 39 40 42 39 38 39 40 32 31 31 28
54 53 52 52 55 55 53 52 58 58 59 56 53 52 52 51 52 54 54 54 56 56 56 57 57 59 57 56 55 53 52 54 53 52 51 48 46 44 43 43 45 45 38 37 40 36 34 30 31
65 66 64 64 62 60 58 48 59 58 58 58 56 51 51 51 52 54 54 55 56 57 58 59 59 60 60 59 59 57 54 54 54 51 51 52 48 47 46 45 45 46 39 40 39 39 37 34 31
63 63 64 65 64 63 66 57 62 66 63 57 55 51 51 52 53 55 56 58 59 59 60 61 63 63 64 64 65 63 61 59 56 51 49 51 47 47 49 47 44 43 49 43 42 41 39 38 33
61 62 60 61 62 61 64 65 59 61 66 64 55 53 53 55 56 57 59 61 62 64 65 67 69 71 73 74 73 72 67 64 58 54 51 54 47 48 49 47 48 51 54 49 44 41 40 42 35
56 55 55 56 57 60 55 62 51 58 61 53 51 53 52 53 54 56 59 61 65 68 71 73 75 78 78 80 82 81 77 71 67 64 56 52 52 49 49 52 52 54 53 50 45 41 42 41 38
50 49 51 53 53 54 50 54 48 51 50 51 50 50 53 55 58 62 64 68 74 77 79 82 84 85 87 87 83 85 84 80 78 72 63 60 59 51 46 56 53 53 52 51 46 42 44 42 41
49 48 49 50 50 49 47 44 42 44 47 49 51 55 58 62 67 69 69 65 50 43 47 46 48 53 56 65 78 87 89 86 84 79 69 68 63 54 48 54 55 53 50 52 45 45 45 43 42
49 46 46 48 45 38 48 45 48 47 49 53 58 59 59 57 48 43 35 31 31 34 34 32 34 33 35 41 54 70 76 79 82 80 74 71 63 53 50 49 56 53 52 53 49 46 45 43 43
48 44 43 43 44 47 48 45 48 50 51 47 41 32 30 31 31 31 27 31 28 26 26 25 25 25 24 24 34 44 51 59 64 69 72 68 57 49 49 51 53 52 53 54 47 42 44 46 38
36 40 40 43 43 44 38 38 36 34 29 25 20 21 22 21 26 26 27 27 29 29 23 22 19 19 17 14 19 30 42 46 50 58 59 52 50 49 50 52 51 51 51 50 44 43 43 39 32
40 40 40 38 32 23 18 18 15 19 15 16 20 19 17 17 17 13 7 14 18 23 23 22 24 20 16 18 23 27 32 36 38 37 38 43 49 48 48 50 49 48 48 48 43 43 38 36 33
31 25 24 22 12 16 15 14 11 10 13 13 17 17 12 9 15 11 11 18 14 4 3 13 22 21 23 20 21 28 30 35 37 38 41 44 45 46 45 45 43 46 46 45 45 44 40 38 38

GFSSGP_500_spd_117.txt.gz
Wind_Speed
18 19 20 19 19 18 15 14 22 28 28 27 27 27 27 26 27 26 26 23 22 21 21 20 22 22 20 20 19 18 15 15 18 19 20 18 17 17 15 13 12 10 9 9 9 10 11 12 13
21 21 21 20 17 16 10 13 19 25 24 22 26 27 29 33 28 25 25 23 23 22 21 22 22 22 24 24 21 18 19 18 19 20 19 19 18 18 17 16 15 12 10 10 9 10 11 14 13
24 22 23 21 17 15 14 21 21 26 24 25 27 25 30 35 25 27 25 26 24 24 24 25 25 26 27 27 25 23 21 19 21 23 22 20 20 18 17 17 17 15 13 11 11 10 9 11 11
27 26 25 23 19 18 18 25 23 26 27 26 27 28 32 30 30 27 26 27 27 27 26 27 27 27 27 28 26 25 25 24 23 23 24 23 21 20 18 18 17 16 16 13 13 12 9 9 10
31 31 30 29 25 23 25 26 28 29 29 27 29 29 30 30 29 27 27 28 28 29 27 28 29 28 29 29 30 30 27 27 26 25 24 24 24 23 20 19 17 17 17 16 15 13 11 11 10
32 33 34 33 30 28 26 29 33 30 31 31 32 29 32 30 24 25 28 29 31 32 29 29 31 32 32 31 28 27 30 29 28 27 26 25 24 25 24 20 19 18 18 17 16 15 13 12 11
32 36 35 36 35 33 31 31 33 34 32 35 32 29 32 32 26 31 31 33 34 34 32 32 31 33 33 32 30 29 30 31 29 28 29 30 29 27 27 24 20 20 19 18 18 17 15 13 13
31 37 37 35 35 34 35 35 33 37 38 36 36 34 35 38 29 35 34 34 37 37 36 35 35 35 35 34 32 31 31 31 30 28 26 29 29 29 27 26 22 22 22 20 19 18 17 16 14
32 34 36 36 40 37 37 36 34 38 37 37 39 37 39 39 38 38 37 38 38 40 40 39 39 38 37 36 35 35 33 32 31 29 25 26 28 27 25 24 24 22 22 21 20 19 19 19 17
33 35 33 39 40 39 41 39 36 40 40 39 41 40 41 39 38 39 40 41 41 42 43 43 43 41 40 38 39 38 37 34 32 29 26 26 27 28 25 23 25 26 24 25 22 20 20 21 20
35 37 36 39 40 41 42 43 42 41 43 41 41 40 40 43 40 42 43 44 45 45 45 45 46 46 44 42 41 41 41 35 34 29 27 25 26 28 31 30 28 27 27 25 24 24 24 23 22
35 37 37 38 41 42 43 42 44 43 43 43 44 44 39 42 41 43 44 46 47 48 48 48 49 48 47 46 44 42 43 39 35 32 29 28 27 28 29 30 29 29 28 28 26 25 24 24 24
38 36 39 39 43 45 43 44 44 42 40 41 42 41 42 41 41 41 42 42 47 48 49 50 49 49 49 50 48 48 48 47 40 35 31 30 30 30 27 27 30 30 29 31 29 27 25 25 26
32 34 38 42 44 50 51 46 51 46 44 43 43 42 41 40 40 39 41 43 44 45 47 48 51 51 52 52 49 47 50 48 45 43 34 32 31 32 32 28 29 30 29 31 33 28 27 25 26
39 40 41 42 45 45 47 48 48 51 53 43 43 43 44 41 41 41 42 45 46 47 48 50 50 53 53 50 48 49 49 48 45 42 42 38 36 33 33 29 30 30 30 29 31 32 28 27 25
44 44 44 47 47 48 48 51 50 52 50 46 47 45 45 44 45 44 45 47 49 50 51 50 51 50 52 54 53 51 51 49 48 45 44 44 41 38 38 32 32 35 32 30 31 35 33 28 27
44 46 45 49 58 55 53 53 56 56 57 55 47 46 46 46 46 47 49 48 48 50 51 50 48 49 51 54 55 54 54 54 51 48 47 46 44 42 42 35 33 37 37 33 32 33 35 32 30
47 49 51 55 52 56 62 54 58 55 57 58 51 49 49 50 53 52 49 50 50 50 53 55 53 52 52 53 54 55 56 56 56 51 48 48 47 44 42 41 37 37 37 34 37 34 35 35 31
53 53 54 55 60 63 62 62 58 60 56 56 57 56 56 56 53 53 53 55 56 55 55 57 58 57 56 55 55 55 57 58 57 54 48 50 49 47 45 45 41 38 37 37 38 40 34 37 32
58 61 60 61 64 67 68 65 72 69 66 64 61 62 61 57 55 54 54 55 56 58 60 59 60 62 63 63 61 60 58 59 58 56 55 52 52 49 49 46 44 41 41 41 39 39 38 36 36
60 63 64 65 65 66 68 68 66 62 67 67 67 60 59 59 59 58 58 57 57 58 60 60 62 63 64 66 65 64 63 62 62 57 55 54 52 49 47 44 45 46 44 43 41 38 39 35 37
58 58 61 64 65 66 63 71 63 55 48 57 65 63 60 57 58 59 59 58 58 58 59 60 62 65 67 67 66 65 65 64 62 61 57 56 52 49 49 49 44 48 44 42 41 41 42 46 38
57 58 57 57 59 63 54 51 51 33 35 46 54 52 50 51 52 52 55 59 57 60 61 61 62 65 67 69 69 69 69 69 68 66 63 59 56 55 54 51 48 49 46 43 44 46 45 47 43
51 51 50 50 53 55 47 40 42 37 43 50 46 46 49 47 46 45 47 50 53 56 59 60 63 65 69 72 75 76 76 75 75 73 71 68 66 59 59 54 51 51 49 49 47 48 47 47 46
44 46 47 49 37 48 36 35 30 42 42 42 43 46 47 48 46 48 50 51 54 57 61 64 66 70 75 78 81 81 82 84 85 82 81 77 72 68 62 61 59 53 52 52 50 50 45 47 48
42 47 50 50 39 33 28 40 33 49 44 41 44 45 47 49 48 49 51 54 56 55 53 50 51 51 51 52 55 60 64 71 80 85 88 86 80 76 70 69 64 61 55 57 54 52 51 52 49
46 49 48 50 48 45 41 37 43 45 42 45 47 47 46 43 40 40 39 33 27 34 34 33 34 33 35 35 39 42 46 50 57 72 92 93 90 80 77 72 69 67 62 59 57 54 55 49 45
45 43 42 39 37 33 26 19 28 37 31 34 35 36 32 27 31 30 29 30 29 32 34 36 30 29 32 28 29 33 39 46 50 60 69 75 86 88 80 75 73 70 66 59 58 57 57 48 46
37 31 35 35 37 34 25 20 22 27 27 25 26 24 28 32 30 27 25 22 22 25 22 25 29 35 36 33 24 25 26 32 38 43 45 48 56 66 70 72 71 72 62 60 61 57 51 44 45
36 33 36 32 24 18 19 23 21 25 21 21 22 21 24 20 21 17 16 18 15 19 14 15 21 25 29 27 20 19 16 14 24 35 39 40 42 45 48 51 56 55 60 61 58 51 47 45 48

GFSSGP_500_spd_120.txt.gz
Wind_Speed
20 20 18 19 19 15 11 9 4 30 32 27 28 26 27 26 28 34 31 20 22 23 21 18 20 21 22 20 18 19 15 16 17 17 17 17 17 15 16 17 16 16 13 10 10 10 7 7 9
21 21 19 21 17 17 2 15 19 31 25 20 18 25 27 32 35 33 28 25 27 26 22 19 20 20 20 21 22 21 18 18 20 21 22 20 18 16 16 17 18 16 16 14 12 11 10 7 6
23 23 24 21 16 14 9 11 27 33 23 23 25 23 28 33 30 26 26 30 29 28 23 21 22 22 23 23 24 23 21 19 19 21 22 24 23 20 18 18 18 18 16 17 15 13 12 10 8
25 27 26 25 18 14 14 18 31 31 29 25 26 29 31 28 31 26 28 28 30 29 28 25 25 25 25 26 26 26 24 22 22 22 21 21 22 23 22 20 18 20 19 18 17 15 13 10 9
27 29 29 29 24 20 22 23 31 31 29 32 29 30 34 32 25 28 28 29 31 31 29 28 27 29 28 28 28 27 25 25 24 23 23 23 22 21 21 21 21 19 21 20 18 16 14 11 11
29 30 31 29 29 24 12 28 34 36 31 32 37 32 33 37 28 18 29 30 31 32 31 30 29 31 31 30 31 30 27 27 26 25 24 24 24 23 23 22 22 21 19 21 21 18 15 13 13
26 32 30 30 29 29 30 37 36 35 36 37 38 34 34 37 38 21 29 31 31 33 33 32 31 33 33 33 32 30 30 30 29 27 25 25 26 26 25 23 23 24 21 21 22 22 18 15 14
26 30 29 27 29 34 35 38 40 36 39 41 38 38 36 40 40 30 29 33 34 38 37 36 36 36 35 35 35 34 33 32 31 28 26 25 25 26 25 23 21 22 22 21 23 23 21 18 16
27 30 29 29 30 37 39 40 39 37 39 39 41 41 40 42 42 37 35 37 38 39 40 40 39 38 38 38 37 37 36 35 33 31 29 27 26 27 26 26 22 18 19 22 22 20 21 20 18
26 30 28 32 35 39 36 37 39 38 37 38 39 41 43 43 41 40 42 41 42 40 42 43 42 42 41 41 40 39 40 37 36 35 31 28 26 26 27 26 24 21 19 20 21 26 23 21 20
26 25 27 31 35 39 35 38 40 41 38 40 42 44 45 42 43 43 45 45 43 45 42 43 45 46 45 43 42 41 40 39 39 38 35 31 27 25 26 27 26 26 24 21 20 21 23 24 25
26 27 30 32 34 36 37 39 39 41 40 37 42 43 42 43 45 43 42 45 47 45 47 43 45 47 49 46 45 40 41 41 41 42 39 34 31 27 26 27 28 28 28 23 19 21 22 24 24
23 25 25 26 30 31 37 37 40 39 39 43 45 42 42 44 44 45 44 43 44 48 48 47 44 46 48 49 49 45 40 40 44 44 42 37 34 32 31 29 28 28 26 27 21 22 23 25 25
25 26 29 32 33 38 38 35 33 36 41 42 42 45 46 46 45 43 42 42 43 44 44 46 47 47 47 49 50 48 42 45 43 45 43 39 33 34 32 33 30 29 28 28 25 21 24 24 25
30 35 36 39 38 43 45 47 43 40 43 40 41 46 46 49 45 45 46 45 46 46 44 46 48 48 49 49 50 50 48 49 50 47 44 39 37 33 36 34 32 32 30 29 28 21 23 24 23
39 39 41 41 45 53 55 55 46 48 50 52 46 43 51 50 48 49 51 49 49 49 48 46 46 46 47 47 49 50 49 50 55 48 47 39 37 39 37 36 35 35 35 32 34 24 22 24 23
41 46 45 45 47 52 57 58 57 53 55 53 53 51 51 51 52 53 56 57 50 46 48 49 49 48 48 52 52 51 50 50 49 56 45 46 41 42 41 37 36 37 38 34 33 31 25 26 25
46 48 47 47 33 50 57 62 62 65 60 52 55 60 59 53 56 59 60 53 50 51 51 52 52 52 50 51 51 52 52 53 52 53 55 51 48 45 45 43 37 38 40 35 30 34 31 27 30
55 53 52 46 49 53 58 61 62 64 62 63 62 64 68 69 66 59 53 53 54 53 54 54 55 56 54 54 54 54 55 56 56 56 54 54 53 51 48 47 45 36 41 40 36 34 37 31 31
50 51 51 51 55 58 59 65 60 66 64 65 68 69 70 72 73 65 65 60 56 55 54 54 56 57 58 58 58 58 56 56 56 56 57 58 57 54 54 52 48 44 41 42 42 37 38 36 34
48 50 52 56 58 61 64 67 63 60 61 48 50 58 65 63 63 57 53 57 58 56 56 55 55 57 58 59 60 63 62 61 60 57 55 55 58 56 59 55 52 48 45 44 44 41 41 40 38
53 54 56 58 61 63 60 68 62 55 56 46 54 59 60 53 49 47 48 51 53 57 58 58 57 56 60 63 63 64 65 65 64 65 64 62 59 59 56 54 52 51 47 46 44 41 41 45 41
52 53 57 58 58 59 50 53 54 45 46 47 52 57 44 43 44 45 46 47 48 50 52 55 58 60 60 62 65 66 66 67 66 67 67 65 64 61 60 59 55 53 53 53 46 41 42 44 44
48 50 55 56 54 51 41 44 46 38 43 45 48 46 43 43 49 51 45 42 44 47 49 51 51 51 54 63 64 64 67 68 68 68 69 66 64 61 60 61 57 56 52 55 52 42 41 45 46
48 48 44 43 43 45 39 27 37 36 42 45 44 44 45 47 48 47 46 44 42 44 47 49 51 53 55 57 61 63 63 65 69 71 72 70 70 66 65 64 64 59 54 58 52 50 48 47 49
43 40 41 45 45 48 46 46 37 41 54 48 46 49 49 49 46 45 45 45 45 47 47 49 51 55 58 61 66 69 72 73 76 76 77 76 76 73 68 68 67 62 59 58 56 53 54 50 51
41 41 44 49 48 50 47 40 35 44 40 37 39 40 41 43 42 41 42 42 39 40 41 40 41 42 41 42 42 44 46 52 59 64 73 81 85 83 78 75 74 68 64 64 63 62 53 53 52
44 44 47 47 46 43 30 14 26 34 38 40 42 39 39 37 32 33 33 30 30 29 29 30 32 36 36 36 32 28 29 31 37 45 51 58 68 82 88 84 78 80 72 71 67 63 59 57 57
46 47 40 38 38 39 39 33 29 28 38 42 47 40 33 32 33 32 31 27 26 23 21 24 27 27 25 31 34 33 33 36 38 41 44 52 58 62 73 91 90 88 53 75 71 70 63 62 62
36 28 34 36 33 33 36 29 19 25 38 37 29 26 28 27 28 25 17 17 14 17 17 20 20 18 21 24 27 31 35 39 37 34 40 45 49 58 62 74 89 74 44 57 67 68 66 65 65

GFSSGP_500_spd_123.txt.gz
Wind_Speed
23 22 21 18 15 8 9 9 16 20 22 23 26 27 29 33 33 35 32 25 26 19 20 20 21 20 20 21 20 16 18 16 16 16 17 18 17 17 16 14 15 18 18 18 17 16 12 10 10
24 23 22 19 14 7 12 20 13 17 26 26 23 24 26 29 28 30 28 25 29 26 22 22 21 22 22 22 22 21 21 20 19 19 20 22 21 20 18 17 15 15 16 19 19 18 15 11 10
26 24 24 21 15 10 15 24 27 24 29 35 25 21 24 26 24 23 26 32 31 26 25 26 24 23 22 22 22 22 22 22 21 21 20 20 21 22 22 20 17 15 15 17 19 19 17 14 11
26 26 26 22 17 13 10 21 26 32 34 28 24 28 28 26 25 23 24 28 32 30 26 28 27 26 25 24 25 25 26 24 23 22 23 23 24 23 21 20 20 18 17 17 18 19 18 16 13
24 25 27 24 20 19 20 17 25 35 35 30 28 30 33 31 29 24 21 26 29 32 28 30 28 28 28 27 28 27 27 26 26 24 24 26 25 25 24 22 22 22 20 17 18 18 19 16 13
23 25 23 22 24 25 25 32 32 36 37 29 32 35 36 37 35 29 23 26 29 30 31 30 30 30 30 30 30 31 30 29 28 27 27 27 26 26 25 22 21 22 23 20 16 18 18 17 16
23 24 22 21 23 23 21 35 37 38 37 37 34 40 41 41 42 36 29 20 29 29 31 31 32 32 33 33 33 32 30 30 29 29 29 28 27 26 25 22 20 18 19 19 18 16 17 18 19
25 24 19 21 23 25 28 33 40 38 33 36 35 39 45 45 43 40 34 30 29 34 33 33 34 35 35 35 36 36 35 33 32 31 30 28 28 27 26 25 21 17 16 17 16 15 16 15 18
23 22 20 23 26 31 31 30 35 34 32 31 33 36 38 43 45 45 39 37 40 36 38 37 36 38 37 38 38 38 39 36 36 34 32 30 29 29 28 27 23 19 16 15 16 16 16 14 12
23 20 19 23 25 29 27 28 31 32 31 32 32 34 37 40 44 46 40 42 41 42 39 41 41 41 41 40 40 41 40 38 37 36 34 31 30 29 28 27 27 23 19 17 19 19 19 17 16
24 19 23 21 23 26 26 26 28 29 28 33 35 34 36 41 40 37 45 45 43 43 42 42 43 43 44 44 43 42 42 40 39 37 35 31 31 30 29 29 27 28 22 20 19 19 20 19 17
21 17 19 19 22 23 25 25 23 26 25 32 35 34 36 37 34 37 33 38 41 42 46 45 46 46 45 47 44 44 43 43 43 40 36 34 33 31 29 30 30 26 26 24 20 19 21 23 20
18 16 15 15 17 19 24 22 27 23 28 32 34 32 33 34 35 37 35 35 43 44 46 47 47 47 47 46 48 46 46 45 43 44 43 42 38 34 29 30 31 30 28 29 25 22 22 22 24
25 26 26 26 23 26 32 33 34 31 37 36 35 35 35 38 38 36 37 41 44 44 43 44 45 48 49 49 50 49 49 46 47 45 46 42 44 36 29 30 30 31 30 31 31 27 23 24 23
27 29 31 34 34 34 37 39 42 40 42 43 40 40 38 40 40 38 39 40 42 45 42 44 43 43 45 44 47 51 49 47 45 47 52 52 47 43 34 34 33 30 31 32 30 29 28 24 24
37 37 40 40 43 42 45 47 45 47 49 51 50 46 40 42 42 40 46 45 44 45 44 45 46 44 44 42 44 45 47 48 49 47 46 47 54 42 40 36 33 31 31 33 35 32 31 29 26
42 50 51 49 49 49 48 47 45 46 49 51 54 52 48 49 49 52 54 53 54 47 47 43 46 50 48 49 50 50 50 50 49 47 48 49 45 50 44 38 36 35 35 33 33 37 37 36 29
51 49 49 54 52 52 49 50 50 52 57 59 61 49 42 51 65 67 62 59 53 52 52 48 49 52 53 51 52 54 53 54 54 53 50 52 52 56 54 40 42 37 38 34 36 34 38 40 37
53 53 51 47 49 46 46 48 49 53 55 58 50 45 58 66 74 75 71 55 51 57 60 60 57 54 55 56 54 54 56 55 55 55 54 53 52 48 47 50 51 45 40 37 39 38 37 42 39
53 53 50 46 47 49 50 49 48 49 50 48 55 58 63 69 72 72 70 68 56 53 56 57 61 60 56 57 59 57 56 56 57 57 55 55 55 55 59 54 54 43 43 44 45 43 41 42 45
51 51 46 49 52 53 55 54 56 50 46 51 55 61 64 65 63 60 57 57 54 53 53 56 57 57 58 59 58 57 57 57 59 59 59 58 59 58 57 57 59 56 48 47 49 50 49 42 47
49 47 51 54 54 56 55 60 53 47 48 53 53 53 54 53 53 57 54 47 49 49 48 51 56 57 57 57 58 58 57 55 58 60 60 61 60 61 61 58 56 59 49 53 48 52 54 50 48
50 54 54 55 56 56 51 53 50 46 50 51 49 48 46 44 46 45 50 52 53 54 52 52 51 54 58 58 58 57 58 58 58 61 62 63 64 64 63 62 56 58 59 57 60 60 55 55 50
54 51 50 46 48 53 44 42 44 38 42 44 42 44 44 46 45 45 46 49 52 54 53 52 51 50 52 54 56 56 57 59 60 63 64 66 66 67 67 66 66 61 59 58 60 59 68 64 55
44 45 47 48 44 45 34 39 37 39 42 44 47 46 48 49 50 50 51 56 55 51 48 46 48 47 49 50 52 53 55 57 59 63 66 67 68 67 66 67 67 68 62 60 58 56 61 64 61
49 43 42 45 41 39 36 45 45 43 43 47 50 51 51 53 52 54 52 48 50 50 50 49 46 47 49 49 51 54 56 56 56 57 62 66 67 67 67 67 68 67 67 64 62 60 62 66 58
44 43 42 45 44 48 44 50 47 45 38 30 31 34 39 39 37 40 43 44 42 40 41 42 42 44 46 49 51 53 57 61 65 67 67 68 69 70 71 71 70 68 68 68 67 63 63 65 63
40 41 41 43 46 47 49 42 31 30 28 29 32 38 42 45 43 42 40 35 34 35 30 29 29 29 30 32 34 34 37 36 35 39 45 55 69 78 80 77 77 77 72 72 72 69 68 68 63
42 42 45 44 43 42 44 40 33 35 39 43 45 44 40 28 34 33 33 35 26 21 21 20 23 29 30 25 24 24 25 26 25 27 31 36 39 48 57 72 86 83 77 75 75 73 74 63 68
42 45 41 42 41 37 36 38 33 29 29 29 30 30 36 42 35 28 26 19 13 13 11 13 10 8 11 17 19 20 23 23 22 29 36 43 50 46 47 53 60 77 88 81 79 78 79 54 60

GFSSGP_500_spd_129.txt.gz
Wind_Speed
25 22 21 20 17 20 21 23 24 26 24 24 21 22 21 19 22 24 26 27 27 26 23 23 22 22 21 22 22 22 21 19 18 19 19 19 20 21 20 19 19 21 20 20 20 21 21 20 20
22 23 21 18 16 19 23 25 26 25 25 23 24 23 23 23 25 26 27 23 24 27 25 25 26 23 23 23 23 23 23 22 21 21 21 21 21 23 23 22 20 20 21 20 19 22 21 22 21
22 23 19 17 18 22 26 30 30 27 26 22 24 25 26 26 25 22 22 25 25 26 25 25 28 26 26 26 25 24 24 24 24 22 22 22 22 23 25 25 25 23 20 20 20 20 21 22 22
24 22 19 18 21 24 30 35 32 29 29 26 29 28 25 23 22 22 23 24 23 23 25 27 28 29 29 29 28 27 26 26 25 25 24 24 24 25 26 27 26 23 21 20 20 20 20 19 21
27 23 20 20 23 27 34 34 33 34 32 30 31 30 30 27 25 25 27 28 26 26 29 30 31 29 29 31 31 30 30 29 26 26 26 26 25 26 27 27 28 26 22 21 20 20 20 18 19
27 25 20 21 25 31 33 34 35 36 36 33 31 31 29 28 28 27 29 30 31 30 31 31 32 34 32 29 32 33 33 32 29 28 28 27 27 26 27 28 27 28 26 22 20 21 21 19 19
25 24 20 21 25 32 32 33 36 36 37 36 34 31 30 30 30 31 29 31 32 30 35 37 35 37 33 32 32 34 35 34 33 31 30 29 28 27 28 29 27 26 26 24 21 21 20 20 20
23 23 22 21 25 30 30 29 30 34 34 35 33 32 31 31 30 29 27 28 32 31 29 34 37 35 38 35 33 34 36 36 36 35 34 32 31 29 29 30 28 27 26 25 22 20 20 19 19
22 21 22 25 24 26 26 27 28 30 29 29 29 31 34 33 33 31 27 27 30 31 32 36 39 37 35 37 36 35 35 37 38 38 38 36 33 32 32 31 29 27 26 26 24 22 21 21 19
21 19 22 24 25 25 26 27 27 29 29 30 33 34 35 35 34 33 30 27 28 30 32 30 33 41 42 38 39 38 37 37 39 39 41 40 39 37 36 34 29 26 25 26 26 24 23 24 24
22 21 21 25 26 26 26 27 28 26 27 33 35 34 33 30 29 31 31 30 28 29 28 28 27 30 37 38 34 38 39 38 40 42 44 44 43 41 41 38 32 31 28 25 25 25 25 26 26
21 20 19 21 25 27 26 25 26 27 28 33 35 30 27 29 33 30 32 35 30 27 26 28 27 27 31 28 33 36 37 38 40 43 46 48 48 47 46 41 36 35 32 27 26 25 27 26 27
19 20 18 17 20 21 23 22 21 22 30 31 30 32 33 31 31 32 36 38 37 37 38 39 34 28 32 36 35 37 39 39 37 42 47 50 51 52 51 48 43 40 37 31 29 28 27 27 29
24 22 22 24 27 28 32 30 31 35 35 34 36 39 39 40 41 43 44 44 43 45 44 41 38 36 33 37 37 38 41 42 42 44 51 53 48 54 58 57 52 46 43 37 33 32 31 30 29
28 30 34 34 35 35 40 40 47 50 50 47 47 49 51 51 49 47 49 48 48 49 47 46 44 40 39 39 41 41 42 44 47 47 49 52 56 54 58 64 63 55 50 47 41 37 35 32 30
34 37 32 33 37 36 40 45 47 51 54 57 58 53 52 54 53 53 54 54 53 51 52 50 48 45 44 44 46 47 47 48 49 51 53 53 55 59 56 58 59 65 62 55 48 43 38 35 34
39 42 41 40 42 46 50 52 52 55 55 57 59 60 60 59 58 53 54 54 56 56 54 55 55 53 54 56 53 54 54 53 54 54 57 59 59 59 51 59 58 61 75 64 57 50 42 39 37
44 48 47 48 46 50 50 51 52 52 53 56 56 55 56 59 61 62 60 58 58 59 58 61 60 59 59 59 60 59 59 60 60 59 60 63 63 62 61 61 57 61 57 68 66 55 45 43 42
48 49 52 49 51 50 46 47 49 53 55 55 55 57 59 61 62 64 66 66 66 67 68 67 68 67 65 65 62 60 60 65 64 65 65 67 69 68 63 62 57 53 52 49 58 58 55 52 48
50 51 51 51 48 45 43 46 50 54 54 54 56 56 57 60 62 63 64 65 68 70 71 71 70 69 68 64 61 61 60 62 65 70 67 70 71 72 71 65 63 59 59 47 43 74 58 60 51
50 50 50 48 47 48 50 53 54 52 53 54 56 58 58 59 59 62 64 66 67 69 70 70 68 61 57 58 58 59 61 62 67 73 73 72 74 76 75 71 68 64 58 57 53 59 45 63 51
48 47 48 49 49 50 50 52 51 54 54 56 56 56 56 58 60 62 63 62 61 59 57 56 54 55 56 61 65 67 64 63 62 67 71 73 74 77 78 76 71 65 62 57 63 58 47 58 59
45 47 50 51 51 50 51 51 49 55 56 57 58 58 56 55 53 52 51 50 50 51 51 53 56 57 58 61 64 65 66 65 64 59 63 70 71 78 80 77 73 68 63 63 60 64 42 56 45
48 50 49 48 49 49 47 52 52 56 57 56 53 50 49 50 50 50 50 51 53 54 55 57 59 60 61 61 63 65 65 64 62 62 64 66 67 70 80 79 75 71 65 64 64 62 61 52 51
44 44 48 49 49 50 53 58 58 55 55 53 49 48 50 52 53 52 53 56 58 59 58 56 55 55 53 53 55 54 52 51 52 58 60 60 62 60 73 79 76 73 70 66 64 63 61 57 57
41 42 44 47 50 51 51 57 52 48 45 41 45 49 50 50 50 52 52 50 50 48 45 47 49 50 52 53 55 55 54 54 49 48 49 50 51 54 61 72 76 72 72 70 67 64 62 61 61
38 39 39 41 45 48 50 52 50 44 42 45 46 45 45 45 47 46 46 46 45 46 44 42 41 42 42 42 45 48 49 50 47 43 44 43 44 44 49 61 69 72 71 71 70 68 66 65 63
33 36 39 39 41 47 49 50 49 45 46 45 46 45 44 43 41 42 41 40 37 34 32 32 31 26 27 30 34 33 29 28 29 35 41 41 38 39 40 45 58 67 70 70 71 70 68 66 67
33 36 38 39 41 46 49 47 49 47 42 43 40 39 39 40 39 35 30 29 26 25 24 19 17 17 24 31 29 25 22 20 21 23 27 32 36 38 37 37 43 51 59 65 70 73 71 70 70
34 35 38 41 44 46 49 40 44 37 37 35 37 36 34 34 32 28 24 24 21 19 16 10 14 19 25 27 27 27 17 16 13 13 13 14 18 20 25 31 39 45 50 56 60 63 70 75 76